Darstellungsparameter: Aktuell verwendete Einstellungen:
Skalierung der Graphiken ... ?
xyx+y,   Skalierungsfaktor:      Skalierung: Modus: x, Faktor: 1
Darstellungszeitraum ... ?
Vom - - bis: - -   Zeitraum: 17.02.2019 - 16.08.2019
Min/Max/Avg-Anzeige ... ?
Zeige MMA aktuell
Zeige MMA Monat
Zeige MMA alles
Zeige --A aktuell
Zeige --A Monat
Zeige --A alles
Keine MMA-Anzeige
MMA:
Minimum Maximum Average (ber die Originaldaten)
MMA-Basis: 17.02.2019 - 16.08.2019
Quicknavigation für Darstellung... ?
Tage:      1T, 2T, 3T, 5T -1T -2T -3T -5T +1T +2T +3T +5T
Wochen: 1W, 2W, 3W -1W -2W -3W +1W +2W +3W
Monate: 1M, 3M, 6M -1M -3M -6M +1M +3M +6M
Jahre:    1J, 3J, 5J, 10J -1J -3J -5J -10J +1J +3J +5J +10J
Nutze für die Darstellung ... ?
Originaldaten oder Mittelwerte auf ...
Stundenbasis Tagesbasis Wochenbasis
Monatsbasis Jahresbasis      Datenbasis: Original-Daten
Darstellen als:
Statistik (Auto) Statistik J:M      Darstellung:
Zur Graphik,    zurück zur Übersicht aller Sensoren.
 
Tabellarische Datenbersicht: ?
 
Sensor: Nr:Datum:Temp:Feuchte:Taupunkt:
Aussen-T/F 1 17-02-2019 00:00:00 1.9 C 94 % 1.04 C
2 17-02-2019 00:05:00 1.9 C 94 % 1.04 C
3 17-02-2019 00:10:00 1.8 C 94 % 0.94 C
4 17-02-2019 00:15:00 1.7 C 94 % 0.84 C
5 17-02-2019 00:20:00 1.6 C 94 % 0.74 C
6 17-02-2019 00:25:00 1.5 C 94 % 0.64 C
7 17-02-2019 00:30:00 1.6 C 94 % 0.74 C
8 17-02-2019 00:35:00 1.5 C 94 % 0.64 C
9 17-02-2019 00:40:00 1.3 C 94 % 0.44 C
10 17-02-2019 00:45:00 1.3 C 94 % 0.44 C
11 17-02-2019 00:50:00 1.3 C 94 % 0.44 C
12 17-02-2019 00:55:00 1.2 C 94 % 0.34 C
13 17-02-2019 01:00:00 1.2 C 94 % 0.34 C
14 17-02-2019 01:05:00 1.2 C 94 % 0.34 C
15 17-02-2019 01:10:00 1.2 C 94 % 0.34 C
16 17-02-2019 01:15:00 0.9 C 94 % 0.05 C
17 17-02-2019 01:20:00 0.8 C 94 % -0.05 C
18 17-02-2019 01:25:00 0.8 C 94 % -0.05 C
19 17-02-2019 01:30:00 0.8 C 94 % -0.05 C
20 17-02-2019 01:35:00 0.7 C 94 % -0.15 C
21 17-02-2019 01:40:00 0.6 C 95 % -0.11 C
22 17-02-2019 01:45:00 0.6 C 95 % -0.11 C
23 17-02-2019 01:50:00 0.8 C 95 % 0.09 C
24 17-02-2019 01:55:00 0.8 C 95 % 0.09 C
25 17-02-2019 02:00:00 0.7 C 95 % -0.01 C
Sensor: Nr:Datum:Temp:Feuchte:Taupunkt:
Aussen-T/F 26 17-02-2019 02:05:00 0.7 C 95 % -0.01 C
27 17-02-2019 02:10:00 0.6 C 95 % -0.11 C
28 17-02-2019 02:15:00 0.4 C 95 % -0.31 C
29 17-02-2019 02:20:00 0.4 C 95 % -0.31 C
30 17-02-2019 02:25:00 0.3 C 95 % -0.4 C
31 17-02-2019 02:30:00 0.3 C 95 % -0.4 C
32 17-02-2019 02:35:00 0.2 C 95 % -0.5 C
33 17-02-2019 02:40:00 0.2 C 95 % -0.5 C
34 17-02-2019 02:45:00 0.1 C 95 % -0.6 C
35 17-02-2019 02:50:00 0 C 95 % -0.7 C
36 17-02-2019 02:55:00 0.2 C 95 % -0.5 C
37 17-02-2019 03:00:00 0.3 C 96 % -0.26 C
38 17-02-2019 03:05:00 0.3 C 95 % -0.4 C
39 17-02-2019 03:10:00 0.2 C 95 % -0.5 C
40 17-02-2019 03:15:00 0.2 C 95 % -0.5 C
41 17-02-2019 03:20:00 0.1 C 95 % -0.6 C
42 17-02-2019 03:25:00 0 C 95 % -0.7 C
43 17-02-2019 03:30:00 -0.1 C 95 % -0.8 C
44 17-02-2019 03:35:00 -0.1 C 95 % -0.8 C
45 17-02-2019 03:40:00 0 C 95 % -0.7 C
46 17-02-2019 03:45:00 0.1 C 96 % -0.46 C
47 17-02-2019 03:50:00 0.1 C 96 % -0.46 C
48 17-02-2019 03:55:00 0 C 96 % -0.56 C
49 17-02-2019 04:00:00 -0.1 C 96 % -0.66 C
50 17-02-2019 04:05:00 -0.2 C 95 % -0.9 C
Sensor: Nr:Datum:Temp:Feuchte:Taupunkt:
Aussen-T/F 51 17-02-2019 04:10:00 -0.2 C 95 % -0.9 C
52 17-02-2019 04:15:00 -0.2 C 95 % -0.9 C
53 17-02-2019 04:20:00 -0.3 C 95 % -1 C
54 17-02-2019 04:25:00 -0.3 C 95 % -1 C
55 17-02-2019 04:30:00 -0.3 C 96 % -0.86 C
56 17-02-2019 04:35:00 -0.4 C 96 % -0.96 C
57 17-02-2019 04:40:00 -0.4 C 95 % -1.1 C
58 17-02-2019 04:45:00 -0.6 C 95 % -1.3 C
59 17-02-2019 04:50:00 -0.7 C 95 % -1.4 C
60 17-02-2019 04:55:00 -0.7 C 96 % -1.26 C
61 17-02-2019 05:00:00 -0.6 C 96 % -1.16 C
62 17-02-2019 05:05:00 -0.6 C 96 % -1.16 C
63 17-02-2019 05:10:00 -0.7 C 96 % -1.26 C
64 17-02-2019 05:15:00 -0.7 C 95 % -1.4 C
65 17-02-2019 05:20:00 -0.8 C 95 % -1.5 C
66 17-02-2019 05:25:00 -0.8 C 95 % -1.5 C
67 17-02-2019 05:30:00 -0.8 C 96 % -1.36 C
68 17-02-2019 05:35:00 -0.9 C 96 % -1.46 C
69 17-02-2019 05:40:00 -1 C 96 % -1.56 C
70 17-02-2019 05:45:00 -1.1 C 96 % -1.66 C
71 17-02-2019 05:50:00 -1.1 C 95 % -1.8 C
72 17-02-2019 05:55:00 -1.2 C 95 % -1.9 C
73 17-02-2019 06:00:00 -1.1 C 96 % -1.66 C
74 17-02-2019 06:05:00 -0.8 C 96 % -1.36 C
75 17-02-2019 06:10:00 -0.8 C 96 % -1.36 C
Sensor: Nr:Datum:Temp:Feuchte:Taupunkt:
Aussen-T/F 76 17-02-2019 06:15:00 -0.8 C 96 % -1.36 C
77 17-02-2019 06:20:00 -0.9 C 96 % -1.46 C
78 17-02-2019 06:25:00 -1.1 C 96 % -1.66 C
79 17-02-2019 06:30:00 -1.1 C 96 % -1.66 C
80 17-02-2019 06:35:00 -1.2 C 96 % -1.75 C
81 17-02-2019 06:40:00 -1.1 C 96 % -1.66 C
82 17-02-2019 06:45:00 -1 C 96 % -1.56 C
83 17-02-2019 06:50:00 -0.9 C 96 % -1.46 C
84 17-02-2019 06:55:00 -0.9 C 96 % -1.46 C
85 17-02-2019 07:00:00 -1 C 96 % -1.56 C
86 17-02-2019 07:05:00 -1.1 C 96 % -1.66 C
87 17-02-2019 07:10:00 -1.2 C 96 % -1.75 C
88 17-02-2019 07:15:00 -1.3 C 96 % -1.85 C
89 17-02-2019 07:20:00 -1.3 C 96 % -1.85 C
90 17-02-2019 07:25:00 -1.2 C 96 % -1.75 C
91 17-02-2019 07:30:00 -1.2 C 96 % -1.75 C
92 17-02-2019 07:35:00 -1.2 C 96 % -1.75 C
93 17-02-2019 07:40:00 -1.3 C 96 % -1.85 C
94 17-02-2019 07:45:00 -1.3 C 96 % -1.85 C
95 17-02-2019 07:50:00 -1.4 C 96 % -1.95 C
96 17-02-2019 07:55:00 -1.5 C 96 % -2.05 C
97 17-02-2019 08:00:00 -1.5 C 96 % -2.05 C
98 17-02-2019 08:05:00 -1.4 C 96 % -1.95 C
99 17-02-2019 08:10:00 -1.5 C 96 % -2.05 C
100 17-02-2019 08:15:00 -1.4 C 96 % -1.95 C
Sensor: Nr:Datum:Temp:Feuchte:Taupunkt:
Aussen-T/F 101 17-02-2019 08:20:00 -1.4 C 96 % -1.95 C
102 17-02-2019 08:25:00 -1.4 C 96 % -1.95 C
103 17-02-2019 08:30:00 -1.4 C 96 % -1.95 C
104 17-02-2019 08:35:00 -1.3 C 96 % -1.85 C
105 17-02-2019 08:40:00 -1.2 C 96 % -1.75 C
106 17-02-2019 08:45:00 -1.2 C 96 % -1.75 C
107 17-02-2019 08:50:00 -1.2 C 96 % -1.75 C
108 17-02-2019 08:55:00 -1.1 C 96 % -1.66 C
109 17-02-2019 09:00:00 -1 C 96 % -1.56 C
110 17-02-2019 09:05:00 -0.9 C 96 % -1.46 C
111 17-02-2019 09:10:00 -0.9 C 96 % -1.46 C
112 17-02-2019 09:15:00 -0.8 C 96 % -1.36 C
113 17-02-2019 09:20:00 -0.8 C 96 % -1.36 C
114 17-02-2019 09:25:00 -0.8 C 96 % -1.36 C
115 17-02-2019 09:30:00 -0.8 C 96 % -1.36 C
116 17-02-2019 09:35:00 -0.8 C 96 % -1.36 C
117 17-02-2019 09:40:00 -0.8 C 96 % -1.36 C
118 17-02-2019 09:45:00 -0.8 C 96 % -1.36 C
119 17-02-2019 09:50:00 -0.7 C 96 % -1.26 C
120 17-02-2019 09:55:00 -0.7 C 96 % -1.26 C
121 17-02-2019 10:00:00 -0.7 C 96 % -1.26 C
122 17-02-2019 10:05:00 -0.6 C 96 % -1.16 C
123 17-02-2019 10:10:00 -0.5 C 96 % -1.06 C
124 17-02-2019 10:15:00 -0.4 C 96 % -0.96 C
125 17-02-2019 10:20:00 -0.4 C 97 % -0.82 C
Sensor: Nr:Datum:Temp:Feuchte:Taupunkt:
Aussen-T/F 126 17-02-2019 10:25:00 -0.3 C 97 % -0.72 C
127 17-02-2019 10:30:00 -0.2 C 97 % -0.62 C
128 17-02-2019 10:35:00 -0.1 C 97 % -0.52 C
129 17-02-2019 10:40:00 0.1 C 97 % -0.32 C
130 17-02-2019 10:45:00 0.2 C 97 % -0.22 C
131 17-02-2019 10:50:00 0.3 C 97 % -0.12 C
132 17-02-2019 10:55:00 0.6 C 97 % 0.18 C
133 17-02-2019 11:00:00 0.7 C 97 % 0.28 C
134 17-02-2019 11:05:00 0.9 C 97 % 0.48 C
135 17-02-2019 11:10:00 1.1 C 97 % 0.68 C
136 17-02-2019 11:15:00 1.3 C 97 % 0.88 C
137 17-02-2019 11:20:00 1.6 C 97 % 1.18 C
138 17-02-2019 11:25:00 1.8 C 97 % 1.38 C
139 17-02-2019 11:30:00 2.1 C 97 % 1.67 C
140 17-02-2019 11:35:00 2.3 C 97 % 1.87 C
141 17-02-2019 11:40:00 2.5 C 97 % 2.07 C
142 17-02-2019 11:45:00 2.8 C 97 % 2.37 C
143 17-02-2019 11:50:00 2.9 C 97 % 2.47 C
144 17-02-2019 11:55:00 3.2 C 97 % 2.77 C
145 17-02-2019 12:00:00 3.3 C 97 % 2.87 C
146 17-02-2019 12:05:00 3.5 C 97 % 3.07 C
147 17-02-2019 12:10:00 3.7 C 97 % 3.27 C
148 17-02-2019 12:15:00 3.9 C 97 % 3.47 C
149 17-02-2019 12:20:00 4.2 C 97 % 3.77 C
150 17-02-2019 12:25:00 4.5 C 97 % 4.07 C
Sensor: Nr:Datum:Temp:Feuchte:Taupunkt:
Aussen-T/F 151 17-02-2019 12:30:00 4.8 C 98 % 4.51 C
152 17-02-2019 12:35:00 5.2 C 98 % 4.91 C
153 17-02-2019 12:40:00 5.6 C 98 % 5.31 C
154 17-02-2019 12:45:00 5.8 C 98 % 5.51 C
155 17-02-2019 12:50:00 6.1 C 98 % 5.81 C
156 17-02-2019 12:55:00 6.2 C 97 % 5.76 C
157 17-02-2019 13:00:00 6.3 C 98 % 6.01 C
158 17-02-2019 13:05:00 6.5 C 97 % 6.06 C
159 17-02-2019 13:10:00 6.7 C 97 % 6.26 C
160 17-02-2019 13:15:00 6.8 C 97 % 6.36 C
161 17-02-2019 13:20:00 7.1 C 97 % 6.66 C
162 17-02-2019 13:25:00 7.3 C 97 % 6.86 C
163 17-02-2019 13:30:00 7.6 C 97 % 7.16 C
164 17-02-2019 13:35:00 7.8 C 97 % 7.35 C
165 17-02-2019 13:40:00 8.1 C 97 % 7.65 C
166 17-02-2019 13:45:00 8.4 C 96 % 7.8 C
167 17-02-2019 13:50:00 8.7 C 95 % 7.94 C
168 17-02-2019 13:55:00 8.9 C 94 % 7.99 C
169 17-02-2019 14:00:00 9.1 C 92 % 7.87 C
170 17-02-2019 14:05:00 9.3 C 91 % 7.91 C
171 17-02-2019 14:10:00 9.5 C 89 % 7.78 C
172 17-02-2019 14:15:00 9.6 C 88 % 7.71 C
173 17-02-2019 14:20:00 9.7 C 87 % 7.64 C
174 17-02-2019 14:25:00 9.8 C 86 % 7.57 C
175 17-02-2019 14:30:00 9.9 C 85 % 7.5 C
Sensor: Nr:Datum:Temp:Feuchte:Taupunkt:
Aussen-T/F 176 17-02-2019 14:35:00 9.9 C 84 % 7.33 C
177 17-02-2019 14:40:00 10 C 84 % 7.43 C
178 17-02-2019 14:45:00 10.1 C 83 % 7.35 C
179 17-02-2019 14:50:00 10.1 C 83 % 7.35 C
180 17-02-2019 14:55:00 10.2 C 83 % 7.45 C
181 17-02-2019 15:00:00 10.2 C 82 % 7.27 C
182 17-02-2019 15:05:00 10.3 C 81 % 7.19 C
183 17-02-2019 15:10:00 10.5 C 79 % 7.02 C
184 17-02-2019 15:15:00 10.8 C 79 % 7.31 C
185 17-02-2019 15:20:00 11.1 C 79 % 7.6 C
186 17-02-2019 15:25:00 11.2 C 78 % 7.51 C
187 17-02-2019 15:30:00 11.3 C 78 % 7.61 C
188 17-02-2019 15:35:00 11.4 C 77 % 7.52 C
189 17-02-2019 15:40:00 11.6 C 75 % 7.33 C
190 17-02-2019 15:45:00 11.8 C 73 % 7.12 C
191 17-02-2019 15:50:00 12 C 73 % 7.32 C
192 17-02-2019 15:55:00 12.1 C 73 % 7.41 C
193 17-02-2019 16:00:00 12.2 C 71 % 7.1 C
194 17-02-2019 16:05:00 12.3 C 71 % 7.2 C
195 17-02-2019 16:10:00 12.3 C 71 % 7.2 C
196 17-02-2019 16:15:00 12.2 C 71 % 7.1 C
197 17-02-2019 16:20:00 12.1 C 71 % 7.01 C
198 17-02-2019 16:25:00 11.9 C 71 % 6.82 C
199 17-02-2019 16:30:00 11.8 C 71 % 6.72 C
200 17-02-2019 16:35:00 11.7 C 70 % 6.42 C
Sensor: Nr:Datum:Temp:Feuchte:Taupunkt:
Aussen-T/F 201 17-02-2019 16:40:00 11.7 C 72 % 6.83 C
202 17-02-2019 16:45:00 11.7 C 71 % 6.62 C
203 17-02-2019 16:50:00 11.7 C 72 % 6.83 C
204 17-02-2019 16:55:00 11.7 C 72 % 6.83 C
205 17-02-2019 17:00:00 11.6 C 71 % 6.53 C
206 17-02-2019 17:05:00 11.6 C 71 % 6.53 C
207 17-02-2019 17:10:00 11.4 C 71 % 6.34 C
208 17-02-2019 17:15:00 11.3 C 72 % 6.44 C
209 17-02-2019 17:20:00 11.2 C 72 % 6.35 C
210 17-02-2019 17:25:00 11.1 C 72 % 6.25 C
211 17-02-2019 17:30:00 11.1 C 73 % 6.45 C
212 17-02-2019 17:35:00 10.9 C 73 % 6.26 C
213 17-02-2019 17:40:00 10.8 C 73 % 6.16 C
214 17-02-2019 17:45:00 10.6 C 74 % 6.17 C
215 17-02-2019 17:50:00 10.3 C 74 % 5.88 C
216 17-02-2019 17:55:00 10.1 C 74 % 5.68 C
217 17-02-2019 18:00:00 9.8 C 75 % 5.59 C
218 17-02-2019 18:05:00 9.6 C 75 % 5.39 C
219 17-02-2019 18:10:00 9.3 C 75 % 5.1 C
220 17-02-2019 18:15:00 9 C 75 % 4.81 C
221 17-02-2019 18:20:00 8.8 C 76 % 4.81 C
222 17-02-2019 18:25:00 8.6 C 76 % 4.62 C
223 17-02-2019 18:30:00 8.4 C 76 % 4.42 C
224 17-02-2019 18:35:00 8.3 C 77 % 4.51 C
225 17-02-2019 18:40:00 8.1 C 77 % 4.32 C
Sensor: Nr:Datum:Temp:Feuchte:Taupunkt:
Aussen-T/F 226 17-02-2019 18:45:00 7.9 C 78 % 4.31 C
227 17-02-2019 18:50:00 7.7 C 78 % 4.11 C
228 17-02-2019 18:55:00 7.6 C 78 % 4.02 C
229 17-02-2019 19:00:00 7.4 C 78 % 3.82 C
230 17-02-2019 19:05:00 7.3 C 79 % 3.91 C
231 17-02-2019 19:10:00 7.3 C 80 % 4.09 C
232 17-02-2019 19:15:00 7.2 C 80 % 3.99 C
233 17-02-2019 19:20:00 7.1 C 80 % 3.89 C
234 17-02-2019 19:25:00 6.8 C 79 % 3.42 C
235 17-02-2019 19:30:00 6.6 C 81 % 3.58 C
236 17-02-2019 19:35:00 6.3 C 81 % 3.29 C
237 17-02-2019 19:40:00 6.3 C 81 % 3.29 C
238 17-02-2019 19:45:00 6.2 C 81 % 3.19 C
239 17-02-2019 19:50:00 6.2 C 81 % 3.19 C
240 17-02-2019 19:55:00 6.1 C 81 % 3.09 C
241 17-02-2019 20:00:00 6 C 82 % 3.17 C
242 17-02-2019 20:05:00 5.5 C 81 % 2.51 C
243 17-02-2019 20:10:00 5.2 C 83 % 2.56 C
244 17-02-2019 20:15:00 5.1 C 84 % 2.63 C
245 17-02-2019 20:20:00 4.9 C 84 % 2.43 C
246 17-02-2019 20:25:00 4.7 C 84 % 2.23 C
247 17-02-2019 20:30:00 4.4 C 85 % 2.11 C
248 17-02-2019 20:35:00 4.3 C 86 % 2.17 C
249 17-02-2019 20:40:00 4.2 C 87 % 2.23 C
250 17-02-2019 20:45:00 4.2 C 86 % 2.07 C
Sensor: Nr:Datum:Temp:Feuchte:Taupunkt:
Aussen-T/F 251 17-02-2019 20:50:00 4 C 86 % 1.88 C
252 17-02-2019 20:55:00 3.8 C 87 % 1.84 C
253 17-02-2019 21:00:00 3.6 C 87 % 1.64 C
254 17-02-2019 21:05:00 3.6 C 88 % 1.8 C
255 17-02-2019 21:10:00 3.8 C 89 % 2.16 C
256 17-02-2019 21:15:00 4.1 C 88 % 2.3 C
257 17-02-2019 21:20:00 4.2 C 87 % 2.23 C
258 17-02-2019 21:25:00 4.1 C 86 % 1.97 C
259 17-02-2019 21:30:00 3.8 C 86 % 1.68 C
260 17-02-2019 21:35:00 3.6 C 87 % 1.64 C
261 17-02-2019 21:40:00 3.5 C 88 % 1.7 C
262 17-02-2019 21:45:00 3.3 C 87 % 1.35 C
263 17-02-2019 21:50:00 3.2 C 88 % 1.41 C
264 17-02-2019 21:55:00 3 C 88 % 1.21 C
265 17-02-2019 22:00:00 2.8 C 88 % 1.02 C
266 17-02-2019 22:05:00 2.8 C 89 % 1.17 C
267 17-02-2019 22:10:00 2.7 C 89 % 1.07 C
268 17-02-2019 22:15:00 2.5 C 89 % 0.88 C
269 17-02-2019 22:20:00 2.5 C 90 % 1.03 C
270 17-02-2019 22:25:00 2.5 C 90 % 1.03 C
271 17-02-2019 22:30:00 2.4 C 90 % 0.93 C
272 17-02-2019 22:35:00 2.4 C 90 % 0.93 C
273 17-02-2019 22:40:00 2.2 C 89 % 0.58 C
274 17-02-2019 22:45:00 2 C 90 % 0.54 C
275 17-02-2019 22:50:00 1.9 C 91 % 0.59 C
Sensor: Nr:Datum:Temp:Feuchte:Taupunkt:
Aussen-T/F 276 17-02-2019 22:55:00 1.8 C 90 % 0.34 C
277 17-02-2019 23:00:00 1.8 C 91 % 0.49 C
278 17-02-2019 23:05:00 1.7 C 91 % 0.39 C
279 17-02-2019 23:10:00 1.7 C 91 % 0.39 C
280 17-02-2019 23:15:00 1.6 C 91 % 0.29 C
281 17-02-2019 23:20:00 1.7 C 92 % 0.54 C
282 17-02-2019 23:25:00 1.7 C 92 % 0.54 C
283 17-02-2019 23:30:00 1.8 C 92 % 0.64 C
284 17-02-2019 23:35:00 1.7 C 92 % 0.54 C
285 17-02-2019 23:40:00 1.7 C 92 % 0.54 C
286 17-02-2019 23:45:00 1.6 C 92 % 0.44 C
287 17-02-2019 23:50:00 1.6 C 92 % 0.44 C
288 17-02-2019 23:55:00 1.8 C 92 % 0.64 C
289 18-02-2019 00:00:00 1.7 C 92 % 0.54 C
290 18-02-2019 00:05:00 1.7 C 92 % 0.54 C
291 18-02-2019 00:10:00 1.8 C 92 % 0.64 C
292 18-02-2019 00:15:00 1.9 C 92 % 0.74 C
293 18-02-2019 00:20:00 1.7 C 91 % 0.39 C
294 18-02-2019 00:25:00 1.5 C 91 % 0.19 C
295 18-02-2019 00:30:00 1.4 C 91 % 0.1 C
296 18-02-2019 00:35:00 1.2 C 91 % -0.1 C
297 18-02-2019 00:40:00 1.3 C 92 % 0.15 C
298 18-02-2019 00:45:00 1.2 C 92 % 0.05 C
299 18-02-2019 00:50:00 1.1 C 92 % -0.05 C
300 18-02-2019 00:55:00 1.1 C 92 % -0.05 C
Sensor: Nr:Datum:Temp:Feuchte:Taupunkt:
Aussen-T/F 301 18-02-2019 01:00:00 0.9 C 92 % -0.25 C
302 18-02-2019 01:05:00 0.9 C 92 % -0.25 C
303 18-02-2019 01:10:00 0.9 C 93 % -0.1 C
304 18-02-2019 01:15:00 0.7 C 92 % -0.45 C
305 18-02-2019 01:20:00 0.5 C 92 % -0.65 C
306 18-02-2019 01:25:00 0.4 C 92 % -0.74 C
307 18-02-2019 01:30:00 0.4 C 93 % -0.6 C
308 18-02-2019 01:35:00 0.3 C 93 % -0.7 C
309 18-02-2019 01:40:00 0.3 C 93 % -0.7 C
310 18-02-2019 01:45:00 0.3 C 93 % -0.7 C
311 18-02-2019 01:50:00 0.2 C 93 % -0.79 C
312 18-02-2019 01:55:00 0.1 C 93 % -0.89 C
313 18-02-2019 02:00:00 0.1 C 93 % -0.89 C
314 18-02-2019 02:05:00 0 C 93 % -0.99 C
315 18-02-2019 02:10:00 0 C 93 % -0.99 C
316 18-02-2019 02:15:00 0.1 C 94 % -0.75 C
317 18-02-2019 02:20:00 0.1 C 94 % -0.75 C
318 18-02-2019 02:25:00 0.1 C 94 % -0.75 C
319 18-02-2019 02:30:00 0.1 C 94 % -0.75 C
320 18-02-2019 02:35:00 0.2 C 94 % -0.65 C
321 18-02-2019 02:40:00 0.2 C 94 % -0.65 C
322 18-02-2019 02:45:00 0.2 C 94 % -0.65 C
323 18-02-2019 02:50:00 0.1 C 94 % -0.75 C
324 18-02-2019 02:55:00 -0.2 C 94 % -1.05 C
325 18-02-2019 03:00:00 -0.3 C 94 % -1.15 C
Sensor: Nr:Datum:Temp:Feuchte:Taupunkt:
Aussen-T/F 326 18-02-2019 03:05:00 -0.3 C 94 % -1.15 C
327 18-02-2019 03:10:00 -0.3 C 94 % -1.15 C
328 18-02-2019 03:15:00 -0.3 C 94 % -1.15 C
329 18-02-2019 03:20:00 -0.4 C 94 % -1.25 C
330 18-02-2019 03:25:00 -0.4 C 94 % -1.25 C
331 18-02-2019 03:30:00 -0.4 C 94 % -1.25 C
332 18-02-2019 03:35:00 -0.4 C 94 % -1.25 C
333 18-02-2019 03:40:00 -0.4 C 95 % -1.1 C
334 18-02-2019 03:45:00 -0.5 C 94 % -1.34 C
335 18-02-2019 03:50:00 -0.6 C 94 % -1.44 C
336 18-02-2019 03:55:00 -0.7 C 94 % -1.54 C
337 18-02-2019 04:00:00 -0.7 C 94 % -1.54 C
338 18-02-2019 04:05:00 -0.8 C 94 % -1.64 C
339 18-02-2019 04:10:00 -0.8 C 94 % -1.64 C
340 18-02-2019 04:15:00 -0.8 C 94 % -1.64 C
341 18-02-2019 04:20:00 -0.9 C 94 % -1.74 C
342 18-02-2019 04:25:00 -0.8 C 95 % -1.5 C
343 18-02-2019 04:30:00 -0.7 C 95 % -1.4 C
344 18-02-2019 04:35:00 -0.7 C 95 % -1.4 C
345 18-02-2019 04:40:00 -0.7 C 95 % -1.4 C
346 18-02-2019 04:45:00 -0.7 C 95 % -1.4 C
347 18-02-2019 04:50:00 -0.8 C 95 % -1.5 C
348 18-02-2019 04:55:00 -0.9 C 95 % -1.6 C
349 18-02-2019 05:00:00 -1 C 95 % -1.7 C
350 18-02-2019 05:05:00 -1.1 C 95 % -1.8 C
Sensor: Nr:Datum:Temp:Feuchte:Taupunkt:
Aussen-T/F 351 18-02-2019 05:10:00 -1.1 C 95 % -1.8 C
352 18-02-2019 05:15:00 -1.2 C 95 % -1.9 C
353 18-02-2019 05:20:00 -1.2 C 95 % -1.9 C
354 18-02-2019 05:25:00 -1.3 C 95 % -2 C
355 18-02-2019 05:30:00 -1.2 C 95 % -1.9 C
356 18-02-2019 05:35:00 -1.2 C 95 % -1.9 C
357 18-02-2019 05:40:00 -1.2 C 95 % -1.9 C
358 18-02-2019 05:45:00 -1.3 C 95 % -2 C
359 18-02-2019 05:50:00 -1.3 C 95 % -2 C
360 18-02-2019 05:55:00 -1.5 C 95 % -2.19 C
361 18-02-2019 06:00:00 -1.5 C 95 % -2.19 C
362 18-02-2019 06:05:00 -1.4 C 95 % -2.1 C
363 18-02-2019 06:10:00 -1.4 C 95 % -2.1 C
364 18-02-2019 06:15:00 -1.4 C 95 % -2.1 C
365 18-02-2019 06:20:00 -1.6 C 95 % -2.29 C
366 18-02-2019 06:25:00 -1.4 C 95 % -2.1 C
367 18-02-2019 06:30:00 -1.4 C 95 % -2.1 C
368 18-02-2019 06:35:00 -1.4 C 95 % -2.1 C
369 18-02-2019 06:40:00 -1.6 C 95 % -2.29 C
370 18-02-2019 06:45:00 -1.7 C 95 % -2.39 C
371 18-02-2019 06:50:00 -1.6 C 95 % -2.29 C
372 18-02-2019 06:55:00 -1.3 C 95 % -2 C
373 18-02-2019 07:00:00 -1.3 C 96 % -1.85 C
374 18-02-2019 07:05:00 -1.3 C 95 % -2 C
375 18-02-2019 07:10:00 -1.5 C 95 % -2.19 C
Sensor: Nr:Datum:Temp:Feuchte:Taupunkt:
Aussen-T/F 376 18-02-2019 07:15:00 -1.7 C 95 % -2.39 C
377 18-02-2019 07:20:00 -1.7 C 95 % -2.39 C
378 18-02-2019 07:25:00 -1.6 C 95 % -2.29 C
379 18-02-2019 07:30:00 -1.6 C 95 % -2.29 C
380 18-02-2019 07:35:00 -1.7 C 95 % -2.39 C
381 18-02-2019 07:40:00 -1.8 C 95 % -2.49 C
382 18-02-2019 07:45:00 -1.8 C 95 % -2.49 C
383 18-02-2019 07:50:00 -1.9 C 95 % -2.59 C
384 18-02-2019 07:55:00 -1.9 C 95 % -2.59 C
385 18-02-2019 08:00:00 -1.9 C 95 % -2.59 C
386 18-02-2019 08:05:00 -1.9 C 95 % -2.59 C
387 18-02-2019 08:10:00 -1.9 C 95 % -2.59 C
388 18-02-2019 08:15:00 -1.9 C 95 % -2.59 C
389 18-02-2019 08:20:00 -1.9 C 95 % -2.59 C
390 18-02-2019 08:25:00 -1.8 C 95 % -2.49 C
391 18-02-2019 08:30:00 -1.8 C 95 % -2.49 C
392 18-02-2019 08:35:00 -1.7 C 96 % -2.25 C
393 18-02-2019 08:40:00 -1.4 C 96 % -1.95 C
394 18-02-2019 08:45:00 -1.2 C 96 % -1.75 C
395 18-02-2019 08:50:00 -1.1 C 96 % -1.66 C
396 18-02-2019 08:55:00 -1.1 C 96 % -1.66 C
397 18-02-2019 09:00:00 -0.9 C 96 % -1.46 C
398 18-02-2019 09:05:00 -0.6 C 96 % -1.16 C
399 18-02-2019 09:10:00 -0.5 C 96 % -1.06 C
400 18-02-2019 09:15:00 -0.6 C 96 % -1.16 C
Sensor: Nr:Datum:Temp:Feuchte:Taupunkt:
Aussen-T/F 401 18-02-2019 09:20:00 -0.6 C 96 % -1.16 C
402 18-02-2019 09:25:00 -0.5 C 96 % -1.06 C
403 18-02-2019 09:30:00 -0.4 C 96 % -0.96 C
404 18-02-2019 09:35:00 -0.4 C 96 % -0.96 C
405 18-02-2019 09:40:00 -0.5 C 96 % -1.06 C
406 18-02-2019 09:45:00 -0.6 C 96 % -1.16 C
407 18-02-2019 09:50:00 -0.6 C 96 % -1.16 C
408 18-02-2019 09:55:00 -0.6 C 96 % -1.16 C
409 18-02-2019 10:00:00 -0.5 C 96 % -1.06 C
410 18-02-2019 10:05:00 -0.5 C 96 % -1.06 C
411 18-02-2019 10:10:00 -0.4 C 96 % -0.96 C
412 18-02-2019 10:15:00 -0.3 C 96 % -0.86 C
413 18-02-2019 10:20:00 -0.1 C 96 % -0.66 C
414 18-02-2019 10:25:00 0.1 C 96 % -0.46 C
415 18-02-2019 10:30:00 0.2 C 96 % -0.36 C
416 18-02-2019 10:35:00 0.3 C 96 % -0.26 C
417 18-02-2019 10:40:00 0.5 C 96 % -0.06 C
418 18-02-2019 10:45:00 0.7 C 96 % 0.14 C
419 18-02-2019 10:50:00 1 C 97 % 0.58 C
420 18-02-2019 10:55:00 1.3 C 97 % 0.88 C
421 18-02-2019 11:00:00 1.6 C 97 % 1.18 C
422 18-02-2019 11:05:00 1.7 C 97 % 1.28 C
423 18-02-2019 11:10:00 1.9 C 97 % 1.48 C
424 18-02-2019 11:15:00 2.2 C 97 % 1.77 C
425 18-02-2019 11:20:00 2.4 C 97 % 1.97 C
Sensor: Nr:Datum:Temp:Feuchte:Taupunkt:
Aussen-T/F 426 18-02-2019 11:25:00 2.7 C 97 % 2.27 C
427 18-02-2019 11:30:00 3 C 97 % 2.57 C
428 18-02-2019 11:35:00 3.3 C 97 % 2.87 C
429 18-02-2019 11:40:00 3.6 C 97 % 3.17 C
430 18-02-2019 11:45:00 3.7 C 96 % 3.12 C
431 18-02-2019 11:50:00 3.9 C 96 % 3.32 C
432 18-02-2019 11:55:00 4.1 C 95 % 3.37 C
433 18-02-2019 12:00:00 4.2 C 95 % 3.47 C
434 18-02-2019 12:05:00 4.4 C 95 % 3.67 C
435 18-02-2019 12:10:00 4.7 C 95 % 3.97 C
436 18-02-2019 12:15:00 4.9 C 95 % 4.17 C
437 18-02-2019 12:20:00 5.3 C 95 % 4.57 C
438 18-02-2019 12:25:00 5.6 C 95 % 4.86 C
439 18-02-2019 12:30:00 6.1 C 95 % 5.36 C
440 18-02-2019 12:35:00 6.6 C 93 % 5.55 C
441 18-02-2019 12:40:00 7.1 C 92 % 5.89 C
442 18-02-2019 12:45:00 7.5 C 90 % 5.97 C
443 18-02-2019 12:50:00 7.9 C 88 % 6.04 C
444 18-02-2019 12:55:00 8.2 C 87 % 6.17 C
445 18-02-2019 13:00:00 8.3 C 86 % 6.1 C
446 18-02-2019 13:05:00 8.4 C 85 % 6.03 C
447 18-02-2019 13:10:00 8.6 C 84 % 6.05 C
448 18-02-2019 13:15:00 8.8 C 83 % 6.08 C
449 18-02-2019 13:20:00 9 C 83 % 6.27 C
450 18-02-2019 13:25:00 9.3 C 81 % 6.21 C
Sensor: Nr:Datum:Temp:Feuchte:Taupunkt:
Aussen-T/F 451 18-02-2019 13:30:00 9.7 C 81 % 6.6 C
452 18-02-2019 13:35:00 10 C 79 % 6.53 C
453 18-02-2019 13:40:00 10.3 C 78 % 6.64 C
454 18-02-2019 13:45:00 10.6 C 76 % 6.55 C
455 18-02-2019 13:50:00 10.9 C 75 % 6.65 C
456 18-02-2019 13:55:00 11.2 C 74 % 6.74 C
457 18-02-2019 14:00:00 11.5 C 73 % 6.84 C
458 18-02-2019 14:05:00 11.6 C 71 % 6.53 C
459 18-02-2019 14:10:00 11.7 C 71 % 6.62 C
460 18-02-2019 14:15:00 11.7 C 71 % 6.62 C
461 18-02-2019 14:20:00 11.6 C 71 % 6.53 C
462 18-02-2019 14:25:00 11.5 C 71 % 6.43 C
463 18-02-2019 14:30:00 11.3 C 72 % 6.44 C
464 18-02-2019 14:35:00 11.2 C 72 % 6.35 C
465 18-02-2019 14:40:00 11 C 73 % 6.35 C
466 18-02-2019 14:45:00 10.9 C 73 % 6.26 C
467 18-02-2019 14:50:00 11 C 73 % 6.35 C
468 18-02-2019 14:55:00 11.1 C 73 % 6.45 C
469 18-02-2019 15:00:00 11.1 C 73 % 6.45 C
470 18-02-2019 15:05:00 11.2 C 72 % 6.35 C
471 18-02-2019 15:10:00 11.4 C 71 % 6.34 C
472 18-02-2019 15:15:00 11.6 C 71 % 6.53 C
473 18-02-2019 15:20:00 11.7 C 69 % 6.21 C
474 18-02-2019 15:25:00 11.9 C 67 % 5.98 C
475 18-02-2019 15:30:00 12.2 C 65 % 5.82 C
Sensor: Nr:Datum:Temp:Feuchte:Taupunkt:
Aussen-T/F 476 18-02-2019 15:35:00 12.4 C 65 % 6.01 C
477 18-02-2019 15:40:00 12.6 C 66 % 6.42 C
478 18-02-2019 15:45:00 12.7 C 60 % 5.14 C
479 18-02-2019 15:50:00 12.9 C 62 % 5.8 C
480 18-02-2019 15:55:00 13 C 62 % 5.9 C
481 18-02-2019 16:00:00 12.9 C 62 % 5.8 C
482 18-02-2019 16:05:00 12.8 C 62 % 5.71 C
483 18-02-2019 16:10:00 12.6 C 61 % 5.29 C
484 18-02-2019 16:15:00 12.4 C 63 % 5.56 C
485 18-02-2019 16:20:00 12.2 C 62 % 5.14 C
486 18-02-2019 16:25:00 11.9 C 63 % 5.09 C
487 18-02-2019 16:30:00 11.7 C 65 % 5.35 C
488 18-02-2019 16:35:00 11.5 C 66 % 5.38 C
489 18-02-2019 16:40:00 11.3 C 67 % 5.4 C
490 18-02-2019 16:45:00 11.1 C 68 % 5.43 C
491 18-02-2019 16:50:00 10.9 C 68 % 5.23 C
492 18-02-2019 16:55:00 10.8 C 68 % 5.14 C
493 18-02-2019 17:00:00 10.8 C 68 % 5.14 C
494 18-02-2019 17:05:00 10.8 C 68 % 5.14 C
495 18-02-2019 17:10:00 10.8 C 69 % 5.35 C
496 18-02-2019 17:15:00 10.9 C 68 % 5.23 C
497 18-02-2019 17:20:00 10.9 C 68 % 5.23 C
498 18-02-2019 17:25:00 10.8 C 69 % 5.35 C
499 18-02-2019 17:30:00 10.6 C 70 % 5.36 C
500 18-02-2019 17:35:00 10.3 C 70 % 5.08 C
Sensor: Nr:Datum:Temp:Feuchte:Taupunkt:
Aussen-T/F 501 18-02-2019 17:40:00 10.1 C 70 % 4.89 C
502 18-02-2019 17:45:00 9.9 C 71 % 4.9 C
503 18-02-2019 17:50:00 9.7 C 72 % 4.9 C
504 18-02-2019 17:55:00 9.5 C 72 % 4.71 C
505 18-02-2019 18:00:00 9.3 C 73 % 4.72 C
506 18-02-2019 18:05:00 9.1 C 73 % 4.52 C
507 18-02-2019 18:10:00 8.9 C 73 % 4.33 C
508 18-02-2019 18:15:00 8.7 C 74 % 4.33 C
509 18-02-2019 18:20:00 8.5 C 74 % 4.14 C
510 18-02-2019 18:25:00 8.3 C 75 % 4.14 C
511 18-02-2019 18:30:00 8.3 C 76 % 4.33 C
512 18-02-2019 18:35:00 8.2 C 76 % 4.23 C
513 18-02-2019 18:40:00 8.1 C 76 % 4.13 C
514 18-02-2019 18:45:00 8 C 76 % 4.04 C
515 18-02-2019 18:50:00 7.9 C 76 % 3.94 C
516 18-02-2019 18:55:00 7.7 C 75 % 3.56 C
517 18-02-2019 19:00:00 7.5 C 76 % 3.55 C
518 18-02-2019 19:05:00 7.3 C 78 % 3.73 C
519 18-02-2019 19:10:00 7.2 C 79 % 3.81 C
520 18-02-2019 19:15:00 7.1 C 79 % 3.71 C
521 18-02-2019 19:20:00 6.9 C 80 % 3.7 C
522 18-02-2019 19:25:00 6.8 C 81 % 3.77 C
523 18-02-2019 19:30:00 6.8 C 81 % 3.77 C
524 18-02-2019 19:35:00 6.8 C 82 % 3.95 C
525 18-02-2019 19:40:00 6.9 C 81 % 3.87 C
Sensor: Nr:Datum:Temp:Feuchte:Taupunkt:
Aussen-T/F 526 18-02-2019 19:45:00 6.9 C 81 % 3.87 C
527 18-02-2019 19:50:00 6.9 C 81 % 3.87 C
528 18-02-2019 19:55:00 6.9 C 81 % 3.87 C
529 18-02-2019 20:00:00 6.8 C 80 % 3.6 C
530 18-02-2019 20:05:00 6.7 C 79 % 3.32 C
531 18-02-2019 20:10:00 6.6 C 79 % 3.23 C
532 18-02-2019 20:15:00 6.4 C 78 % 2.85 C
533 18-02-2019 20:20:00 6.1 C 79 % 2.74 C
534 18-02-2019 20:25:00 5.8 C 81 % 2.8 C
535 18-02-2019 20:30:00 5.5 C 81 % 2.51 C
536 18-02-2019 20:35:00 5.2 C 82 % 2.39 C
537 18-02-2019 20:40:00 4.9 C 82 % 2.09 C
538 18-02-2019 20:45:00 4.7 C 84 % 2.23 C
539 18-02-2019 20:50:00 4.6 C 85 % 2.3 C
540 18-02-2019 20:55:00 4.6 C 86 % 2.47 C
541 18-02-2019 21:00:00 4.6 C 86 % 2.47 C
542 18-02-2019 21:05:00 4.6 C 86 % 2.47 C
543 18-02-2019 21:10:00 4.4 C 86 % 2.27 C
544 18-02-2019 21:15:00 4.3 C 86 % 2.17 C
545 18-02-2019 21:20:00 4.3 C 86 % 2.17 C
546 18-02-2019 21:25:00 4.2 C 86 % 2.07 C
547 18-02-2019 21:30:00 4.2 C 86 % 2.07 C
548 18-02-2019 21:35:00 4 C 86 % 1.88 C
549 18-02-2019 21:40:00 3.9 C 86 % 1.78 C
550 18-02-2019 21:45:00 3.8 C 86 % 1.68 C
Sensor: Nr:Datum:Temp:Feuchte:Taupunkt:
Aussen-T/F 551 18-02-2019 21:50:00 3.6 C 86 % 1.48 C
552 18-02-2019 21:55:00 3.3 C 86 % 1.19 C
553 18-02-2019 22:00:00 3.2 C 87 % 1.25 C
554 18-02-2019 22:05:00 3 C 87 % 1.05 C
555 18-02-2019 22:10:00 3 C 88 % 1.21 C
556 18-02-2019 22:15:00 2.9 C 89 % 1.27 C
557 18-02-2019 22:20:00 2.9 C 89 % 1.27 C
558 18-02-2019 22:25:00 2.8 C 89 % 1.17 C
559 18-02-2019 22:30:00 2.7 C 89 % 1.07 C
560 18-02-2019 22:35:00 2.7 C 89 % 1.07 C
561 18-02-2019 22:40:00 2.7 C 89 % 1.07 C
562 18-02-2019 22:45:00 2.5 C 89 % 0.88 C
563 18-02-2019 22:50:00 2.4 C 90 % 0.93 C
564 18-02-2019 22:55:00 2.4 C 90 % 0.93 C
565 18-02-2019 23:00:00 2.3 C 90 % 0.83 C
566 18-02-2019 23:05:00 2.3 C 90 % 0.83 C
567 18-02-2019 23:10:00 2.2 C 91 % 0.89 C
568 18-02-2019 23:15:00 2.3 C 91 % 0.99 C
569 18-02-2019 23:20:00 2.3 C 91 % 0.99 C
570 18-02-2019 23:25:00 2.3 C 91 % 0.99 C
571 18-02-2019 23:30:00 2.2 C 91 % 0.89 C
572 18-02-2019 23:35:00 2.1 C 91 % 0.79 C
573 18-02-2019 23:40:00 2 C 91 % 0.69 C
574 18-02-2019 23:45:00 1.9 C 91 % 0.59 C
575 18-02-2019 23:50:00 1.9 C 91 % 0.59 C
Sensor: Nr:Datum:Temp:Feuchte:Taupunkt:
Aussen-T/F 576 18-02-2019 23:55:00 1.8 C 91 % 0.49 C
577 19-02-2019 00:00:00 1.8 C 91 % 0.49 C
578 19-02-2019 00:05:00 1.7 C 91 % 0.39 C
579 19-02-2019 00:10:00 1.7 C 92 % 0.54 C
580 19-02-2019 00:15:00 1.7 C 92 % 0.54 C
581 19-02-2019 00:20:00 1.7 C 92 % 0.54 C
582 19-02-2019 00:25:00 1.8 C 92 % 0.64 C
583 19-02-2019 00:30:00 1.7 C 92 % 0.54 C
584 19-02-2019 00:35:00 1.7 C 92 % 0.54 C
585 19-02-2019 00:40:00 1.7 C 92 % 0.54 C
586 19-02-2019 00:45:00 1.7 C 93 % 0.69 C
587 19-02-2019 00:50:00 1.7 C 93 % 0.69 C
588 19-02-2019 00:55:00 1.8 C 93 % 0.79 C
589 19-02-2019 01:00:00 1.8 C 93 % 0.79 C
590 19-02-2019 01:05:00 1.8 C 93 % 0.79 C
591 19-02-2019 01:10:00 1.8 C 93 % 0.79 C
592 19-02-2019 01:15:00 1.9 C 93 % 0.89 C
593 19-02-2019 01:20:00 1.9 C 93 % 0.89 C
594 19-02-2019 01:25:00 1.9 C 93 % 0.89 C
595 19-02-2019 01:30:00 1.8 C 92 % 0.64 C
596 19-02-2019 01:35:00 1.8 C 92 % 0.64 C
597 19-02-2019 01:40:00 1.8 C 93 % 0.79 C
598 19-02-2019 01:45:00 1.9 C 93 % 0.89 C
599 19-02-2019 01:50:00 1.8 C 93 % 0.79 C
600 19-02-2019 01:55:00 1.8 C 93 % 0.79 C
Sensor: Nr:Datum:Temp:Feuchte:Taupunkt:
Aussen-T/F 601 19-02-2019 02:00:00 1.8 C 93 % 0.79 C
602 19-02-2019 02:05:00 1.8 C 93 % 0.79 C
603 19-02-2019 02:10:00 1.8 C 93 % 0.79 C
604 19-02-2019 02:15:00 1.9 C 94 % 1.04 C
605 19-02-2019 02:20:00 2 C 93 % 0.99 C
606 19-02-2019 02:25:00 1.9 C 93 % 0.89 C
607 19-02-2019 02:30:00 1.8 C 93 % 0.79 C
608 19-02-2019 02:35:00 1.8 C 93 % 0.79 C
609 19-02-2019 02:40:00 1.8 C 93 % 0.79 C
610 19-02-2019 02:45:00 1.8 C 93 % 0.79 C
611 19-02-2019 02:50:00 1.9 C 94 % 1.04 C
612 19-02-2019 02:55:00 1.9 C 94 % 1.04 C
613 19-02-2019 03:00:00 2 C 94 % 1.14 C
614 19-02-2019 03:05:00 2 C 94 % 1.14 C
615 19-02-2019 03:10:00 2 C 94 % 1.14 C
616 19-02-2019 03:15:00 2.1 C 94 % 1.24 C
617 19-02-2019 03:20:00 2.1 C 94 % 1.24 C
618 19-02-2019 03:25:00 2.1 C 94 % 1.24 C
619 19-02-2019 03:30:00 2.3 C 95 % 1.58 C
620 19-02-2019 03:35:00 2.4 C 95 % 1.68 C
621 19-02-2019 03:40:00 2.6 C 95 % 1.88 C
622 19-02-2019 03:45:00 2.7 C 95 % 1.98 C
623 19-02-2019 03:50:00 2.8 C 95 % 2.08 C
624 19-02-2019 03:55:00 3 C 95 % 2.28 C
625 19-02-2019 04:00:00 3.2 C 95 % 2.48 C
Sensor: Nr:Datum:Temp:Feuchte:Taupunkt:
Aussen-T/F 626 19-02-2019 04:05:00 3.3 C 95 % 2.58 C
627 19-02-2019 04:10:00 3.4 C 95 % 2.68 C
628 19-02-2019 04:15:00 3.6 C 95 % 2.88 C
629 19-02-2019 04:20:00 3.7 C 95 % 2.98 C
630 19-02-2019 04:25:00 3.8 C 95 % 3.07 C
631 19-02-2019 04:30:00 3.8 C 94 % 2.93 C
632 19-02-2019 04:35:00 3.8 C 94 % 2.93 C
633 19-02-2019 04:40:00 3.8 C 93 % 2.77 C
634 19-02-2019 04:45:00 3.9 C 93 % 2.87 C
635 19-02-2019 04:50:00 4 C 93 % 2.97 C
636 19-02-2019 04:55:00 4.1 C 92 % 2.92 C
637 19-02-2019 05:00:00 4.1 C 92 % 2.92 C
638 19-02-2019 05:05:00 3.9 C 91 % 2.57 C
639 19-02-2019 05:10:00 3.9 C 90 % 2.41 C
640 19-02-2019 05:15:00 3.9 C 91 % 2.57 C
641 19-02-2019 05:20:00 3.9 C 91 % 2.57 C
642 19-02-2019 05:25:00 3.9 C 91 % 2.57 C
643 19-02-2019 05:30:00 3.9 C 91 % 2.57 C
644 19-02-2019 05:35:00 4 C 91 % 2.67 C
645 19-02-2019 05:40:00 4.1 C 91 % 2.77 C
646 19-02-2019 05:45:00 4.2 C 91 % 2.87 C
647 19-02-2019 05:50:00 4.3 C 90 % 2.81 C
648 19-02-2019 05:55:00 4.4 C 90 % 2.91 C
649 19-02-2019 06:00:00 4.6 C 90 % 3.1 C
650 19-02-2019 06:05:00 4.7 C 89 % 3.05 C
Sensor: Nr:Datum:Temp:Feuchte:Taupunkt:
Aussen-T/F 651 19-02-2019 06:10:00 4.8 C 88 % 2.99 C
652 19-02-2019 06:15:00 4.9 C 88 % 3.08 C
653 19-02-2019 06:20:00 5.1 C 87 % 3.12 C
654 19-02-2019 06:25:00 5.1 C 87 % 3.12 C
655 19-02-2019 06:30:00 5.1 C 87 % 3.12 C
656 19-02-2019 06:35:00 5.1 C 87 % 3.12 C
657 19-02-2019 06:40:00 5.1 C 87 % 3.12 C
658 19-02-2019 06:45:00 5.1 C 87 % 3.12 C
659 19-02-2019 06:50:00 5.1 C 88 % 3.28 C
660 19-02-2019 06:55:00 5.2 C 88 % 3.38 C
661 19-02-2019 07:00:00 5.2 C 88 % 3.38 C
662 19-02-2019 07:05:00 5.2 C 89 % 3.54 C
663 19-02-2019 07:10:00 5.2 C 89 % 3.54 C
664 19-02-2019 07:15:00 5.2 C 89 % 3.54 C
665 19-02-2019 07:20:00 5.2 C 89 % 3.54 C
666 19-02-2019 07:25:00 5.2 C 90 % 3.7 C
667 19-02-2019 07:30:00 5.2 C 90 % 3.7 C
668 19-02-2019 07:35:00 5.2 C 91 % 3.85 C
669 19-02-2019 07:40:00 5.2 C 91 % 3.85 C
670 19-02-2019 07:45:00 5.2 C 92 % 4.01 C
671 19-02-2019 07:50:00 5.2 C 92 % 4.01 C
672 19-02-2019 07:55:00 5.2 C 92 % 4.01 C
673 19-02-2019 08:00:00 5.2 C 92 % 4.01 C
674 19-02-2019 08:05:00 5.2 C 93 % 4.16 C
675 19-02-2019 08:10:00 5.1 C 92 % 3.91 C
Sensor: Nr:Datum:Temp:Feuchte:Taupunkt:
Aussen-T/F 676 19-02-2019 08:15:00 4.9 C 92 % 3.71 C
677 19-02-2019 08:20:00 4.9 C 93 % 3.87 C
678 19-02-2019 08:25:00 4.9 C 93 % 3.87 C
679 19-02-2019 08:30:00 4.8 C 93 % 3.77 C
680 19-02-2019 08:35:00 4.8 C 93 % 3.77 C
681 19-02-2019 08:40:00 4.8 C 94 % 3.92 C
682 19-02-2019 08:45:00 4.8 C 93 % 3.77 C
683 19-02-2019 08:50:00 4.7 C 93 % 3.67 C
684 19-02-2019 08:55:00 4.6 C 94 % 3.72 C
685 19-02-2019 09:00:00 4.7 C 94 % 3.82 C
686 19-02-2019 09:05:00 4.8 C 94 % 3.92 C
687 19-02-2019 09:10:00 4.9 C 95 % 4.17 C
688 19-02-2019 09:15:00 5 C 95 % 4.27 C
689 19-02-2019 09:20:00 5.1 C 95 % 4.37 C
690 19-02-2019 09:25:00 5.1 C 95 % 4.37 C
691 19-02-2019 09:30:00 5.2 C 95 % 4.47 C
692 19-02-2019 09:35:00 5.3 C 95 % 4.57 C
693 19-02-2019 09:40:00 5.5 C 95 % 4.76 C
694 19-02-2019 09:45:00 5.7 C 95 % 4.96 C
695 19-02-2019 09:50:00 5.8 C 95 % 5.06 C
696 19-02-2019 09:55:00 5.9 C 95 % 5.16 C
697 19-02-2019 10:00:00 5.9 C 95 % 5.16 C
698 19-02-2019 10:05:00 6.1 C 95 % 5.36 C
699 19-02-2019 10:10:00 6.2 C 95 % 5.46 C
700 19-02-2019 10:15:00 6.2 C 95 % 5.46 C
Sensor: Nr:Datum:Temp:Feuchte:Taupunkt:
Aussen-T/F 701 19-02-2019 10:20:00 6.2 C 94 % 5.31 C
702 19-02-2019 10:25:00 6.3 C 94 % 5.41 C
703 19-02-2019 10:30:00 6.4 C 94 % 5.51 C
704 19-02-2019 10:35:00 6.4 C 94 % 5.51 C
705 19-02-2019 10:40:00 6.5 C 94 % 5.61 C
706 19-02-2019 10:45:00 6.6 C 94 % 5.71 C
707 19-02-2019 10:50:00 6.6 C 94 % 5.71 C
708 19-02-2019 10:55:00 6.7 C 93 % 5.65 C
709 19-02-2019 11:00:00 6.7 C 93 % 5.65 C
710 19-02-2019 11:05:00 6.8 C 93 % 5.75 C
711 19-02-2019 11:10:00 6.9 C 93 % 5.85 C
712 19-02-2019 11:15:00 7.1 C 93 % 6.05 C
713 19-02-2019 11:20:00 7.1 C 93 % 6.05 C
714 19-02-2019 11:25:00 7.2 C 93 % 6.15 C
715 19-02-2019 11:30:00 7.3 C 93 % 6.25 C
716 19-02-2019 11:35:00 7.4 C 93 % 6.34 C
717 19-02-2019 11:40:00 7.6 C 92 % 6.39 C
718 19-02-2019 11:45:00 7.6 C 92 % 6.39 C
719 19-02-2019 11:50:00 7.8 C 92 % 6.58 C
720 19-02-2019 11:55:00 7.9 C 92 % 6.68 C
721 19-02-2019 12:00:00 8.1 C 92 % 6.88 C
722 19-02-2019 12:05:00 8.2 C 91 % 6.82 C
723 19-02-2019 12:10:00 8.4 C 91 % 7.02 C
724 19-02-2019 12:15:00 8.5 C 89 % 6.79 C
725 19-02-2019 12:20:00 8.6 C 88 % 6.73 C
Sensor: Nr:Datum:Temp:Feuchte:Taupunkt:
Aussen-T/F 726 19-02-2019 12:25:00 8.7 C 88 % 6.83 C
727 19-02-2019 12:30:00 8.8 C 88 % 6.93 C
728 19-02-2019 12:35:00 8.8 C 87 % 6.76 C
729 19-02-2019 12:40:00 8.9 C 86 % 6.69 C
730 19-02-2019 12:45:00 9.1 C 85 % 6.72 C
731 19-02-2019 12:50:00 9.2 C 85 % 6.81 C
732 19-02-2019 12:55:00 9.3 C 85 % 6.91 C
733 19-02-2019 13:00:00 9.2 C 84 % 6.64 C
734 19-02-2019 13:05:00 9.2 C 83 % 6.47 C
735 19-02-2019 13:10:00 9.3 C 83 % 6.57 C
736 19-02-2019 13:15:00 9.4 C 82 % 6.49 C
737 19-02-2019 13:20:00 9.7 C 83 % 6.96 C
738 19-02-2019 13:25:00 9.8 C 81 % 6.7 C
739 19-02-2019 13:30:00 10.1 C 82 % 7.17 C
740 19-02-2019 13:35:00 10.3 C 79 % 6.82 C
741 19-02-2019 13:40:00 10.4 C 78 % 6.74 C
742 19-02-2019 13:45:00 10.5 C 76 % 6.45 C
743 19-02-2019 13:50:00 10.6 C 75 % 6.36 C
744 19-02-2019 13:55:00 10.8 C 75 % 6.55 C
745 19-02-2019 14:00:00 10.8 C 75 % 6.55 C
746 19-02-2019 14:05:00 10.7 C 75 % 6.46 C
747 19-02-2019 14:10:00 10.7 C 74 % 6.26 C
748 19-02-2019 14:15:00 10.8 C 74 % 6.36 C
749 19-02-2019 14:20:00 10.7 C 74 % 6.26 C
750 19-02-2019 14:25:00 10.7 C 74 % 6.26 C
Sensor: Nr:Datum:Temp:Feuchte:Taupunkt:
Aussen-T/F 751 19-02-2019 14:30:00 10.6 C 74 % 6.17 C
752 19-02-2019 14:35:00 10.6 C 74 % 6.17 C
753 19-02-2019 14:40:00 10.5 C 75 % 6.26 C
754 19-02-2019 14:45:00 10.5 C 76 % 6.45 C
755 19-02-2019 14:50:00 10.6 C 75 % 6.36 C
756 19-02-2019 14:55:00 10.6 C 74 % 6.17 C
757 19-02-2019 15:00:00 10.7 C 74 % 6.26 C
758 19-02-2019 15:05:00 10.7 C 75 % 6.46 C
759 19-02-2019 15:10:00 10.8 C 74 % 6.36 C
760 19-02-2019 15:15:00 10.9 C 74 % 6.45 C
761 19-02-2019 15:20:00 10.9 C 73 % 6.26 C
762 19-02-2019 15:25:00 10.9 C 72 % 6.06 C
763 19-02-2019 15:30:00 10.9 C 73 % 6.26 C
764 19-02-2019 15:35:00 11 C 72 % 6.15 C
765 19-02-2019 15:40:00 11 C 71 % 5.95 C
766 19-02-2019 15:45:00 11.1 C 71 % 6.05 C
767 19-02-2019 15:50:00 11.2 C 71 % 6.14 C
768 19-02-2019 15:55:00 11.2 C 70 % 5.94 C
769 19-02-2019 16:00:00 11.3 C 72 % 6.44 C
770 19-02-2019 16:05:00 11.2 C 73 % 6.55 C
771 19-02-2019 16:10:00 11.1 C 72 % 6.25 C
772 19-02-2019 16:15:00 10.9 C 71 % 5.86 C
773 19-02-2019 16:20:00 10.9 C 72 % 6.06 C
774 19-02-2019 16:25:00 10.9 C 72 % 6.06 C
775 19-02-2019 16:30:00 10.8 C 71 % 5.76 C
Sensor: Nr:Datum:Temp:Feuchte:Taupunkt:
Aussen-T/F 776 19-02-2019 16:35:00 10.8 C 73 % 6.16 C
777 19-02-2019 16:40:00 10.8 C 73 % 6.16 C
778 19-02-2019 16:45:00 10.7 C 72 % 5.87 C
779 19-02-2019 16:50:00 10.7 C 72 % 5.87 C
780 19-02-2019 16:55:00 10.7 C 73 % 6.07 C
781 19-02-2019 17:00:00 10.7 C 72 % 5.87 C
782 19-02-2019 17:05:00 10.4 C 72 % 5.58 C
783 19-02-2019 17:10:00 10.2 C 73 % 5.58 C
784 19-02-2019 17:15:00 10.1 C 73 % 5.49 C
785 19-02-2019 17:20:00 10.1 C 74 % 5.68 C
786 19-02-2019 17:25:00 9.9 C 74 % 5.49 C
787 19-02-2019 17:30:00 9.8 C 74 % 5.39 C
788 19-02-2019 17:35:00 9.6 C 75 % 5.39 C
789 19-02-2019 17:40:00 9.3 C 75 % 5.1 C
790 19-02-2019 17:45:00 9.1 C 76 % 5.1 C
791 19-02-2019 17:50:00 8.7 C 78 % 5.08 C
792 19-02-2019 17:55:00 8.4 C 79 % 4.98 C
793 19-02-2019 18:00:00 8.1 C 80 % 4.86 C
794 19-02-2019 18:05:00 7.8 C 81 % 4.75 C
795 19-02-2019 18:10:00 7.6 C 82 % 4.73 C
796 19-02-2019 18:15:00 7.6 C 82 % 4.73 C
797 19-02-2019 18:20:00 7.5 C 82 % 4.63 C
798 19-02-2019 18:25:00 7.4 C 83 % 4.71 C
799 19-02-2019 18:30:00 7.2 C 83 % 4.51 C
800 19-02-2019 18:35:00 7.1 C 84 % 4.58 C
Sensor: Nr:Datum:Temp:Feuchte:Taupunkt:
Aussen-T/F 801 19-02-2019 18:40:00 6.9 C 84 % 4.39 C
802 19-02-2019 18:45:00 6.8 C 85 % 4.46 C
803 19-02-2019 18:50:00 6.7 C 85 % 4.36 C
804 19-02-2019 18:55:00 6.7 C 86 % 4.53 C
805 19-02-2019 19:00:00 6.6 C 86 % 4.43 C
806 19-02-2019 19:05:00 6.6 C 86 % 4.43 C
807 19-02-2019 19:10:00 6.5 C 86 % 4.33 C
808 19-02-2019 19:15:00 6.4 C 87 % 4.4 C
809 19-02-2019 19:20:00 6.4 C 87 % 4.4 C
810 19-02-2019 19:25:00 6.3 C 87 % 4.3 C
811 19-02-2019 19:30:00 6.2 C 87 % 4.2 C
812 19-02-2019 19:35:00 6.1 C 87 % 4.1 C
813 19-02-2019 19:40:00 6.1 C 88 % 4.27 C
814 19-02-2019 19:45:00 5.9 C 88 % 4.07 C
815 19-02-2019 19:50:00 5.9 C 88 % 4.07 C
816 19-02-2019 19:55:00 5.7 C 88 % 3.87 C
817 19-02-2019 20:00:00 5.7 C 89 % 4.03 C
818 19-02-2019 20:05:00 5.7 C 89 % 4.03 C
819 19-02-2019 20:10:00 5.7 C 89 % 4.03 C
820 19-02-2019 20:15:00 5.6 C 89 % 3.93 C
821 19-02-2019 20:20:00 5.6 C 89 % 3.93 C
822 19-02-2019 20:25:00 5.4 C 89 % 3.74 C
823 19-02-2019 20:30:00 5.4 C 89 % 3.74 C
824 19-02-2019 20:35:00 5.4 C 90 % 3.89 C
825 19-02-2019 20:40:00 5.3 C 89 % 3.64 C
Sensor: Nr:Datum:Temp:Feuchte:Taupunkt:
Aussen-T/F 826 19-02-2019 20:45:00 5.2 C 89 % 3.54 C
827 19-02-2019 20:50:00 5.1 C 90 % 3.6 C
828 19-02-2019 20:55:00 5.2 C 90 % 3.7 C
829 19-02-2019 21:00:00 5.3 C 90 % 3.8 C
830 19-02-2019 21:05:00 5.3 C 90 % 3.8 C
831 19-02-2019 21:10:00 5.3 C 90 % 3.8 C
832 19-02-2019 21:15:00 5.2 C 89 % 3.54 C
833 19-02-2019 21:20:00 5.1 C 89 % 3.44 C
834 19-02-2019 21:25:00 5 C 90 % 3.5 C
835 19-02-2019 21:30:00 4.9 C 90 % 3.4 C
836 19-02-2019 21:35:00 4.8 C 90 % 3.3 C
837 19-02-2019 21:40:00 4.6 C 89 % 2.95 C
838 19-02-2019 21:45:00 4.4 C 89 % 2.75 C
839 19-02-2019 21:50:00 4.2 C 90 % 2.71 C
840 19-02-2019 21:55:00 4.1 C 90 % 2.61 C
841 19-02-2019 22:00:00 3.9 C 90 % 2.41 C
842 19-02-2019 22:05:00 3.8 C 90 % 2.31 C
843 19-02-2019 22:10:00 3.6 C 90 % 2.12 C
844 19-02-2019 22:15:00 3.5 C 91 % 2.17 C
845 19-02-2019 22:20:00 3.4 C 91 % 2.07 C
846 19-02-2019 22:25:00 3.3 C 91 % 1.98 C
847 19-02-2019 22:30:00 3.3 C 92 % 2.13 C
848 19-02-2019 22:35:00 3.3 C 92 % 2.13 C
849 19-02-2019 22:40:00 3.4 C 93 % 2.38 C
850 19-02-2019 22:45:00 3.4 C 92 % 2.23 C
Sensor: Nr:Datum:Temp:Feuchte:Taupunkt:
Aussen-T/F 851 19-02-2019 22:50:00 3.4 C 92 % 2.23 C
852 19-02-2019 22:55:00 3.3 C 92 % 2.13 C
853 19-02-2019 23:00:00 3.3 C 92 % 2.13 C
854 19-02-2019 23:05:00 3.2 C 92 % 2.03 C
855 19-02-2019 23:10:00 3.2 C 92 % 2.03 C
856 19-02-2019 23:15:00 3.1 C 93 % 2.08 C
857 19-02-2019 23:20:00 3.1 C 93 % 2.08 C
858 19-02-2019 23:25:00 3.1 C 93 % 2.08 C
859 19-02-2019 23:30:00 3.1 C 93 % 2.08 C
860 19-02-2019 23:35:00 3 C 93 % 1.98 C
861 19-02-2019 23:40:00 2.9 C 93 % 1.88 C
862 19-02-2019 23:45:00 2.9 C 93 % 1.88 C
863 19-02-2019 23:50:00 2.9 C 93 % 1.88 C
864 19-02-2019 23:55:00 2.8 C 93 % 1.78 C
865 20-02-2019 00:00:00 2.8 C 93 % 1.78 C
866 20-02-2019 00:05:00 2.8 C 93 % 1.78 C
867 20-02-2019 00:10:00 2.8 C 93 % 1.78 C
868 20-02-2019 00:15:00 2.8 C 93 % 1.78 C
869 20-02-2019 00:20:00 2.8 C 94 % 1.93 C
870 20-02-2019 00:25:00 2.8 C 94 % 1.93 C
871 20-02-2019 00:30:00 2.7 C 93 % 1.68 C
872 20-02-2019 00:35:00 2.5 C 93 % 1.49 C
873 20-02-2019 00:40:00 2.3 C 93 % 1.29 C
874 20-02-2019 00:45:00 2.3 C 93 % 1.29 C
875 20-02-2019 00:50:00 2.3 C 94 % 1.44 C
Sensor: Nr:Datum:Temp:Feuchte:Taupunkt:
Aussen-T/F 876 20-02-2019 00:55:00 2.3 C 93 % 1.29 C
877 20-02-2019 01:00:00 2.2 C 93 % 1.19 C
878 20-02-2019 01:05:00 2.2 C 93 % 1.19 C
879 20-02-2019 01:10:00 2.1 C 93 % 1.09 C
880 20-02-2019 01:15:00 2 C 93 % 0.99 C
881 20-02-2019 01:20:00 1.9 C 93 % 0.89 C
882 20-02-2019 01:25:00 1.8 C 94 % 0.94 C
883 20-02-2019 01:30:00 1.7 C 93 % 0.69 C
884 20-02-2019 01:35:00 1.6 C 93 % 0.59 C
885 20-02-2019 01:40:00 1.5 C 93 % 0.49 C
886 20-02-2019 01:45:00 1.5 C 94 % 0.64 C
887 20-02-2019 01:50:00 1.5 C 94 % 0.64 C
888 20-02-2019 01:55:00 1.4 C 94 % 0.54 C
889 20-02-2019 02:00:00 1.4 C 94 % 0.54 C
890 20-02-2019 02:05:00 1.3 C 94 % 0.44 C
891 20-02-2019 02:10:00 1.3 C 94 % 0.44 C
892 20-02-2019 02:15:00 1.2 C 94 % 0.34 C
893 20-02-2019 02:20:00 1.1 C 94 % 0.24 C
894 20-02-2019 02:25:00 1 C 94 % 0.15 C
895 20-02-2019 02:30:00 1.1 C 94 % 0.24 C
896 20-02-2019 02:35:00 1.1 C 94 % 0.24 C
897 20-02-2019 02:40:00 1.2 C 95 % 0.49 C
898 20-02-2019 02:45:00 1.3 C 95 % 0.59 C
899 20-02-2019 02:50:00 1.2 C 95 % 0.49 C
900 20-02-2019 02:55:00 1.1 C 94 % 0.24 C
Sensor: Nr:Datum:Temp:Feuchte:Taupunkt:
Aussen-T/F 901 20-02-2019 03:00:00 1.1 C 94 % 0.24 C
902 20-02-2019 03:05:00 1 C 95 % 0.29 C
903 20-02-2019 03:10:00 1 C 95 % 0.29 C
904 20-02-2019 03:15:00 1 C 95 % 0.29 C
905 20-02-2019 03:20:00 1.1 C 95 % 0.39 C
906 20-02-2019 03:25:00 1.2 C 95 % 0.49 C
907 20-02-2019 03:30:00 1.1 C 95 % 0.39 C
908 20-02-2019 03:35:00 1.1 C 95 % 0.39 C
909 20-02-2019 03:40:00 1.1 C 95 % 0.39 C
910 20-02-2019 03:45:00 1.1 C 95 % 0.39 C
911 20-02-2019 03:50:00 1.2 C 95 % 0.49 C
912 20-02-2019 03:55:00 1.2 C 95 % 0.49 C
913 20-02-2019 04:00:00 1.2 C 95 % 0.49 C
914 20-02-2019 04:05:00 1.1 C 95 % 0.39 C
915 20-02-2019 04:10:00 1.1 C 95 % 0.39 C
916 20-02-2019 04:15:00 1 C 95 % 0.29 C
917 20-02-2019 04:20:00 0.8 C 95 % 0.09 C
918 20-02-2019 04:25:00 0.7 C 95 % -0.01 C
919 20-02-2019 04:30:00 0.7 C 95 % -0.01 C
920 20-02-2019 04:35:00 0.7 C 95 % -0.01 C
921 20-02-2019 04:40:00 0.8 C 95 % 0.09 C
922 20-02-2019 04:45:00 0.8 C 95 % 0.09 C
923 20-02-2019 04:50:00 0.8 C 95 % 0.09 C
924 20-02-2019 04:55:00 0.8 C 95 % 0.09 C
925 20-02-2019 05:00:00 1 C 96 % 0.44 C
Sensor: Nr:Datum:Temp:Feuchte:Taupunkt:
Aussen-T/F 926 20-02-2019 05:05:00 1.1 C 96 % 0.54 C
927 20-02-2019 05:10:00 1.1 C 96 % 0.54 C
928 20-02-2019 05:15:00 1.1 C 95 % 0.39 C
929 20-02-2019 05:20:00 1.1 C 95 % 0.39 C
930 20-02-2019 05:25:00 1 C 95 % 0.29 C
931 20-02-2019 05:30:00 0.9 C 95 % 0.19 C
932 20-02-2019 05:35:00 0.9 C 95 % 0.19 C
933 20-02-2019 05:40:00 0.9 C 95 % 0.19 C
934 20-02-2019 05:45:00 0.9 C 96 % 0.34 C
935 20-02-2019 05:50:00 1 C 96 % 0.44 C
936 20-02-2019 05:55:00 1 C 96 % 0.44 C
937 20-02-2019 06:00:00 0.9 C 96 % 0.34 C
938 20-02-2019 06:05:00 1 C 96 % 0.44 C
939 20-02-2019 06:10:00 1.1 C 96 % 0.54 C
940 20-02-2019 06:15:00 1 C 96 % 0.44 C
941 20-02-2019 06:20:00 0.9 C 96 % 0.34 C
942 20-02-2019 06:25:00 0.9 C 96 % 0.34 C
943 20-02-2019 06:30:00 0.9 C 96 % 0.34 C
944 20-02-2019 06:35:00 0.9 C 95 % 0.19 C
945 20-02-2019 06:40:00 0.8 C 95 % 0.09 C
946 20-02-2019 06:45:00 0.7 C 95 % -0.01 C
947 20-02-2019 06:50:00 0.6 C 95 % -0.11 C
948 20-02-2019 06:55:00 0.7 C 96 % 0.14 C
949 20-02-2019 07:00:00 0.8 C 96 % 0.24 C
950 20-02-2019 07:05:00 0.8 C 96 % 0.24 C
Sensor: Nr:Datum:Temp:Feuchte:Taupunkt:
Aussen-T/F 951 20-02-2019 07:10:00 0.8 C 96 % 0.24 C
952 20-02-2019 07:15:00 0.9 C 96 % 0.34 C
953 20-02-2019 07:20:00 0.8 C 96 % 0.24 C
954 20-02-2019 07:25:00 0.7 C 96 % 0.14 C
955 20-02-2019 07:30:00 0.8 C 96 % 0.24 C
956 20-02-2019 07:35:00 0.7 C 96 % 0.14 C
957 20-02-2019 07:40:00 0.7 C 96 % 0.14 C
958 20-02-2019 07:45:00 0.6 C 96 % 0.04 C
959 20-02-2019 07:50:00 0.6 C 96 % 0.04 C
960 20-02-2019 07:55:00 0.6 C 96 % 0.04 C
961 20-02-2019 08:00:00 0.6 C 96 % 0.04 C
962 20-02-2019 08:05:00 0.7 C 96 % 0.14 C
963 20-02-2019 08:10:00 0.8 C 96 % 0.24 C
964 20-02-2019 08:15:00 0.9 C 96 % 0.34 C
965 20-02-2019 08:20:00 1.1 C 96 % 0.54 C
966 20-02-2019 08:25:00 1.2 C 96 % 0.63 C
967 20-02-2019 08:30:00 1.3 C 96 % 0.73 C
968 20-02-2019 08:35:00 1.4 C 96 % 0.83 C
969 20-02-2019 08:40:00 1.6 C 97 % 1.18 C
970 20-02-2019 08:45:00 1.8 C 97 % 1.38 C
971 20-02-2019 08:50:00 2 C 97 % 1.58 C
972 20-02-2019 08:55:00 2.3 C 97 % 1.87 C
973 20-02-2019 09:00:00 2.5 C 97 % 2.07 C
974 20-02-2019 09:05:00 2.7 C 97 % 2.27 C
975 20-02-2019 09:10:00 2.8 C 97 % 2.37 C
Sensor: Nr:Datum:Temp:Feuchte:Taupunkt:
Aussen-T/F 976 20-02-2019 09:15:00 2.8 C 97 % 2.37 C
977 20-02-2019 09:20:00 2.9 C 97 % 2.47 C
978 20-02-2019 09:25:00 3 C 97 % 2.57 C
979 20-02-2019 09:30:00 3.1 C 97 % 2.67 C
980 20-02-2019 09:35:00 3.3 C 97 % 2.87 C
981 20-02-2019 09:40:00 3.3 C 96 % 2.72 C
982 20-02-2019 09:45:00 3.4 C 96 % 2.82 C
983 20-02-2019 09:50:00 3.6 C 96 % 3.02 C
984 20-02-2019 09:55:00 3.7 C 96 % 3.12 C
985 20-02-2019 10:00:00 3.8 C 96 % 3.22 C
986 20-02-2019 10:05:00 3.8 C 96 % 3.22 C
987 20-02-2019 10:10:00 3.9 C 96 % 3.32 C
988 20-02-2019 10:15:00 4.1 C 96 % 3.52 C
989 20-02-2019 10:20:00 4.2 C 96 % 3.62 C
990 20-02-2019 10:25:00 4.3 C 96 % 3.72 C
991 20-02-2019 10:30:00 4.4 C 96 % 3.82 C
992 20-02-2019 10:35:00 4.6 C 96 % 4.02 C
993 20-02-2019 10:40:00 4.7 C 95 % 3.97 C
994 20-02-2019 10:45:00 4.9 C 95 % 4.17 C
995 20-02-2019 10:50:00 5 C 95 % 4.27 C
996 20-02-2019 10:55:00 5.2 C 95 % 4.47 C
997 20-02-2019 11:00:00 5.4 C 95 % 4.66 C
998 20-02-2019 11:05:00 5.7 C 94 % 4.81 C
999 20-02-2019 11:10:00 5.8 C 94 % 4.91 C
1000 20-02-2019 11:15:00 5.9 C 93 % 4.86 C
Sensor: Nr:Datum:Temp:Feuchte:Taupunkt:
Aussen-T/F 1001 20-02-2019 11:20:00 6 C 92 % 4.8 C
1002 20-02-2019 11:25:00 6.1 C 92 % 4.9 C
1003 20-02-2019 11:30:00 6.2 C 92 % 5 C
1004 20-02-2019 11:35:00 6.3 C 91 % 4.94 C
1005 20-02-2019 11:40:00 6.3 C 91 % 4.94 C
1006 20-02-2019 11:45:00 6.3 C 91 % 4.94 C
1007 20-02-2019 11:50:00 6.4 C 91 % 5.04 C
1008 20-02-2019 11:55:00 6.5 C 90 % 4.98 C
1009 20-02-2019 12:00:00 6.6 C 90 % 5.08 C
1010 20-02-2019 12:05:00 6.7 C 90 % 5.18 C
1011 20-02-2019 12:10:00 6.7 C 90 % 5.18 C
1012 20-02-2019 12:15:00 6.9 C 90 % 5.38 C
1013 20-02-2019 12:20:00 7.1 C 90 % 5.57 C
1014 20-02-2019 12:25:00 7.3 C 89 % 5.61 C
1015 20-02-2019 12:30:00 7.6 C 89 % 5.91 C
1016 20-02-2019 12:35:00 7.7 C 87 % 5.68 C
1017 20-02-2019 12:40:00 8 C 87 % 5.97 C
1018 20-02-2019 12:45:00 8.2 C 86 % 6 C
1019 20-02-2019 12:50:00 8.4 C 85 % 6.03 C
1020 20-02-2019 12:55:00 8.7 C 83 % 5.98 C
1021 20-02-2019 13:00:00 8.9 C 82 % 6 C
1022 20-02-2019 13:05:00 9.1 C 82 % 6.19 C
1023 20-02-2019 13:10:00 9.3 C 81 % 6.21 C
1024 20-02-2019 13:15:00 9.5 C 80 % 6.23 C
1025 20-02-2019 13:20:00 9.8 C 79 % 6.34 C
Sensor: Nr:Datum:Temp:Feuchte:Taupunkt:
Aussen-T/F 1026 20-02-2019 13:25:00 9.9 C 78 % 6.25 C
1027 20-02-2019 13:30:00 10.1 C 77 % 6.26 C
1028 20-02-2019 13:35:00 10.2 C 77 % 6.35 C
1029 20-02-2019 13:40:00 10.2 C 76 % 6.16 C
1030 20-02-2019 13:45:00 10.3 C 76 % 6.26 C
1031 20-02-2019 13:50:00 10.4 C 76 % 6.36 C
1032 20-02-2019 13:55:00 10.7 C 75 % 6.46 C
1033 20-02-2019 14:00:00 10.9 C 75 % 6.65 C
1034 20-02-2019 14:05:00 10.9 C 74 % 6.45 C
1035 20-02-2019 14:10:00 10.9 C 74 % 6.45 C
1036 20-02-2019 14:15:00 10.8 C 74 % 6.36 C
1037 20-02-2019 14:20:00 10.8 C 75 % 6.55 C
1038 20-02-2019 14:25:00 10.8 C 75 % 6.55 C
1039 20-02-2019 14:30:00 10.8 C 75 % 6.55 C
1040 20-02-2019 14:35:00 10.8 C 74 % 6.36 C
1041 20-02-2019 14:40:00 10.9 C 74 % 6.45 C
1042 20-02-2019 14:45:00 10.9 C 74 % 6.45 C
1043 20-02-2019 14:50:00 10.9 C 74 % 6.45 C
1044 20-02-2019 14:55:00 10.9 C 74 % 6.45 C
1045 20-02-2019 15:00:00 11 C 74 % 6.55 C
1046 20-02-2019 15:05:00 11 C 74 % 6.55 C
1047 20-02-2019 15:10:00 11.1 C 73 % 6.45 C
1048 20-02-2019 15:15:00 11.1 C 73 % 6.45 C
1049 20-02-2019 15:20:00 11.1 C 73 % 6.45 C
1050 20-02-2019 15:25:00 11.1 C 73 % 6.45 C
Sensor: Nr:Datum:Temp:Feuchte:Taupunkt:
Aussen-T/F 1051 20-02-2019 15:30:00 11 C 73 % 6.35 C
1052 20-02-2019 15:35:00 11.1 C 73 % 6.45 C
1053 20-02-2019 15:40:00 11.1 C 73 % 6.45 C
1054 20-02-2019 15:45:00 11.1 C 73 % 6.45 C
1055 20-02-2019 15:50:00 11.1 C 72 % 6.25 C
1056 20-02-2019 15:55:00 11.2 C 72 % 6.35 C
1057 20-02-2019 16:00:00 11.3 C 71 % 6.24 C
1058 20-02-2019 16:05:00 11.3 C 73 % 6.64 C
1059 20-02-2019 16:10:00 11.3 C 72 % 6.44 C
1060 20-02-2019 16:15:00 11.3 C 72 % 6.44 C
1061 20-02-2019 16:20:00 11.3 C 71 % 6.24 C
1062 20-02-2019 16:25:00 11.3 C 72 % 6.44 C
1063 20-02-2019 16:30:00 11.2 C 71 % 6.14 C
1064 20-02-2019 16:35:00 11.3 C 71 % 6.24 C
1065 20-02-2019 16:40:00 11.3 C 71 % 6.24 C
1066 20-02-2019 16:45:00 11.5 C 71 % 6.43 C
1067 20-02-2019 16:50:00 11.7 C 71 % 6.62 C
1068 20-02-2019 16:55:00 11.7 C 69 % 6.21 C
1069 20-02-2019 17:00:00 11.7 C 69 % 6.21 C
1070 20-02-2019 17:05:00 11.5 C 71 % 6.43 C
1071 20-02-2019 17:10:00 11.3 C 71 % 6.24 C
1072 20-02-2019 17:15:00 11.1 C 72 % 6.25 C
1073 20-02-2019 17:20:00 10.9 C 73 % 6.26 C
1074 20-02-2019 17:25:00 10.7 C 74 % 6.26 C
1075 20-02-2019 17:30:00 10.4 C 74 % 5.97 C
Sensor: Nr:Datum:Temp:Feuchte:Taupunkt:
Aussen-T/F 1076 20-02-2019 17:35:00 10.1 C 75 % 5.88 C
1077 20-02-2019 17:40:00 9.7 C 76 % 5.68 C
1078 20-02-2019 17:45:00 9.3 C 77 % 5.48 C
1079 20-02-2019 17:50:00 8.9 C 78 % 5.28 C
1080 20-02-2019 17:55:00 8.6 C 79 % 5.17 C
1081 20-02-2019 18:00:00 8.3 C 80 % 5.06 C
1082 20-02-2019 18:05:00 8 C 81 % 4.94 C
1083 20-02-2019 18:10:00 7.7 C 82 % 4.83 C
1084 20-02-2019 18:15:00 7.6 C 83 % 4.9 C
1085 20-02-2019 18:20:00 7.4 C 84 % 4.88 C
1086 20-02-2019 18:25:00 7.2 C 84 % 4.68 C
1087 20-02-2019 18:30:00 7.1 C 85 % 4.75 C
1088 20-02-2019 18:35:00 7 C 85 % 4.66 C
1089 20-02-2019 18:40:00 6.9 C 85 % 4.56 C
1090 20-02-2019 18:45:00 6.8 C 86 % 4.63 C
1091 20-02-2019 18:50:00 6.8 C 86 % 4.63 C
1092 20-02-2019 18:55:00 6.7 C 86 % 4.53 C
1093 20-02-2019 19:00:00 6.6 C 86 % 4.43 C
1094 20-02-2019 19:05:00 6.5 C 86 % 4.33 C
1095 20-02-2019 19:10:00 6.4 C 87 % 4.4 C
1096 20-02-2019 19:15:00 6.3 C 87 % 4.3 C
1097 20-02-2019 19:20:00 6.3 C 87 % 4.3 C
1098 20-02-2019 19:25:00 6.2 C 88 % 4.36 C
1099 20-02-2019 19:30:00 6.1 C 88 % 4.27 C
1100 20-02-2019 19:35:00 6.1 C 88 % 4.27 C
Sensor: Nr:Datum:Temp:Feuchte:Taupunkt:
Aussen-T/F 1101 20-02-2019 19:40:00 5.9 C 88 % 4.07 C
1102 20-02-2019 19:45:00 5.9 C 89 % 4.23 C
1103 20-02-2019 19:50:00 5.9 C 89 % 4.23 C
1104 20-02-2019 19:55:00 5.8 C 89 % 4.13 C
1105 20-02-2019 20:00:00 5.6 C 88 % 3.77 C
1106 20-02-2019 20:05:00 5.4 C 88 % 3.58 C
1107 20-02-2019 20:10:00 5.2 C 89 % 3.54 C
1108 20-02-2019 20:15:00 5.2 C 89 % 3.54 C
1109 20-02-2019 20:20:00 5.1 C 90 % 3.6 C
1110 20-02-2019 20:25:00 4.9 C 90 % 3.4 C
1111 20-02-2019 20:30:00 4.8 C 90 % 3.3 C
1112 20-02-2019 20:35:00 4.6 C 90 % 3.1 C
1113 20-02-2019 20:40:00 4.4 C 90 % 2.91 C
1114 20-02-2019 20:45:00 4.4 C 91 % 3.06 C
1115 20-02-2019 20:50:00 4.4 C 91 % 3.06 C
1116 20-02-2019 20:55:00 4.4 C 91 % 3.06 C
1117 20-02-2019 21:00:00 4.4 C 92 % 3.22 C
1118 20-02-2019 21:05:00 4.3 C 91 % 2.96 C
1119 20-02-2019 21:10:00 4.2 C 91 % 2.87 C
1120 20-02-2019 21:15:00 4.1 C 91 % 2.77 C
1121 20-02-2019 21:20:00 3.8 C 90 % 2.31 C
1122 20-02-2019 21:25:00 3.7 C 91 % 2.37 C
1123 20-02-2019 21:30:00 3.6 C 92 % 2.42 C
1124 20-02-2019 21:35:00 3.6 C 92 % 2.42 C
1125 20-02-2019 21:40:00 3.6 C 92 % 2.42 C
Sensor: Nr:Datum:Temp:Feuchte:Taupunkt:
Aussen-T/F 1126 20-02-2019 21:45:00 3.4 C 92 % 2.23 C
1127 20-02-2019 21:50:00 3.4 C 92 % 2.23 C
1128 20-02-2019 21:55:00 3.2 C 92 % 2.03 C
1129 20-02-2019 22:00:00 3.2 C 92 % 2.03 C
1130 20-02-2019 22:05:00 3.1 C 92 % 1.93 C
1131 20-02-2019 22:10:00 2.9 C 92 % 1.73 C
1132 20-02-2019 22:15:00 2.8 C 92 % 1.63 C
1133 20-02-2019 22:20:00 2.7 C 92 % 1.53 C
1134 20-02-2019 22:25:00 2.6 C 93 % 1.59 C
1135 20-02-2019 22:30:00 2.5 C 93 % 1.49 C
1136 20-02-2019 22:35:00 2.6 C 93 % 1.59 C
1137 20-02-2019 22:40:00 2.6 C 94 % 1.73 C
1138 20-02-2019 22:45:00 2.6 C 94 % 1.73 C
1139 20-02-2019 22:50:00 2.5 C 94 % 1.63 C
1140 20-02-2019 22:55:00 2.3 C 93 % 1.29 C
1141 20-02-2019 23:00:00 2.2 C 94 % 1.34 C
1142 20-02-2019 23:05:00 2.3 C 94 % 1.44 C
1143 20-02-2019 23:10:00 2.4 C 94 % 1.54 C
1144 20-02-2019 23:15:00 2.3 C 94 % 1.44 C
1145 20-02-2019 23:20:00 2.2 C 94 % 1.34 C
1146 20-02-2019 23:25:00 1.9 C 94 % 1.04 C
1147 20-02-2019 23:30:00 1.8 C 94 % 0.94 C
1148 20-02-2019 23:35:00 1.9 C 94 % 1.04 C
1149 20-02-2019 23:40:00 1.9 C 94 % 1.04 C
1150 20-02-2019 23:45:00 2 C 95 % 1.29 C
Sensor: Nr:Datum:Temp:Feuchte:Taupunkt:
Aussen-T/F 1151 20-02-2019 23:50:00 2.2 C 95 % 1.48 C
1152 20-02-2019 23:55:00 2.2 C 95 % 1.48 C
1153 21-02-2019 00:00:00 2.1 C 94 % 1.24 C
1154 21-02-2019 00:05:00 1.9 C 95 % 1.19 C
1155 21-02-2019 00:10:00 1.8 C 94 % 0.94 C
1156 21-02-2019 00:15:00 1.7 C 94 % 0.84 C
1157 21-02-2019 00:20:00 1.6 C 94 % 0.74 C
1158 21-02-2019 00:25:00 1.5 C 94 % 0.64 C
1159 21-02-2019 00:30:00 1.4 C 94 % 0.54 C
1160 21-02-2019 00:35:00 1.4 C 95 % 0.69 C
1161 21-02-2019 00:40:00 1.4 C 95 % 0.69 C
1162 21-02-2019 00:45:00 1.3 C 95 % 0.59 C
1163 21-02-2019 00:50:00 1.3 C 95 % 0.59 C
1164 21-02-2019 00:55:00 1.5 C 95 % 0.79 C
1165 21-02-2019 01:00:00 1.6 C 95 % 0.89 C
1166 21-02-2019 01:05:00 1.6 C 95 % 0.89 C
1167 21-02-2019 01:10:00 1.7 C 95 % 0.99 C
1168 21-02-2019 01:15:00 1.7 C 95 % 0.99 C
1169 21-02-2019 01:20:00 1.8 C 95 % 1.09 C
1170 21-02-2019 01:25:00 1.7 C 95 % 0.99 C
1171 21-02-2019 01:30:00 1.6 C 95 % 0.89 C
1172 21-02-2019 01:35:00 1.3 C 95 % 0.59 C
1173 21-02-2019 01:40:00 1.3 C 95 % 0.59 C
1174 21-02-2019 01:45:00 1.3 C 95 % 0.59 C
1175 21-02-2019 01:50:00 1.6 C 96 % 1.03 C
Sensor: Nr:Datum:Temp:Feuchte:Taupunkt:
Aussen-T/F 1176 21-02-2019 01:55:00 1.8 C 96 % 1.23 C
1177 21-02-2019 02:00:00 1.8 C 96 % 1.23 C
1178 21-02-2019 02:05:00 1.8 C 96 % 1.23 C
1179 21-02-2019 02:10:00 1.7 C 95 % 0.99 C
1180 21-02-2019 02:15:00 1.4 C 95 % 0.69 C
1181 21-02-2019 02:20:00 1.2 C 95 % 0.49 C
1182 21-02-2019 02:25:00 0.9 C 95 % 0.19 C
1183 21-02-2019 02:30:00 0.8 C 95 % 0.09 C
1184 21-02-2019 02:35:00 0.7 C 95 % -0.01 C
1185 21-02-2019 02:40:00 0.7 C 95 % -0.01 C
1186 21-02-2019 02:45:00 0.6 C 95 % -0.11 C
1187 21-02-2019 02:50:00 0.6 C 95 % -0.11 C
1188 21-02-2019 02:55:00 0.6 C 95 % -0.11 C
1189 21-02-2019 03:00:00 0.7 C 96 % 0.14 C
1190 21-02-2019 03:05:00 0.7 C 96 % 0.14 C
1191 21-02-2019 03:10:00 0.7 C 95 % -0.01 C
1192 21-02-2019 03:15:00 0.7 C 96 % 0.14 C
1193 21-02-2019 03:20:00 0.7 C 96 % 0.14 C
1194 21-02-2019 03:25:00 0.6 C 96 % 0.04 C
1195 21-02-2019 03:30:00 0.7 C 96 % 0.14 C
1196 21-02-2019 03:35:00 0.7 C 96 % 0.14 C
1197 21-02-2019 03:40:00 0.8 C 96 % 0.24 C
1198 21-02-2019 03:45:00 0.8 C 96 % 0.24 C
1199 21-02-2019 03:50:00 0.8 C 96 % 0.24 C
1200 21-02-2019 03:55:00 1 C 96 % 0.44 C
Sensor: Nr:Datum:Temp:Feuchte:Taupunkt:
Aussen-T/F 1201 21-02-2019 04:00:00 1.1 C 96 % 0.54 C
1202 21-02-2019 04:05:00 1.2 C 96 % 0.63 C
1203 21-02-2019 04:10:00 1.1 C 96 % 0.54 C
1204 21-02-2019 04:15:00 0.9 C 96 % 0.34 C
1205 21-02-2019 04:20:00 0.8 C 96 % 0.24 C
1206 21-02-2019 04:25:00 0.8 C 96 % 0.24 C
1207 21-02-2019 04:30:00 0.8 C 96 % 0.24 C
1208 21-02-2019 04:35:00 0.9 C 96 % 0.34 C
1209 21-02-2019 04:40:00 0.9 C 96 % 0.34 C
1210 21-02-2019 04:45:00 0.9 C 96 % 0.34 C
1211 21-02-2019 04:50:00 0.8 C 96 % 0.24 C
1212 21-02-2019 04:55:00 0.8 C 96 % 0.24 C
1213 21-02-2019 05:00:00 0.7 C 96 % 0.14 C
1214 21-02-2019 05:05:00 0.6 C 96 % 0.04 C
1215 21-02-2019 05:10:00 0.6 C 96 % 0.04 C
1216 21-02-2019 05:15:00 0.5 C 96 % -0.06 C
1217 21-02-2019 05:20:00 0.5 C 96 % -0.06 C
1218 21-02-2019 05:25:00 0.7 C 96 % 0.14 C
1219 21-02-2019 05:30:00 0.9 C 96 % 0.34 C
1220 21-02-2019 05:35:00 1.2 C 96 % 0.63 C
1221 21-02-2019 05:40:00 1.6 C 97 % 1.18 C
1222 21-02-2019 05:45:00 1.8 C 97 % 1.38 C
1223 21-02-2019 05:50:00 1.8 C 97 % 1.38 C
1224 21-02-2019 05:55:00 1.9 C 97 % 1.48 C
1225 21-02-2019 06:00:00 1.9 C 97 % 1.48 C
Sensor: Nr:Datum:Temp:Feuchte:Taupunkt:
Aussen-T/F 1226 21-02-2019 06:05:00 1.9 C 97 % 1.48 C
1227 21-02-2019 06:10:00 1.8 C 97 % 1.38 C
1228 21-02-2019 06:15:00 1.7 C 96 % 1.13 C
1229 21-02-2019 06:20:00 1.4 C 96 % 0.83 C
1230 21-02-2019 06:25:00 1.3 C 96 % 0.73 C
1231 21-02-2019 06:30:00 1.2 C 96 % 0.63 C
1232 21-02-2019 06:35:00 1 C 96 % 0.44 C
1233 21-02-2019 06:40:00 0.8 C 96 % 0.24 C
1234 21-02-2019 06:45:00 0.7 C 96 % 0.14 C
1235 21-02-2019 06:50:00 0.6 C 96 % 0.04 C
1236 21-02-2019 06:55:00 0.7 C 96 % 0.14 C
1237 21-02-2019 07:00:00 0.7 C 96 % 0.14 C
1238 21-02-2019 07:05:00 0.8 C 96 % 0.24 C
1239 21-02-2019 07:10:00 1.1 C 96 % 0.54 C
1240 21-02-2019 07:15:00 1.2 C 96 % 0.63 C
1241 21-02-2019 07:20:00 1.3 C 97 % 0.88 C
1242 21-02-2019 07:25:00 1.3 C 97 % 0.88 C
1243 21-02-2019 07:30:00 1.3 C 97 % 0.88 C
1244 21-02-2019 07:35:00 1.3 C 97 % 0.88 C
1245 21-02-2019 07:40:00 1.3 C 97 % 0.88 C
1246 21-02-2019 07:45:00 1.4 C 96 % 0.83 C
1247 21-02-2019 07:50:00 1.4 C 96 % 0.83 C
1248 21-02-2019 07:55:00 1.5 C 96 % 0.93 C
1249 21-02-2019 08:00:00 1.6 C 97 % 1.18 C
1250 21-02-2019 08:05:00 1.7 C 97 % 1.28 C
Sensor: Nr:Datum:Temp:Feuchte:Taupunkt:
Aussen-T/F 1251 21-02-2019 08:10:00 1.8 C 97 % 1.38 C
1252 21-02-2019 08:15:00 1.9 C 97 % 1.48 C
1253 21-02-2019 08:20:00 2.1 C 97 % 1.67 C
1254 21-02-2019 08:25:00 2.1 C 97 % 1.67 C
1255 21-02-2019 08:30:00 2.2 C 97 % 1.77 C
1256 21-02-2019 08:35:00 2.3 C 97 % 1.87 C
1257 21-02-2019 08:40:00 2.3 C 97 % 1.87 C
1258 21-02-2019 08:45:00 2.4 C 97 % 1.97 C
1259 21-02-2019 08:50:00 2.4 C 97 % 1.97 C
1260 21-02-2019 08:55:00 2.5 C 97 % 2.07 C
1261 21-02-2019 09:00:00 2.6 C 97 % 2.17 C
1262 21-02-2019 09:05:00 2.6 C 97 % 2.17 C
1263 21-02-2019 09:10:00 2.7 C 97 % 2.27 C
1264 21-02-2019 09:15:00 2.7 C 97 % 2.27 C
1265 21-02-2019 09:20:00 2.8 C 97 % 2.37 C
1266 21-02-2019 09:25:00 2.8 C 97 % 2.37 C
1267 21-02-2019 09:30:00 2.8 C 97 % 2.37 C
1268 21-02-2019 09:35:00 2.9 C 97 % 2.47 C
1269 21-02-2019 09:40:00 2.9 C 97 % 2.47 C
1270 21-02-2019 09:45:00 3 C 97 % 2.57 C
1271 21-02-2019 09:50:00 3.1 C 97 % 2.67 C
1272 21-02-2019 09:55:00 3.2 C 97 % 2.77 C
1273 21-02-2019 10:00:00 3.2 C 97 % 2.77 C
1274 21-02-2019 10:05:00 3.3 C 97 % 2.87 C
1275 21-02-2019 10:10:00 3.4 C 97 % 2.97 C
Sensor: Nr:Datum:Temp:Feuchte:Taupunkt:
Aussen-T/F 1276 21-02-2019 10:15:00 3.7 C 97 % 3.27 C
1277 21-02-2019 10:20:00 3.8 C 97 % 3.37 C
1278 21-02-2019 10:25:00 3.9 C 97 % 3.47 C
1279 21-02-2019 10:30:00 4 C 97 % 3.57 C
1280 21-02-2019 10:35:00 4.2 C 97 % 3.77 C
1281 21-02-2019 10:40:00 4.2 C 97 % 3.77 C
1282 21-02-2019 10:45:00 4.3 C 97 % 3.87 C
1283 21-02-2019 10:50:00 4.4 C 97 % 3.97 C
1284 21-02-2019 10:55:00 4.6 C 97 % 4.17 C
1285 21-02-2019 11:00:00 4.8 C 97 % 4.37 C
1286 21-02-2019 11:05:00 4.9 C 96 % 4.32 C
1287 21-02-2019 11:10:00 5.1 C 96 % 4.52 C
1288 21-02-2019 11:15:00 5.3 C 96 % 4.72 C
1289 21-02-2019 11:20:00 5.4 C 96 % 4.81 C
1290 21-02-2019 11:25:00 5.6 C 95 % 4.86 C
1291 21-02-2019 11:30:00 5.7 C 95 % 4.96 C
1292 21-02-2019 11:35:00 5.9 C 95 % 5.16 C
1293 21-02-2019 11:40:00 6.2 C 94 % 5.31 C
1294 21-02-2019 11:45:00 6.4 C 93 % 5.35 C
1295 21-02-2019 11:50:00 6.6 C 93 % 5.55 C
1296 21-02-2019 11:55:00 6.8 C 92 % 5.59 C
1297 21-02-2019 12:00:00 7 C 92 % 5.79 C
1298 21-02-2019 12:05:00 7.2 C 92 % 5.99 C
1299 21-02-2019 12:10:00 7.4 C 91 % 6.03 C
1300 21-02-2019 12:15:00 7.7 C 91 % 6.33 C
Sensor: Nr:Datum:Temp:Feuchte:Taupunkt:
Aussen-T/F 1301 21-02-2019 12:20:00 7.8 C 90 % 6.27 C
1302 21-02-2019 12:25:00 8.1 C 90 % 6.56 C
1303 21-02-2019 12:30:00 8.3 C 90 % 6.76 C
1304 21-02-2019 12:35:00 8.5 C 90 % 6.96 C
1305 21-02-2019 12:40:00 8.8 C 90 % 7.25 C
1306 21-02-2019 12:45:00 9.3 C 89 % 7.58 C
1307 21-02-2019 12:50:00 9.8 C 87 % 7.74 C
1308 21-02-2019 12:55:00 10.1 C 86 % 7.87 C
1309 21-02-2019 13:00:00 10.3 C 85 % 7.89 C
1310 21-02-2019 13:05:00 10.5 C 84 % 7.91 C
1311 21-02-2019 13:10:00 10.7 C 84 % 8.11 C
1312 21-02-2019 13:15:00 10.8 C 83 % 8.03 C
1313 21-02-2019 13:20:00 11 C 84 % 8.4 C
1314 21-02-2019 13:25:00 11.3 C 83 % 8.52 C
1315 21-02-2019 13:30:00 11.5 C 81 % 8.36 C
1316 21-02-2019 13:35:00 11.7 C 81 % 8.55 C
1317 21-02-2019 13:40:00 11.8 C 80 % 8.47 C
1318 21-02-2019 13:45:00 11.9 C 79 % 8.38 C
1319 21-02-2019 13:50:00 12 C 79 % 8.48 C
1320 21-02-2019 13:55:00 12.1 C 79 % 8.57 C
1321 21-02-2019 14:00:00 12.1 C 79 % 8.57 C
1322 21-02-2019 14:05:00 12.2 C 78 % 8.48 C
1323 21-02-2019 14:10:00 12.3 C 79 % 8.77 C
1324 21-02-2019 14:15:00 12.6 C 78 % 8.87 C
1325 21-02-2019 14:20:00 12.7 C 77 % 8.78 C
Sensor: Nr:Datum:Temp:Feuchte:Taupunkt:
Aussen-T/F 1326 21-02-2019 14:25:00 12.7 C 76 % 8.58 C
1327 21-02-2019 14:30:00 12.8 C 76 % 8.68 C
1328 21-02-2019 14:35:00 12.8 C 76 % 8.68 C
1329 21-02-2019 14:40:00 12.7 C 76 % 8.58 C
1330 21-02-2019 14:45:00 12.7 C 76 % 8.58 C
1331 21-02-2019 14:50:00 12.7 C 76 % 8.58 C
1332 21-02-2019 14:55:00 12.9 C 77 % 8.97 C
1333 21-02-2019 15:00:00 13.2 C 75 % 8.87 C
1334 21-02-2019 15:05:00 13.2 C 75 % 8.87 C
1335 21-02-2019 15:10:00 13.3 C 74 % 8.77 C
1336 21-02-2019 15:15:00 13.4 C 74 % 8.87 C
1337 21-02-2019 15:20:00 13.4 C 74 % 8.87 C
1338 21-02-2019 15:25:00 13.3 C 74 % 8.77 C
1339 21-02-2019 15:30:00 13.3 C 75 % 8.97 C
1340 21-02-2019 15:35:00 13.3 C 74 % 8.77 C
1341 21-02-2019 15:40:00 13.3 C 75 % 8.97 C
1342 21-02-2019 15:45:00 13.4 C 74 % 8.87 C
1343 21-02-2019 15:50:00 13.4 C 73 % 8.66 C
1344 21-02-2019 15:55:00 13.4 C 74 % 8.87 C
1345 21-02-2019 16:00:00 13.3 C 73 % 8.57 C
1346 21-02-2019 16:05:00 13.3 C 73 % 8.57 C
1347 21-02-2019 16:10:00 13.3 C 74 % 8.77 C
1348 21-02-2019 16:15:00 13.3 C 75 % 8.97 C
1349 21-02-2019 16:20:00 13.4 C 75 % 9.06 C
1350 21-02-2019 16:25:00 13.4 C 74 % 8.87 C
Sensor: Nr:Datum:Temp:Feuchte:Taupunkt:
Aussen-T/F 1351 21-02-2019 16:30:00 13.4 C 74 % 8.87 C
1352 21-02-2019 16:35:00 13.4 C 74 % 8.87 C
1353 21-02-2019 16:40:00 13.4 C 74 % 8.87 C
1354 21-02-2019 16:45:00 13.3 C 75 % 8.97 C
1355 21-02-2019 16:50:00 13.3 C 74 % 8.77 C
1356 21-02-2019 16:55:00 13.3 C 74 % 8.77 C
1357 21-02-2019 17:00:00 13.2 C 73 % 8.47 C
1358 21-02-2019 17:05:00 13.1 C 73 % 8.38 C
1359 21-02-2019 17:10:00 13.1 C 73 % 8.38 C
1360 21-02-2019 17:15:00 13.1 C 75 % 8.77 C
1361 21-02-2019 17:20:00 13.1 C 80 % 9.73 C
1362 21-02-2019 17:25:00 12.8 C 81 % 9.62 C
1363 21-02-2019 17:30:00 12.6 C 82 % 9.61 C
1364 21-02-2019 17:35:00 12.3 C 83 % 9.5 C
1365 21-02-2019 17:40:00 12 C 84 % 9.38 C
1366 21-02-2019 17:45:00 11.7 C 84 % 9.09 C
1367 21-02-2019 17:50:00 11.5 C 85 % 9.07 C
1368 21-02-2019 17:55:00 11.3 C 85 % 8.87 C
1369 21-02-2019 18:00:00 11.1 C 86 % 8.85 C
1370 21-02-2019 18:05:00 10.9 C 86 % 8.65 C
1371 21-02-2019 18:10:00 10.8 C 86 % 8.56 C
1372 21-02-2019 18:15:00 10.7 C 86 % 8.46 C
1373 21-02-2019 18:20:00 10.6 C 86 % 8.36 C
1374 21-02-2019 18:25:00 10.6 C 86 % 8.36 C
1375 21-02-2019 18:30:00 10.5 C 86 % 8.26 C
Sensor: Nr:Datum:Temp:Feuchte:Taupunkt:
Aussen-T/F 1376 21-02-2019 18:35:00 10.4 C 86 % 8.16 C
1377 21-02-2019 18:40:00 10.4 C 86 % 8.16 C
1378 21-02-2019 18:45:00 10.3 C 86 % 8.06 C
1379 21-02-2019 18:50:00 10.3 C 87 % 8.23 C
1380 21-02-2019 18:55:00 10.2 C 87 % 8.14 C
1381 21-02-2019 19:00:00 10.2 C 87 % 8.14 C
1382 21-02-2019 19:05:00 10.1 C 86 % 7.87 C
1383 21-02-2019 19:10:00 10 C 86 % 7.77 C
1384 21-02-2019 19:15:00 9.8 C 86 % 7.57 C
1385 21-02-2019 19:20:00 9.8 C 87 % 7.74 C
1386 21-02-2019 19:25:00 9.7 C 88 % 7.81 C
1387 21-02-2019 19:30:00 9.7 C 88 % 7.81 C
1388 21-02-2019 19:35:00 9.7 C 88 % 7.81 C
1389 21-02-2019 19:40:00 9.6 C 88 % 7.71 C
1390 21-02-2019 19:45:00 9.6 C 87 % 7.55 C
1391 21-02-2019 19:50:00 9.4 C 88 % 7.52 C
1392 21-02-2019 19:55:00 9.3 C 88 % 7.42 C
1393 21-02-2019 20:00:00 9.2 C 88 % 7.32 C
1394 21-02-2019 20:05:00 9.2 C 89 % 7.48 C
1395 21-02-2019 20:10:00 9.2 C 89 % 7.48 C
1396 21-02-2019 20:15:00 9.1 C 89 % 7.39 C
1397 21-02-2019 20:20:00 9.1 C 89 % 7.39 C
1398 21-02-2019 20:25:00 9.2 C 90 % 7.65 C
1399 21-02-2019 20:30:00 9.2 C 90 % 7.65 C
1400 21-02-2019 20:35:00 9.2 C 90 % 7.65 C
Sensor: Nr:Datum:Temp:Feuchte:Taupunkt:
Aussen-T/F 1401 21-02-2019 20:40:00 9.2 C 90 % 7.65 C
1402 21-02-2019 20:45:00 9.2 C 90 % 7.65 C
1403 21-02-2019 20:50:00 9.2 C 90 % 7.65 C
1404 21-02-2019 20:55:00 9.2 C 90 % 7.65 C
1405 21-02-2019 21:00:00 9.3 C 90 % 7.75 C
1406 21-02-2019 21:05:00 9.3 C 90 % 7.75 C
1407 21-02-2019 21:10:00 9.3 C 91 % 7.91 C
1408 21-02-2019 21:15:00 9.3 C 91 % 7.91 C
1409 21-02-2019 21:20:00 9.3 C 91 % 7.91 C
1410 21-02-2019 21:25:00 9.3 C 91 % 7.91 C
1411 21-02-2019 21:30:00 9.3 C 91 % 7.91 C
1412 21-02-2019 21:35:00 9.3 C 91 % 7.91 C
1413 21-02-2019 21:40:00 9.3 C 90 % 7.75 C
1414 21-02-2019 21:45:00 9.4 C 90 % 7.85 C
1415 21-02-2019 21:50:00 9.4 C 90 % 7.85 C
1416 21-02-2019 21:55:00 9.4 C 90 % 7.85 C
1417 21-02-2019 22:00:00 9.3 C 90 % 7.75 C
1418 21-02-2019 22:05:00 9.3 C 90 % 7.75 C
1419 21-02-2019 22:10:00 9.3 C 89 % 7.58 C
1420 21-02-2019 22:15:00 9.3 C 90 % 7.75 C
1421 21-02-2019 22:20:00 9.3 C 89 % 7.58 C
1422 21-02-2019 22:25:00 9.3 C 89 % 7.58 C
1423 21-02-2019 22:30:00 9.3 C 89 % 7.58 C
1424 21-02-2019 22:35:00 9.3 C 89 % 7.58 C
1425 21-02-2019 22:40:00 9.3 C 89 % 7.58 C
Sensor: Nr:Datum:Temp:Feuchte:Taupunkt:
Aussen-T/F 1426 21-02-2019 22:45:00 9.2 C 89 % 7.48 C
1427 21-02-2019 22:50:00 9.2 C 89 % 7.48 C
1428 21-02-2019 22:55:00 9.2 C 89 % 7.48 C
1429 21-02-2019 23:00:00 9.1 C 89 % 7.39 C
1430 21-02-2019 23:05:00 9.1 C 89 % 7.39 C
1431 21-02-2019 23:10:00 9 C 89 % 7.29 C
1432 21-02-2019 23:15:00 9 C 90 % 7.45 C
1433 21-02-2019 23:20:00 9.1 C 90 % 7.55 C
1434 21-02-2019 23:25:00 9.2 C 90 % 7.65 C
1435 21-02-2019 23:30:00 9.3 C 90 % 7.75 C
1436 21-02-2019 23:35:00 9.3 C 89 % 7.58 C
1437 21-02-2019 23:40:00 9.4 C 89 % 7.68 C
1438 21-02-2019 23:45:00 9.3 C 89 % 7.58 C
1439 21-02-2019 23:50:00 9.4 C 89 % 7.68 C
1440 21-02-2019 23:55:00 9.4 C 89 % 7.68 C
1441 22-02-2019 00:00:00 9.4 C 89 % 7.68 C
1442 22-02-2019 00:05:00 9.4 C 88 % 7.52 C
1443 22-02-2019 00:10:00 9.3 C 89 % 7.58 C
1444 22-02-2019 00:15:00 9.3 C 89 % 7.58 C
1445 22-02-2019 00:20:00 9.3 C 89 % 7.58 C
1446 22-02-2019 00:25:00 9.3 C 89 % 7.58 C
1447 22-02-2019 00:30:00 9.4 C 89 % 7.68 C
1448 22-02-2019 00:35:00 9.5 C 90 % 7.94 C
1449 22-02-2019 00:40:00 9.8 C 90 % 8.24 C
1450 22-02-2019 00:45:00 10 C 88 % 8.11 C
Sensor: Nr:Datum:Temp:Feuchte:Taupunkt:
Aussen-T/F 1451 22-02-2019 00:50:00 10.1 C 88 % 8.21 C
1452 22-02-2019 00:55:00 10.1 C 88 % 8.21 C
1453 22-02-2019 01:00:00 10.1 C 88 % 8.21 C
1454 22-02-2019 01:05:00 10.1 C 87 % 8.04 C
1455 22-02-2019 01:10:00 9.9 C 87 % 7.84 C
1456 22-02-2019 01:15:00 9.8 C 87 % 7.74 C
1457 22-02-2019 01:20:00 9.8 C 88 % 7.91 C
1458 22-02-2019 01:25:00 9.7 C 88 % 7.81 C
1459 22-02-2019 01:30:00 9.7 C 89 % 7.98 C
1460 22-02-2019 01:35:00 9.7 C 89 % 7.98 C
1461 22-02-2019 01:40:00 9.7 C 89 % 7.98 C
1462 22-02-2019 01:45:00 9.6 C 89 % 7.88 C
1463 22-02-2019 01:50:00 9.6 C 89 % 7.88 C
1464 22-02-2019 01:55:00 9.5 C 89 % 7.78 C
1465 22-02-2019 02:00:00 9.4 C 89 % 7.68 C
1466 22-02-2019 02:05:00 9.4 C 89 % 7.68 C
1467 22-02-2019 02:10:00 9.4 C 90 % 7.85 C
1468 22-02-2019 02:15:00 9.4 C 90 % 7.85 C
1469 22-02-2019 02:20:00 9.4 C 90 % 7.85 C
1470 22-02-2019 02:25:00 9.3 C 90 % 7.75 C
1471 22-02-2019 02:30:00 9.3 C 90 % 7.75 C
1472 22-02-2019 02:35:00 9.3 C 90 % 7.75 C
1473 22-02-2019 02:40:00 9.2 C 90 % 7.65 C
1474 22-02-2019 02:45:00 9.2 C 91 % 7.81 C
1475 22-02-2019 02:50:00 9.3 C 91 % 7.91 C
Sensor: Nr:Datum:Temp:Feuchte:Taupunkt:
Aussen-T/F 1476 22-02-2019 02:55:00 9.3 C 92 % 8.07 C
1477 22-02-2019 03:00:00 9.4 C 92 % 8.17 C
1478 22-02-2019 03:05:00 9.4 C 91 % 8.01 C
1479 22-02-2019 03:10:00 9.4 C 92 % 8.17 C
1480 22-02-2019 03:15:00 9.4 C 92 % 8.17 C
1481 22-02-2019 03:20:00 9.5 C 92 % 8.27 C
1482 22-02-2019 03:25:00 9.5 C 92 % 8.27 C
1483 22-02-2019 03:30:00 9.6 C 92 % 8.37 C
1484 22-02-2019 03:35:00 9.6 C 93 % 8.53 C
1485 22-02-2019 03:40:00 9.7 C 93 % 8.62 C
1486 22-02-2019 03:45:00 9.7 C 92 % 8.46 C
1487 22-02-2019 03:50:00 9.7 C 92 % 8.46 C
1488 22-02-2019 03:55:00 9.7 C 92 % 8.46 C
1489 22-02-2019 04:00:00 9.8 C 92 % 8.56 C
1490 22-02-2019 04:05:00 9.8 C 92 % 8.56 C
1491 22-02-2019 04:10:00 9.8 C 92 % 8.56 C
1492 22-02-2019 04:15:00 9.8 C 93 % 8.72 C
1493 22-02-2019 04:20:00 9.8 C 93 % 8.72 C
1494 22-02-2019 04:25:00 9.7 C 93 % 8.62 C
1495 22-02-2019 04:30:00 9.7 C 93 % 8.62 C
1496 22-02-2019 04:35:00 9.6 C 93 % 8.53 C
1497 22-02-2019 04:40:00 9.6 C 93 % 8.53 C
1498 22-02-2019 04:45:00 9.5 C 93 % 8.43 C
1499 22-02-2019 04:50:00 9.5 C 94 % 8.58 C
1500 22-02-2019 04:55:00 9.4 C 94 % 8.48 C
Sensor: Nr:Datum:Temp:Feuchte:Taupunkt:
Aussen-T/F 1501 22-02-2019 05:00:00 9.4 C 94 % 8.48 C
1502 22-02-2019 05:05:00 9.4 C 94 % 8.48 C
1503 22-02-2019 05:10:00 9.4 C 94 % 8.48 C
1504 22-02-2019 05:15:00 9.4 C 94 % 8.48 C
1505 22-02-2019 05:20:00 9.4 C 94 % 8.48 C
1506 22-02-2019 05:25:00 9.3 C 94 % 8.39 C
1507 22-02-2019 05:30:00 9.3 C 94 % 8.39 C
1508 22-02-2019 05:35:00 9.3 C 94 % 8.39 C
1509 22-02-2019 05:40:00 9.3 C 94 % 8.39 C
1510 22-02-2019 05:45:00 9.3 C 95 % 8.54 C
1511 22-02-2019 05:50:00 9.3 C 95 % 8.54 C
1512 22-02-2019 05:55:00 9.3 C 95 % 8.54 C
1513 22-02-2019 06:00:00 9.3 C 95 % 8.54 C
1514 22-02-2019 06:05:00 9.3 C 95 % 8.54 C
1515 22-02-2019 06:10:00 9.3 C 95 % 8.54 C
1516 22-02-2019 06:15:00 9.4 C 95 % 8.64 C
1517 22-02-2019 06:20:00 9.4 C 95 % 8.64 C
1518 22-02-2019 06:25:00 9.4 C 95 % 8.64 C
1519 22-02-2019 06:30:00 9.4 C 95 % 8.64 C
1520 22-02-2019 06:35:00 9.4 C 95 % 8.64 C
1521 22-02-2019 06:40:00 9.3 C 95 % 8.54 C
1522 22-02-2019 06:45:00 9.3 C 95 % 8.54 C
1523 22-02-2019 06:50:00 9.3 C 95 % 8.54 C
1524 22-02-2019 06:55:00 9.3 C 95 % 8.54 C
1525 22-02-2019 07:00:00 9.3 C 95 % 8.54 C
Sensor: Nr:Datum:Temp:Feuchte:Taupunkt:
Aussen-T/F 1526 22-02-2019 07:05:00 9.3 C 95 % 8.54 C
1527 22-02-2019 07:10:00 9.3 C 95 % 8.54 C
1528 22-02-2019 07:15:00 9.2 C 95 % 8.44 C
1529 22-02-2019 07:20:00 9.2 C 95 % 8.44 C
1530 22-02-2019 07:25:00 9.2 C 95 % 8.44 C
1531 22-02-2019 07:30:00 9.2 C 95 % 8.44 C
1532 22-02-2019 07:35:00 9.2 C 96 % 8.6 C
1533 22-02-2019 07:40:00 9.2 C 96 % 8.6 C
1534 22-02-2019 07:45:00 9.2 C 96 % 8.6 C
1535 22-02-2019 07:50:00 9.2 C 96 % 8.6 C
1536 22-02-2019 07:55:00 9.2 C 96 % 8.6 C
1537 22-02-2019 08:00:00 9.1 C 96 % 8.5 C
1538 22-02-2019 08:05:00 9.1 C 96 % 8.5 C
1539 22-02-2019 08:10:00 9.1 C 96 % 8.5 C
1540 22-02-2019 08:15:00 9.1 C 96 % 8.5 C
1541 22-02-2019 08:20:00 9.1 C 96 % 8.5 C
1542 22-02-2019 08:25:00 9.1 C 96 % 8.5 C
1543 22-02-2019 08:30:00 9.2 C 96 % 8.6 C
1544 22-02-2019 08:35:00 9.2 C 96 % 8.6 C
1545 22-02-2019 08:40:00 9.2 C 96 % 8.6 C
1546 22-02-2019 08:45:00 9.2 C 96 % 8.6 C
1547 22-02-2019 08:50:00 9.3 C 96 % 8.7 C
1548 22-02-2019 08:55:00 9.3 C 96 % 8.7 C
1549 22-02-2019 09:00:00 9.4 C 96 % 8.8 C
1550 22-02-2019 09:05:00 9.4 C 96 % 8.8 C
Sensor: Nr:Datum:Temp:Feuchte:Taupunkt:
Aussen-T/F 1551 22-02-2019 09:10:00 9.5 C 96 % 8.89 C
1552 22-02-2019 09:15:00 9.5 C 96 % 8.89 C
1553 22-02-2019 09:20:00 9.5 C 96 % 8.89 C
1554 22-02-2019 09:25:00 9.5 C 96 % 8.89 C
1555 22-02-2019 09:30:00 9.5 C 96 % 8.89 C
1556 22-02-2019 09:35:00 9.5 C 96 % 8.89 C
1557 22-02-2019 09:40:00 9.5 C 96 % 8.89 C
1558 22-02-2019 09:45:00 9.6 C 96 % 8.99 C
1559 22-02-2019 09:50:00 9.6 C 96 % 8.99 C
1560 22-02-2019 09:55:00 9.6 C 96 % 8.99 C
1561 22-02-2019 10:00:00 9.7 C 96 % 9.09 C
1562 22-02-2019 10:05:00 9.7 C 96 % 9.09 C
1563 22-02-2019 10:10:00 9.8 C 96 % 9.19 C
1564 22-02-2019 10:15:00 9.8 C 96 % 9.19 C
1565 22-02-2019 10:20:00 9.8 C 96 % 9.19 C
1566 22-02-2019 10:25:00 9.9 C 96 % 9.29 C
1567 22-02-2019 10:30:00 9.9 C 96 % 9.29 C
1568 22-02-2019 10:35:00 10 C 96 % 9.39 C
1569 22-02-2019 10:40:00 10.1 C 96 % 9.49 C
1570 22-02-2019 10:45:00 10.1 C 96 % 9.49 C
1571 22-02-2019 10:50:00 10.2 C 96 % 9.59 C
1572 22-02-2019 10:55:00 10.2 C 96 % 9.59 C
1573 22-02-2019 11:00:00 10.3 C 96 % 9.69 C
1574 22-02-2019 11:05:00 10.3 C 96 % 9.69 C
1575 22-02-2019 11:10:00 10.5 C 96 % 9.89 C
Sensor: Nr:Datum:Temp:Feuchte:Taupunkt:
Aussen-T/F 1576 22-02-2019 11:15:00 10.6 C 96 % 9.99 C
1577 22-02-2019 11:20:00 10.6 C 96 % 9.99 C
1578 22-02-2019 11:25:00 10.6 C 95 % 9.83 C
1579 22-02-2019 11:30:00 10.7 C 95 % 9.93 C
1580 22-02-2019 11:35:00 10.7 C 95 % 9.93 C
1581 22-02-2019 11:40:00 10.7 C 94 % 9.77 C
1582 22-02-2019 11:45:00 10.8 C 93 % 9.71 C
1583 22-02-2019 11:50:00 10.9 C 93 % 9.81 C
1584 22-02-2019 11:55:00 11 C 93 % 9.91 C
1585 22-02-2019 12:00:00 11.2 C 92 % 9.95 C
1586 22-02-2019 12:05:00 11.2 C 91 % 9.79 C
1587 22-02-2019 12:10:00 11.3 C 91 % 9.89 C
1588 22-02-2019 12:15:00 11.4 C 89 % 9.65 C
1589 22-02-2019 12:20:00 11.4 C 89 % 9.65 C
1590 22-02-2019 12:25:00 11.6 C 88 % 9.68 C
1591 22-02-2019 12:30:00 11.7 C 88 % 9.78 C
1592 22-02-2019 12:35:00 11.8 C 87 % 9.71 C
1593 22-02-2019 12:40:00 11.8 C 85 % 9.36 C
1594 22-02-2019 12:45:00 11.9 C 85 % 9.46 C
1595 22-02-2019 12:50:00 11.9 C 85 % 9.46 C
1596 22-02-2019 12:55:00 12 C 85 % 9.56 C
1597 22-02-2019 13:00:00 12.1 C 85 % 9.66 C
1598 22-02-2019 13:05:00 12.1 C 84 % 9.48 C
1599 22-02-2019 13:10:00 12.1 C 84 % 9.48 C
1600 22-02-2019 13:15:00 12.1 C 84 % 9.48 C
Sensor: Nr:Datum:Temp:Feuchte:Taupunkt:
Aussen-T/F 1601 22-02-2019 13:20:00 12.2 C 84 % 9.58 C
1602 22-02-2019 13:25:00 12.5 C 82 % 9.51 C
1603 22-02-2019 13:30:00 12.8 C 82 % 9.81 C
1604 22-02-2019 13:35:00 12.8 C 80 % 9.44 C
1605 22-02-2019 13:40:00 12.8 C 80 % 9.44 C
1606 22-02-2019 13:45:00 12.8 C 80 % 9.44 C
1607 22-02-2019 13:50:00 12.7 C 80 % 9.34 C
1608 22-02-2019 13:55:00 12.6 C 80 % 9.25 C
1609 22-02-2019 14:00:00 12.6 C 80 % 9.25 C
1610 22-02-2019 14:05:00 12.6 C 80 % 9.25 C
1611 22-02-2019 14:10:00 12.6 C 79 % 9.06 C
1612 22-02-2019 14:15:00 12.7 C 79 % 9.16 C
1613 22-02-2019 14:20:00 12.7 C 78 % 8.97 C
1614 22-02-2019 14:25:00 12.8 C 78 % 9.06 C
1615 22-02-2019 14:30:00 12.8 C 78 % 9.06 C
1616 22-02-2019 14:35:00 12.9 C 79 % 9.35 C
1617 22-02-2019 14:40:00 13 C 76 % 8.87 C
1618 22-02-2019 14:45:00 13.1 C 76 % 8.97 C
1619 22-02-2019 14:50:00 13.1 C 76 % 8.97 C
1620 22-02-2019 14:55:00 13.1 C 76 % 8.97 C
1621 22-02-2019 15:00:00 13.2 C 75 % 8.87 C
1622 22-02-2019 15:05:00 13.3 C 76 % 9.16 C
1623 22-02-2019 15:10:00 13.3 C 75 % 8.97 C
1624 22-02-2019 15:15:00 13.4 C 74 % 8.87 C
1625 22-02-2019 15:20:00 13.4 C 74 % 8.87 C
Sensor: Nr:Datum:Temp:Feuchte:Taupunkt:
Aussen-T/F 1626 22-02-2019 15:25:00 13.4 C 73 % 8.66 C
1627 22-02-2019 15:30:00 13.3 C 74 % 8.77 C
1628 22-02-2019 15:35:00 13.3 C 74 % 8.77 C
1629 22-02-2019 15:40:00 13.2 C 74 % 8.67 C
1630 22-02-2019 15:45:00 13.2 C 74 % 8.67 C
1631 22-02-2019 15:50:00 13.2 C 75 % 8.87 C
1632 22-02-2019 15:55:00 13.1 C 74 % 8.58 C
1633 22-02-2019 16:00:00 13.1 C 74 % 8.58 C
1634 22-02-2019 16:05:00 13.1 C 75 % 8.77 C
1635 22-02-2019 16:10:00 13.1 C 75 % 8.77 C
1636 22-02-2019 16:15:00 12.9 C 74 % 8.38 C
1637 22-02-2019 16:20:00 12.9 C 73 % 8.18 C
1638 22-02-2019 16:25:00 12.8 C 73 % 8.09 C
1639 22-02-2019 16:30:00 12.8 C 72 % 7.88 C
1640 22-02-2019 16:35:00 12.7 C 72 % 7.79 C
1641 22-02-2019 16:40:00 12.7 C 72 % 7.79 C
1642 22-02-2019 16:45:00 12.7 C 74 % 8.19 C
1643 22-02-2019 16:50:00 12.7 C 74 % 8.19 C
1644 22-02-2019 16:55:00 12.6 C 73 % 7.89 C
1645 22-02-2019 17:00:00 12.5 C 74 % 8 C
1646 22-02-2019 17:05:00 12.4 C 74 % 7.9 C
1647 22-02-2019 17:10:00 12.3 C 75 % 8 C
1648 22-02-2019 17:15:00 12.2 C 73 % 7.51 C
1649 22-02-2019 17:20:00 12.2 C 74 % 7.71 C
1650 22-02-2019 17:25:00 12.1 C 76 % 8 C
Sensor: Nr:Datum:Temp:Feuchte:Taupunkt:
Aussen-T/F 1651 22-02-2019 17:30:00 11.9 C 77 % 8 C
1652 22-02-2019 17:35:00 11.7 C 77 % 7.81 C
1653 22-02-2019 17:40:00 11.4 C 78 % 7.71 C
1654 22-02-2019 17:45:00 11.3 C 78 % 7.61 C
1655 22-02-2019 17:50:00 11.1 C 79 % 7.6 C
1656 22-02-2019 17:55:00 10.8 C 79 % 7.31 C
1657 22-02-2019 18:00:00 10.4 C 80 % 7.1 C
1658 22-02-2019 18:05:00 10.1 C 80 % 6.81 C
1659 22-02-2019 18:10:00 9.8 C 81 % 6.7 C
1660 22-02-2019 18:15:00 9.4 C 82 % 6.49 C
1661 22-02-2019 18:20:00 9.2 C 82 % 6.29 C
1662 22-02-2019 18:25:00 9 C 83 % 6.27 C
1663 22-02-2019 18:30:00 8.8 C 84 % 6.25 C
1664 22-02-2019 18:35:00 8.7 C 84 % 6.15 C
1665 22-02-2019 18:40:00 8.6 C 85 % 6.23 C
1666 22-02-2019 18:45:00 8.4 C 85 % 6.03 C
1667 22-02-2019 18:50:00 8.3 C 85 % 5.93 C
1668 22-02-2019 18:55:00 8.2 C 86 % 6 C
1669 22-02-2019 19:00:00 8.2 C 86 % 6 C
1670 22-02-2019 19:05:00 8.3 C 86 % 6.1 C
1671 22-02-2019 19:10:00 8.3 C 87 % 6.27 C
1672 22-02-2019 19:15:00 8.4 C 87 % 6.37 C
1673 22-02-2019 19:20:00 8.5 C 86 % 6.3 C
1674 22-02-2019 19:25:00 8.6 C 86 % 6.39 C
1675 22-02-2019 19:30:00 8.6 C 86 % 6.39 C
Sensor: Nr:Datum:Temp:Feuchte:Taupunkt:
Aussen-T/F 1676 22-02-2019 19:35:00 8.6 C 86 % 6.39 C
1677 22-02-2019 19:40:00 8.7 C 86 % 6.49 C
1678 22-02-2019 19:45:00 8.7 C 86 % 6.49 C
1679 22-02-2019 19:50:00 8.8 C 86 % 6.59 C
1680 22-02-2019 19:55:00 8.9 C 86 % 6.69 C
1681 22-02-2019 20:00:00 8.9 C 85 % 6.52 C
1682 22-02-2019 20:05:00 9 C 85 % 6.62 C
1683 22-02-2019 20:10:00 9 C 85 % 6.62 C
1684 22-02-2019 20:15:00 9.1 C 85 % 6.72 C
1685 22-02-2019 20:20:00 9.1 C 85 % 6.72 C
1686 22-02-2019 20:25:00 9.1 C 85 % 6.72 C
1687 22-02-2019 20:30:00 9.1 C 85 % 6.72 C
1688 22-02-2019 20:35:00 9 C 85 % 6.62 C
1689 22-02-2019 20:40:00 8.9 C 86 % 6.69 C
1690 22-02-2019 20:45:00 8.9 C 86 % 6.69 C
1691 22-02-2019 20:50:00 8.9 C 86 % 6.69 C
1692 22-02-2019 20:55:00 8.9 C 86 % 6.69 C
1693 22-02-2019 21:00:00 8.8 C 86 % 6.59 C
1694 22-02-2019 21:05:00 8.8 C 86 % 6.59 C
1695 22-02-2019 21:10:00 8.8 C 86 % 6.59 C
1696 22-02-2019 21:15:00 8.8 C 86 % 6.59 C
1697 22-02-2019 21:20:00 8.7 C 87 % 6.66 C
1698 22-02-2019 21:25:00 8.7 C 86 % 6.49 C
1699 22-02-2019 21:30:00 8.6 C 86 % 6.39 C
1700 22-02-2019 21:35:00 8.4 C 86 % 6.2 C
Sensor: Nr:Datum:Temp:Feuchte:Taupunkt:
Aussen-T/F 1701 22-02-2019 21:40:00 8.3 C 86 % 6.1 C
1702 22-02-2019 21:45:00 8.1 C 86 % 5.9 C
1703 22-02-2019 21:50:00 7.9 C 86 % 5.71 C
1704 22-02-2019 21:55:00 7.8 C 87 % 5.78 C
1705 22-02-2019 22:00:00 7.6 C 87 % 5.58 C
1706 22-02-2019 22:05:00 7.4 C 88 % 5.55 C
1707 22-02-2019 22:10:00 7.3 C 88 % 5.45 C
1708 22-02-2019 22:15:00 7.2 C 88 % 5.35 C
1709 22-02-2019 22:20:00 7.1 C 89 % 5.41 C
1710 22-02-2019 22:25:00 7 C 89 % 5.31 C
1711 22-02-2019 22:30:00 6.9 C 89 % 5.22 C
1712 22-02-2019 22:35:00 6.8 C 89 % 5.12 C
1713 22-02-2019 22:40:00 6.7 C 90 % 5.18 C
1714 22-02-2019 22:45:00 6.6 C 90 % 5.08 C
1715 22-02-2019 22:50:00 6.4 C 90 % 4.88 C
1716 22-02-2019 22:55:00 6.3 C 90 % 4.78 C
1717 22-02-2019 23:00:00 6.2 C 90 % 4.69 C
1718 22-02-2019 23:05:00 6.1 C 91 % 4.74 C
1719 22-02-2019 23:10:00 6.1 C 91 % 4.74 C
1720 22-02-2019 23:15:00 6 C 91 % 4.65 C
1721 22-02-2019 23:20:00 6 C 92 % 4.8 C
1722 22-02-2019 23:25:00 5.9 C 92 % 4.7 C
1723 22-02-2019 23:30:00 5.9 C 92 % 4.7 C
1724 22-02-2019 23:35:00 5.9 C 92 % 4.7 C
1725 22-02-2019 23:40:00 5.9 C 92 % 4.7 C
Sensor: Nr:Datum:Temp:Feuchte:Taupunkt:
Aussen-T/F 1726 22-02-2019 23:45:00 5.9 C 92 % 4.7 C
1727 22-02-2019 23:50:00 5.8 C 92 % 4.6 C
1728 22-02-2019 23:55:00 5.7 C 92 % 4.5 C
1729 23-02-2019 00:00:00 5.7 C 92 % 4.5 C
1730 23-02-2019 00:05:00 5.7 C 92 % 4.5 C
1731 23-02-2019 00:10:00 5.6 C 92 % 4.41 C
1732 23-02-2019 00:15:00 5.4 C 92 % 4.21 C
1733 23-02-2019 00:20:00 5.3 C 92 % 4.11 C
1734 23-02-2019 00:25:00 5.3 C 92 % 4.11 C
1735 23-02-2019 00:30:00 5.2 C 92 % 4.01 C
1736 23-02-2019 00:35:00 5.2 C 92 % 4.01 C
1737 23-02-2019 00:40:00 5.2 C 93 % 4.16 C
1738 23-02-2019 00:45:00 5.1 C 93 % 4.06 C
1739 23-02-2019 00:50:00 5.1 C 93 % 4.06 C
1740 23-02-2019 00:55:00 5 C 93 % 3.96 C
1741 23-02-2019 01:00:00 4.9 C 93 % 3.87 C
1742 23-02-2019 01:05:00 4.8 C 93 % 3.77 C
1743 23-02-2019 01:10:00 4.8 C 93 % 3.77 C
1744 23-02-2019 01:15:00 4.7 C 93 % 3.67 C
1745 23-02-2019 01:20:00 4.7 C 93 % 3.67 C
1746 23-02-2019 01:25:00 4.6 C 93 % 3.57 C
1747 23-02-2019 01:30:00 4.4 C 93 % 3.37 C
1748 23-02-2019 01:35:00 4.4 C 93 % 3.37 C
1749 23-02-2019 01:40:00 4.4 C 93 % 3.37 C
1750 23-02-2019 01:45:00 4.3 C 94 % 3.42 C
Sensor: Nr:Datum:Temp:Feuchte:Taupunkt:
Aussen-T/F 1751 23-02-2019 01:50:00 4.3 C 94 % 3.42 C
1752 23-02-2019 01:55:00 4.3 C 94 % 3.42 C
1753 23-02-2019 02:00:00 4.3 C 94 % 3.42 C
1754 23-02-2019 02:05:00 4.3 C 94 % 3.42 C
1755 23-02-2019 02:10:00 4.4 C 94 % 3.52 C
1756 23-02-2019 02:15:00 4.4 C 94 % 3.52 C
1757 23-02-2019 02:20:00 4.3 C 94 % 3.42 C
1758 23-02-2019 02:25:00 4.3 C 94 % 3.42 C
1759 23-02-2019 02:30:00 4.2 C 94 % 3.32 C
1760 23-02-2019 02:35:00 4.1 C 94 % 3.22 C
1761 23-02-2019 02:40:00 4 C 94 % 3.12 C
1762 23-02-2019 02:45:00 4 C 94 % 3.12 C
1763 23-02-2019 02:50:00 4 C 94 % 3.12 C
1764 23-02-2019 02:55:00 3.9 C 94 % 3.02 C
1765 23-02-2019 03:00:00 3.8 C 94 % 2.93 C
1766 23-02-2019 03:05:00 3.8 C 95 % 3.07 C
1767 23-02-2019 03:10:00 3.8 C 95 % 3.07 C
1768 23-02-2019 03:15:00 3.8 C 95 % 3.07 C
1769 23-02-2019 03:20:00 3.9 C 95 % 3.17 C
1770 23-02-2019 03:25:00 3.8 C 95 % 3.07 C
1771 23-02-2019 03:30:00 3.7 C 95 % 2.98 C
1772 23-02-2019 03:35:00 3.7 C 95 % 2.98 C
1773 23-02-2019 03:40:00 3.8 C 95 % 3.07 C
1774 23-02-2019 03:45:00 3.8 C 95 % 3.07 C
1775 23-02-2019 03:50:00 3.9 C 95 % 3.17 C
Sensor: Nr:Datum:Temp:Feuchte:Taupunkt:
Aussen-T/F 1776 23-02-2019 03:55:00 4 C 95 % 3.27 C
1777 23-02-2019 04:00:00 4.1 C 95 % 3.37 C
1778 23-02-2019 04:05:00 4.2 C 95 % 3.47 C
1779 23-02-2019 04:10:00 4.2 C 95 % 3.47 C
1780 23-02-2019 04:15:00 4.3 C 95 % 3.57 C
1781 23-02-2019 04:20:00 4.3 C 95 % 3.57 C
1782 23-02-2019 04:25:00 4.3 C 95 % 3.57 C
1783 23-02-2019 04:30:00 4.4 C 95 % 3.67 C
1784 23-02-2019 04:35:00 4.3 C 95 % 3.57 C
1785 23-02-2019 04:40:00 4.3 C 95 % 3.57 C
1786 23-02-2019 04:45:00 4.3 C 95 % 3.57 C
1787 23-02-2019 04:50:00 4.3 C 95 % 3.57 C
1788 23-02-2019 04:55:00 4.2 C 95 % 3.47 C
1789 23-02-2019 05:00:00 4.2 C 95 % 3.47 C
1790 23-02-2019 05:05:00 4.2 C 95 % 3.47 C
1791 23-02-2019 05:10:00 4.3 C 95 % 3.57 C
1792 23-02-2019 05:15:00 4.3 C 95 % 3.57 C
1793 23-02-2019 05:20:00 4.5 C 94 % 3.62 C
1794 23-02-2019 05:25:00 4.6 C 94 % 3.72 C
1795 23-02-2019 05:30:00 4.6 C 93 % 3.57 C
1796 23-02-2019 05:35:00 4.7 C 93 % 3.67 C
1797 23-02-2019 05:40:00 4.7 C 93 % 3.67 C
1798 23-02-2019 05:45:00 4.7 C 92 % 3.51 C
1799 23-02-2019 05:50:00 4.7 C 92 % 3.51 C
1800 23-02-2019 05:55:00 4.8 C 91 % 3.46 C
Sensor: Nr:Datum:Temp:Feuchte:Taupunkt:
Aussen-T/F 1801 23-02-2019 06:00:00 4.8 C 91 % 3.46 C
1802 23-02-2019 06:05:00 4.8 C 91 % 3.46 C
1803 23-02-2019 06:10:00 4.9 C 90 % 3.4 C
1804 23-02-2019 06:15:00 4.8 C 91 % 3.46 C
1805 23-02-2019 06:20:00 4.8 C 91 % 3.46 C
1806 23-02-2019 06:25:00 4.8 C 89 % 3.14 C
1807 23-02-2019 06:30:00 4.8 C 89 % 3.14 C
1808 23-02-2019 06:35:00 4.8 C 89 % 3.14 C
1809 23-02-2019 06:40:00 4.9 C 89 % 3.24 C
1810 23-02-2019 06:45:00 4.9 C 90 % 3.4 C
1811 23-02-2019 06:50:00 4.9 C 89 % 3.24 C
1812 23-02-2019 06:55:00 4.8 C 89 % 3.14 C
1813 23-02-2019 07:00:00 4.8 C 88 % 2.99 C
1814 23-02-2019 07:05:00 4.8 C 88 % 2.99 C
1815 23-02-2019 07:10:00 4.8 C 88 % 2.99 C
1816 23-02-2019 07:15:00 4.7 C 87 % 2.73 C
1817 23-02-2019 07:20:00 4.8 C 87 % 2.82 C
1818 23-02-2019 07:25:00 4.8 C 87 % 2.82 C
1819 23-02-2019 07:30:00 4.8 C 87 % 2.82 C
1820 23-02-2019 07:35:00 4.8 C 86 % 2.66 C
1821 23-02-2019 07:40:00 4.8 C 86 % 2.66 C
1822 23-02-2019 07:45:00 4.8 C 87 % 2.82 C
1823 23-02-2019 07:50:00 4.8 C 86 % 2.66 C
1824 23-02-2019 07:55:00 4.8 C 86 % 2.66 C
1825 23-02-2019 08:00:00 4.8 C 86 % 2.66 C
Sensor: Nr:Datum:Temp:Feuchte:Taupunkt:
Aussen-T/F 1826 23-02-2019 08:05:00 4.8 C 87 % 2.82 C
1827 23-02-2019 08:10:00 4.8 C 86 % 2.66 C
1828 23-02-2019 08:15:00 4.8 C 85 % 2.5 C
1829 23-02-2019 08:20:00 4.8 C 85 % 2.5 C
1830 23-02-2019 08:25:00 4.8 C 85 % 2.5 C
1831 23-02-2019 08:30:00 4.9 C 85 % 2.6 C
1832 23-02-2019 08:35:00 4.9 C 85 % 2.6 C
1833 23-02-2019 08:40:00 4.9 C 84 % 2.43 C
1834 23-02-2019 08:45:00 4.9 C 84 % 2.43 C
1835 23-02-2019 08:50:00 4.9 C 84 % 2.43 C
1836 23-02-2019 08:55:00 4.9 C 84 % 2.43 C
1837 23-02-2019 09:00:00 4.9 C 84 % 2.43 C
1838 23-02-2019 09:05:00 4.9 C 83 % 2.26 C
1839 23-02-2019 09:10:00 4.8 C 83 % 2.16 C
1840 23-02-2019 09:15:00 4.8 C 83 % 2.16 C
1841 23-02-2019 09:20:00 4.8 C 84 % 2.33 C
1842 23-02-2019 09:25:00 4.8 C 84 % 2.33 C
1843 23-02-2019 09:30:00 4.8 C 84 % 2.33 C
1844 23-02-2019 09:35:00 4.7 C 84 % 2.23 C
1845 23-02-2019 09:40:00 4.7 C 83 % 2.07 C
1846 23-02-2019 09:45:00 4.7 C 83 % 2.07 C
1847 23-02-2019 09:50:00 4.7 C 83 % 2.07 C
1848 23-02-2019 09:55:00 4.7 C 83 % 2.07 C
1849 23-02-2019 10:00:00 4.7 C 83 % 2.07 C
1850 23-02-2019 10:05:00 4.7 C 83 % 2.07 C
Sensor: Nr:Datum:Temp:Feuchte:Taupunkt:
Aussen-T/F 1851 23-02-2019 10:10:00 4.7 C 83 % 2.07 C
1852 23-02-2019 10:15:00 4.8 C 83 % 2.16 C
1853 23-02-2019 10:20:00 4.8 C 82 % 1.99 C
1854 23-02-2019 10:25:00 4.8 C 82 % 1.99 C
1855 23-02-2019 10:30:00 4.9 C 82 % 2.09 C
1856 23-02-2019 10:35:00 5 C 81 % 2.02 C
1857 23-02-2019 10:40:00 5.1 C 81 % 2.12 C
1858 23-02-2019 10:45:00 5.2 C 81 % 2.21 C
1859 23-02-2019 10:50:00 5.3 C 81 % 2.31 C
1860 23-02-2019 10:55:00 5.4 C 80 % 2.23 C
1861 23-02-2019 11:00:00 5.4 C 81 % 2.41 C
1862 23-02-2019 11:05:00 5.6 C 81 % 2.6 C
1863 23-02-2019 11:10:00 5.7 C 80 % 2.53 C
1864 23-02-2019 11:15:00 5.8 C 80 % 2.62 C
1865 23-02-2019 11:20:00 5.9 C 80 % 2.72 C
1866 23-02-2019 11:25:00 6.1 C 80 % 2.92 C
1867 23-02-2019 11:30:00 6.2 C 79 % 2.84 C
1868 23-02-2019 11:35:00 6.3 C 79 % 2.93 C
1869 23-02-2019 11:40:00 6.4 C 78 % 2.85 C
1870 23-02-2019 11:45:00 6.6 C 77 % 2.86 C
1871 23-02-2019 11:50:00 6.7 C 77 % 2.96 C
1872 23-02-2019 11:55:00 6.8 C 76 % 2.87 C
1873 23-02-2019 12:00:00 6.9 C 76 % 2.97 C
1874 23-02-2019 12:05:00 7.1 C 75 % 2.98 C
1875 23-02-2019 12:10:00 7.2 C 74 % 2.89 C
Sensor: Nr:Datum:Temp:Feuchte:Taupunkt:
Aussen-T/F 1876 23-02-2019 12:15:00 7.3 C 74 % 2.98 C
1877 23-02-2019 12:20:00 7.5 C 73 % 2.98 C
1878 23-02-2019 12:25:00 7.7 C 72 % 2.98 C
1879 23-02-2019 12:30:00 7.8 C 71 % 2.88 C
1880 23-02-2019 12:35:00 7.8 C 71 % 2.88 C
1881 23-02-2019 12:40:00 7.9 C 70 % 2.78 C
1882 23-02-2019 12:45:00 8 C 71 % 3.07 C
1883 23-02-2019 12:50:00 8.1 C 70 % 2.97 C
1884 23-02-2019 12:55:00 8.2 C 71 % 3.26 C
1885 23-02-2019 13:00:00 8.3 C 69 % 2.96 C
1886 23-02-2019 13:05:00 8.4 C 68 % 2.85 C
1887 23-02-2019 13:10:00 8.4 C 69 % 3.05 C
1888 23-02-2019 13:15:00 8.7 C 68 % 3.13 C
1889 23-02-2019 13:20:00 8.9 C 68 % 3.32 C
1890 23-02-2019 13:25:00 9.1 C 67 % 3.31 C
1891 23-02-2019 13:30:00 9.3 C 66 % 3.28 C
1892 23-02-2019 13:35:00 9.3 C 66 % 3.28 C
1893 23-02-2019 13:40:00 9.4 C 67 % 3.59 C
1894 23-02-2019 13:45:00 9.6 C 65 % 3.35 C
1895 23-02-2019 13:50:00 9.6 C 65 % 3.35 C
1896 23-02-2019 13:55:00 9.7 C 64 % 3.23 C
1897 23-02-2019 14:00:00 9.7 C 64 % 3.23 C
1898 23-02-2019 14:05:00 9.7 C 63 % 3.01 C
1899 23-02-2019 14:10:00 9.7 C 64 % 3.23 C
1900 23-02-2019 14:15:00 9.8 C 63 % 3.1 C
Sensor: Nr:Datum:Temp:Feuchte:Taupunkt:
Aussen-T/F 1901 23-02-2019 14:20:00 9.8 C 62 % 2.88 C
1902 23-02-2019 14:25:00 9.9 C 62 % 2.97 C
1903 23-02-2019 14:30:00 10 C 61 % 2.84 C
1904 23-02-2019 14:35:00 10.1 C 60 % 2.7 C
1905 23-02-2019 14:40:00 10.2 C 59 % 2.56 C
1906 23-02-2019 14:45:00 10.3 C 54 % 1.41 C
1907 23-02-2019 14:50:00 10.4 C 52 % 0.98 C
1908 23-02-2019 14:55:00 10.6 C 49 % 0.35 C
1909 23-02-2019 15:00:00 10.6 C 47 % -0.23 C
1910 23-02-2019 15:05:00 10.7 C 46 % -0.43 C
1911 23-02-2019 15:10:00 10.8 C 48 % 0.24 C
1912 23-02-2019 15:15:00 10.8 C 46 % -0.34 C
1913 23-02-2019 15:20:00 10.8 C 46 % -0.34 C
1914 23-02-2019 15:25:00 10.8 C 46 % -0.34 C
1915 23-02-2019 15:30:00 10.8 C 45 % -0.64 C
1916 23-02-2019 15:35:00 10.8 C 42 % -1.58 C
1917 23-02-2019 15:40:00 10.8 C 42 % -1.58 C
1918 23-02-2019 15:45:00 10.8 C 43 % -1.26 C
1919 23-02-2019 15:50:00 10.8 C 42 % -1.58 C
1920 23-02-2019 15:55:00 10.9 C 44 % -0.86 C
1921 23-02-2019 16:00:00 10.9 C 43 % -1.17 C
1922 23-02-2019 16:05:00 10.9 C 43 % -1.17 C
1923 23-02-2019 16:10:00 11.1 C 46 % -0.07 C
1924 23-02-2019 16:15:00 11.1 C 52 % 1.63 C
1925 23-02-2019 16:20:00 11 C 43 % -1.08 C
Sensor: Nr:Datum:Temp:Feuchte:Taupunkt:
Aussen-T/F 1926 23-02-2019 16:25:00 10.9 C 42 % -1.49 C
1927 23-02-2019 16:30:00 10.8 C 44 % -0.95 C
1928 23-02-2019 16:35:00 10.8 C 47 % -0.04 C
1929 23-02-2019 16:40:00 10.6 C 46 % -0.52 C
1930 23-02-2019 16:45:00 10.4 C 52 % 0.98 C
1931 23-02-2019 16:50:00 10.2 C 53 % 1.06 C
1932 23-02-2019 16:55:00 9.9 C 54 % 1.04 C
1933 23-02-2019 17:00:00 9.6 C 56 % 1.27 C
1934 23-02-2019 17:05:00 9.3 C 59 % 1.71 C
1935 23-02-2019 17:10:00 8.9 C 61 % 1.8 C
1936 23-02-2019 17:15:00 8.7 C 62 % 1.84 C
1937 23-02-2019 17:20:00 8.3 C 62 % 1.46 C
1938 23-02-2019 17:25:00 8 C 64 % 1.62 C
1939 23-02-2019 17:30:00 7.8 C 64 % 1.43 C
1940 23-02-2019 17:35:00 7.5 C 65 % 1.36 C
1941 23-02-2019 17:40:00 7.3 C 65 % 1.17 C
1942 23-02-2019 17:45:00 7.1 C 66 % 1.19 C
1943 23-02-2019 17:50:00 6.8 C 67 % 1.11 C
1944 23-02-2019 17:55:00 6.6 C 67 % 0.92 C
1945 23-02-2019 18:00:00 6.4 C 69 % 1.14 C
1946 23-02-2019 18:05:00 6.2 C 70 % 1.15 C
1947 23-02-2019 18:10:00 5.9 C 70 % 0.86 C
1948 23-02-2019 18:15:00 5.7 C 70 % 0.67 C
1949 23-02-2019 18:20:00 5.6 C 71 % 0.77 C
1950 23-02-2019 18:25:00 5.4 C 71 % 0.58 C
Sensor: Nr:Datum:Temp:Feuchte:Taupunkt:
Aussen-T/F 1951 23-02-2019 18:30:00 5.3 C 71 % 0.48 C
1952 23-02-2019 18:35:00 5.2 C 71 % 0.38 C
1953 23-02-2019 18:40:00 5.1 C 72 % 0.48 C
1954 23-02-2019 18:45:00 5 C 72 % 0.38 C
1955 23-02-2019 18:50:00 4.9 C 72 % 0.29 C
1956 23-02-2019 18:55:00 4.8 C 72 % 0.19 C
1957 23-02-2019 19:00:00 4.7 C 73 % 0.28 C
1958 23-02-2019 19:05:00 4.7 C 73 % 0.28 C
1959 23-02-2019 19:10:00 4.6 C 73 % 0.19 C
1960 23-02-2019 19:15:00 4.6 C 74 % 0.38 C
1961 23-02-2019 19:20:00 4.5 C 74 % 0.28 C
1962 23-02-2019 19:25:00 4.4 C 73 % 0 C
1963 23-02-2019 19:30:00 4.3 C 74 % 0.09 C
1964 23-02-2019 19:35:00 4.3 C 75 % 0.27 C
1965 23-02-2019 19:40:00 4.2 C 75 % 0.17 C
1966 23-02-2019 19:45:00 4.1 C 74 % -0.11 C
1967 23-02-2019 19:50:00 4.1 C 75 % 0.08 C
1968 23-02-2019 19:55:00 3.9 C 75 % -0.12 C
1969 23-02-2019 20:00:00 3.9 C 75 % -0.12 C
1970 23-02-2019 20:05:00 3.8 C 75 % -0.21 C
1971 23-02-2019 20:10:00 3.7 C 75 % -0.31 C
1972 23-02-2019 20:15:00 3.7 C 75 % -0.31 C
1973 23-02-2019 20:20:00 3.6 C 75 % -0.41 C
1974 23-02-2019 20:25:00 3.5 C 76 % -0.32 C
1975 23-02-2019 20:30:00 3.4 C 76 % -0.42 C
Sensor: Nr:Datum:Temp:Feuchte:Taupunkt:
Aussen-T/F 1976 23-02-2019 20:35:00 3.3 C 77 % -0.34 C
1977 23-02-2019 20:40:00 3.2 C 77 % -0.43 C
1978 23-02-2019 20:45:00 3 C 77 % -0.63 C
1979 23-02-2019 20:50:00 2.8 C 77 % -0.82 C
1980 23-02-2019 20:55:00 2.7 C 78 % -0.74 C
1981 23-02-2019 21:00:00 2.6 C 78 % -0.84 C
1982 23-02-2019 21:05:00 2.4 C 79 % -0.86 C
1983 23-02-2019 21:10:00 2.3 C 78 % -1.13 C
1984 23-02-2019 21:15:00 2.2 C 78 % -1.23 C
1985 23-02-2019 21:20:00 2.2 C 79 % -1.05 C
1986 23-02-2019 21:25:00 2.1 C 79 % -1.15 C
1987 23-02-2019 21:30:00 2.1 C 80 % -0.98 C
1988 23-02-2019 21:35:00 2 C 79 % -1.25 C
1989 23-02-2019 21:40:00 1.8 C 80 % -1.27 C
1990 23-02-2019 21:45:00 1.7 C 80 % -1.37 C
1991 23-02-2019 21:50:00 1.6 C 81 % -1.3 C
1992 23-02-2019 21:55:00 1.4 C 81 % -1.49 C
1993 23-02-2019 22:00:00 1.3 C 81 % -1.59 C
1994 23-02-2019 22:05:00 1.2 C 82 % -1.52 C
1995 23-02-2019 22:10:00 1.2 C 82 % -1.52 C
1996 23-02-2019 22:15:00 1.1 C 83 % -1.46 C
1997 23-02-2019 22:20:00 1.1 C 84 % -1.29 C
1998 23-02-2019 22:25:00 1.1 C 84 % -1.29 C
1999 23-02-2019 22:30:00 1.1 C 83 % -1.46 C
2000 23-02-2019 22:35:00 0.9 C 83 % -1.65 C
Sensor: Nr:Datum:Temp:Feuchte:Taupunkt:
Aussen-T/F 2001 23-02-2019 22:40:00 0.8 C 83 % -1.75 C
2002 23-02-2019 22:45:00 0.7 C 83 % -1.85 C
2003 23-02-2019 22:50:00 0.7 C 83 % -1.85 C
2004 23-02-2019 22:55:00 0.6 C 83 % -1.95 C
2005 23-02-2019 23:00:00 0.6 C 84 % -1.78 C
2006 23-02-2019 23:05:00 0.6 C 84 % -1.78 C
2007 23-02-2019 23:10:00 0.5 C 83 % -2.04 C
2008 23-02-2019 23:15:00 0.4 C 83 % -2.14 C
2009 23-02-2019 23:20:00 0.4 C 84 % -1.98 C
2010 23-02-2019 23:25:00 0.5 C 83 % -2.04 C
2011 23-02-2019 23:30:00 0.4 C 83 % -2.14 C
2012 23-02-2019 23:35:00 0.5 C 83 % -2.04 C
2013 23-02-2019 23:40:00 0.4 C 83 % -2.14 C
2014 23-02-2019 23:45:00 0.4 C 84 % -1.98 C
2015 23-02-2019 23:50:00 0.4 C 84 % -1.98 C
2016 23-02-2019 23:55:00 0.4 C 84 % -1.98 C
2017 24-02-2019 00:00:00 0.2 C 84 % -2.18 C
2018 24-02-2019 00:05:00 0.1 C 84 % -2.27 C
2019 24-02-2019 00:10:00 -0.1 C 84 % -2.47 C
2020 24-02-2019 00:15:00 -0.2 C 85 % -2.41 C
2021 24-02-2019 00:20:00 -0.3 C 85 % -2.51 C
2022 24-02-2019 00:25:00 -0.3 C 85 % -2.51 C
2023 24-02-2019 00:30:00 -0.3 C 86 % -2.35 C
2024 24-02-2019 00:35:00 -0.3 C 86 % -2.35 C
2025 24-02-2019 00:40:00 -0.4 C 86 % -2.45 C
Sensor: Nr:Datum:Temp:Feuchte:Taupunkt:
Aussen-T/F 2026 24-02-2019 00:45:00 -0.4 C 86 % -2.45 C
2027 24-02-2019 00:50:00 -0.5 C 87 % -2.39 C
2028 24-02-2019 00:55:00 -0.6 C 87 % -2.49 C
2029 24-02-2019 01:00:00 -0.6 C 87 % -2.49 C
2030 24-02-2019 01:05:00 -0.6 C 87 % -2.49 C
2031 24-02-2019 01:10:00 -0.6 C 87 % -2.49 C
2032 24-02-2019 01:15:00 -0.6 C 87 % -2.49 C
2033 24-02-2019 01:20:00 -0.6 C 87 % -2.49 C
2034 24-02-2019 01:25:00 -0.6 C 87 % -2.49 C
2035 24-02-2019 01:30:00 -0.7 C 87 % -2.59 C
2036 24-02-2019 01:35:00 -0.7 C 87 % -2.59 C
2037 24-02-2019 01:40:00 -0.7 C 87 % -2.59 C
2038 24-02-2019 01:45:00 -0.7 C 87 % -2.59 C
2039 24-02-2019 01:50:00 -0.8 C 87 % -2.69 C
2040 24-02-2019 01:55:00 -0.8 C 87 % -2.69 C
2041 24-02-2019 02:00:00 -0.9 C 87 % -2.79 C
2042 24-02-2019 02:05:00 -1 C 87 % -2.88 C
2043 24-02-2019 02:10:00 -1.1 C 88 % -2.83 C
2044 24-02-2019 02:15:00 -1.1 C 88 % -2.83 C
2045 24-02-2019 02:20:00 -1.1 C 88 % -2.83 C
2046 24-02-2019 02:25:00 -1.2 C 88 % -2.93 C
2047 24-02-2019 02:30:00 -1.2 C 88 % -2.93 C
2048 24-02-2019 02:35:00 -1.2 C 88 % -2.93 C
2049 24-02-2019 02:40:00 -1.3 C 88 % -3.03 C
2050 24-02-2019 02:45:00 -1.3 C 88 % -3.03 C
Sensor: Nr:Datum:Temp:Feuchte:Taupunkt:
Aussen-T/F 2051 24-02-2019 02:50:00 -1.3 C 88 % -3.03 C
2052 24-02-2019 02:55:00 -1.3 C 89 % -2.88 C
2053 24-02-2019 03:00:00 -1.3 C 89 % -2.88 C
2054 24-02-2019 03:05:00 -1.4 C 89 % -2.97 C
2055 24-02-2019 03:10:00 -1.4 C 89 % -2.97 C
2056 24-02-2019 03:15:00 -1.4 C 89 % -2.97 C
2057 24-02-2019 03:20:00 -1.4 C 89 % -2.97 C
2058 24-02-2019 03:25:00 -1.5 C 89 % -3.07 C
2059 24-02-2019 03:30:00 -1.5 C 89 % -3.07 C
2060 24-02-2019 03:35:00 -1.6 C 89 % -3.17 C
2061 24-02-2019 03:40:00 -1.6 C 89 % -3.17 C
2062 24-02-2019 03:45:00 -1.6 C 89 % -3.17 C
2063 24-02-2019 03:50:00 -1.6 C 90 % -3.02 C
2064 24-02-2019 03:55:00 -1.7 C 90 % -3.12 C
2065 24-02-2019 04:00:00 -1.7 C 90 % -3.12 C
2066 24-02-2019 04:05:00 -1.7 C 90 % -3.12 C
2067 24-02-2019 04:10:00 -1.7 C 90 % -3.12 C
2068 24-02-2019 04:15:00 -1.6 C 90 % -3.02 C
2069 24-02-2019 04:20:00 -1.7 C 90 % -3.12 C
2070 24-02-2019 04:25:00 -1.7 C 90 % -3.12 C
2071 24-02-2019 04:30:00 -1.7 C 90 % -3.12 C
2072 24-02-2019 04:35:00 -1.8 C 90 % -3.22 C
2073 24-02-2019 04:40:00 -1.8 C 90 % -3.22 C
2074 24-02-2019 04:45:00 -1.8 C 90 % -3.22 C
2075 24-02-2019 04:50:00 -1.8 C 90 % -3.22 C
Sensor: Nr:Datum:Temp:Feuchte:Taupunkt:
Aussen-T/F 2076 24-02-2019 04:55:00 -1.8 C 90 % -3.22 C
2077 24-02-2019 05:00:00 -1.8 C 90 % -3.22 C
2078 24-02-2019 05:05:00 -1.8 C 90 % -3.22 C
2079 24-02-2019 05:10:00 -1.8 C 90 % -3.22 C
2080 24-02-2019 05:15:00 -1.8 C 90 % -3.22 C
2081 24-02-2019 05:20:00 -1.8 C 90 % -3.22 C
2082 24-02-2019 05:25:00 -1.9 C 90 % -3.32 C
2083 24-02-2019 05:30:00 -1.9 C 90 % -3.32 C
2084 24-02-2019 05:35:00 -1.9 C 90 % -3.32 C
2085 24-02-2019 05:40:00 -2 C 90 % -3.42 C
2086 24-02-2019 05:45:00 -2 C 90 % -3.42 C
2087 24-02-2019 05:50:00 -1.9 C 90 % -3.32 C
2088 24-02-2019 05:55:00 -1.9 C 90 % -3.32 C
2089 24-02-2019 06:00:00 -1.9 C 90 % -3.32 C
2090 24-02-2019 06:05:00 -1.9 C 90 % -3.32 C
2091 24-02-2019 06:10:00 -2 C 90 % -3.42 C
2092 24-02-2019 06:15:00 -2 C 90 % -3.42 C
2093 24-02-2019 06:20:00 -2.1 C 90 % -3.52 C
2094 24-02-2019 06:25:00 -2.1 C 90 % -3.52 C
2095 24-02-2019 06:30:00 -2.1 C 91 % -3.37 C
2096 24-02-2019 06:35:00 -2.1 C 91 % -3.37 C
2097 24-02-2019 06:40:00 -2.1 C 91 % -3.37 C
2098 24-02-2019 06:45:00 -2.1 C 91 % -3.37 C
2099 24-02-2019 06:50:00 -2.2 C 91 % -3.47 C
2100 24-02-2019 06:55:00 -2.2 C 91 % -3.47 C
Sensor: Nr:Datum:Temp:Feuchte:Taupunkt:
Aussen-T/F 2101 24-02-2019 07:00:00 -2.2 C 91 % -3.47 C
2102 24-02-2019 07:05:00 -2.3 C 91 % -3.57 C
2103 24-02-2019 07:10:00 -2.3 C 91 % -3.57 C
2104 24-02-2019 07:15:00 -2.3 C 91 % -3.57 C
2105 24-02-2019 07:20:00 -2.4 C 91 % -3.66 C
2106 24-02-2019 07:25:00 -2.4 C 91 % -3.66 C
2107 24-02-2019 07:30:00 -2.4 C 91 % -3.66 C
2108 24-02-2019 07:35:00 -2.4 C 91 % -3.66 C
2109 24-02-2019 07:40:00 -2.4 C 91 % -3.66 C
2110 24-02-2019 07:45:00 -2.4 C 92 % -3.52 C
2111 24-02-2019 07:50:00 -2.4 C 92 % -3.52 C
2112 24-02-2019 07:55:00 -2.4 C 92 % -3.52 C
2113 24-02-2019 08:00:00 -2.3 C 92 % -3.42 C
2114 24-02-2019 08:05:00 -2.3 C 92 % -3.42 C
2115 24-02-2019 08:10:00 -2.2 C 92 % -3.32 C
2116 24-02-2019 08:15:00 -2.2 C 92 % -3.32 C
2117 24-02-2019 08:20:00 -2.2 C 92 % -3.32 C
2118 24-02-2019 08:25:00 -2.1 C 92 % -3.22 C
2119 24-02-2019 08:30:00 -2.1 C 92 % -3.22 C
2120 24-02-2019 08:35:00 -2 C 92 % -3.12 C
2121 24-02-2019 08:40:00 -2 C 92 % -3.12 C
2122 24-02-2019 08:45:00 -2 C 92 % -3.12 C
2123 24-02-2019 08:50:00 -2 C 92 % -3.12 C
2124 24-02-2019 08:55:00 -1.9 C 92 % -3.02 C
2125 24-02-2019 09:00:00 -1.9 C 92 % -3.02 C
Sensor: Nr:Datum:Temp:Feuchte:Taupunkt:
Aussen-T/F 2126 24-02-2019 09:05:00 -1.8 C 92 % -2.92 C
2127 24-02-2019 09:10:00 -1.8 C 92 % -2.92 C
2128 24-02-2019 09:15:00 -1.7 C 92 % -2.83 C
2129 24-02-2019 09:20:00 -1.6 C 92 % -2.73 C
2130 24-02-2019 09:25:00 -1.6 C 92 % -2.73 C
2131 24-02-2019 09:30:00 -1.5 C 92 % -2.63 C
2132 24-02-2019 09:35:00 -1.4 C 92 % -2.53 C
2133 24-02-2019 09:40:00 -1.3 C 92 % -2.43 C
2134 24-02-2019 09:45:00 -1.2 C 92 % -2.33 C
2135 24-02-2019 09:50:00 -1.1 C 92 % -2.23 C
2136 24-02-2019 09:55:00 -1 C 91 % -2.28 C
2137 24-02-2019 10:00:00 -0.9 C 91 % -2.18 C
2138 24-02-2019 10:05:00 -0.8 C 91 % -2.08 C
2139 24-02-2019 10:10:00 -0.6 C 90 % -2.03 C
2140 24-02-2019 10:15:00 -0.4 C 90 % -1.84 C
2141 24-02-2019 10:20:00 -0.2 C 90 % -1.64 C
2142 24-02-2019 10:25:00 0 C 89 % -1.59 C
2143 24-02-2019 10:30:00 0.3 C 89 % -1.29 C
2144 24-02-2019 10:35:00 0.7 C 88 % -1.05 C
2145 24-02-2019 10:40:00 1 C 88 % -0.76 C
2146 24-02-2019 10:45:00 1.4 C 87 % -0.52 C
2147 24-02-2019 10:50:00 1.7 C 86 % -0.38 C
2148 24-02-2019 10:55:00 2.2 C 85 % -0.05 C
2149 24-02-2019 11:00:00 2.6 C 83 % 0.01 C
2150 24-02-2019 11:05:00 2.9 C 82 % 0.14 C
Sensor: Nr:Datum:Temp:Feuchte:Taupunkt:
Aussen-T/F 2151 24-02-2019 11:10:00 3.2 C 82 % 0.43 C
2152 24-02-2019 11:15:00 3.4 C 81 % 0.46 C
2153 24-02-2019 11:20:00 3.7 C 80 % 0.58 C
2154 24-02-2019 11:25:00 3.9 C 79 % 0.6 C
2155 24-02-2019 11:30:00 4.2 C 76 % 0.36 C
2156 24-02-2019 11:35:00 4.6 C 75 % 0.56 C
2157 24-02-2019 11:40:00 4.8 C 76 % 0.94 C
2158 24-02-2019 11:45:00 5.1 C 74 % 0.86 C
2159 24-02-2019 11:50:00 5.3 C 74 % 1.05 C
2160 24-02-2019 11:55:00 5.4 C 73 % 0.96 C
2161 24-02-2019 12:00:00 5.6 C 73 % 1.15 C
2162 24-02-2019 12:05:00 5.7 C 72 % 1.06 C
2163 24-02-2019 12:10:00 5.9 C 72 % 1.25 C
2164 24-02-2019 12:15:00 6.3 C 70 % 1.24 C
2165 24-02-2019 12:20:00 6.6 C 69 % 1.33 C
2166 24-02-2019 12:25:00 6.9 C 68 % 1.41 C
2167 24-02-2019 12:30:00 7.4 C 67 % 1.69 C
2168 24-02-2019 12:35:00 8.1 C 66 % 2.14 C
2169 24-02-2019 12:40:00 8.6 C 63 % 1.97 C
2170 24-02-2019 12:45:00 8.8 C 58 % 1 C
2171 24-02-2019 12:50:00 9.1 C 58 % 1.29 C
2172 24-02-2019 12:55:00 9.2 C 57 % 1.14 C
2173 24-02-2019 13:00:00 9.2 C 55 % 0.64 C
2174 24-02-2019 13:05:00 9.3 C 49 % -0.85 C
2175 24-02-2019 13:10:00 9.4 C 48 % -1.04 C
Sensor: Nr:Datum:Temp:Feuchte:Taupunkt:
Aussen-T/F 2176 24-02-2019 13:15:00 9.7 C 46 % -1.34 C
2177 24-02-2019 13:20:00 9.9 C 42 % -2.39 C
2178 24-02-2019 13:25:00 10.3 C 45 % -1.1 C
2179 24-02-2019 13:30:00 10.6 C 44 % -1.13 C
2180 24-02-2019 13:35:00 10.9 C 44 % -0.86 C
2181 24-02-2019 13:40:00 11.2 C 40 % -1.88 C
2182 24-02-2019 13:45:00 11.4 C 40 % -1.7 C
2183 24-02-2019 13:50:00 11.7 C 40 % -1.43 C
2184 24-02-2019 13:55:00 11.9 C 37 % -2.31 C
2185 24-02-2019 14:00:00 11.9 C 35 % -3.05 C
2186 24-02-2019 14:05:00 11.9 C 36 % -2.68 C
2187 24-02-2019 14:10:00 11.9 C 36 % -2.68 C
2188 24-02-2019 14:15:00 11.9 C 36 % -2.68 C
2189 24-02-2019 14:20:00 11.9 C 38 % -1.95 C
2190 24-02-2019 14:25:00 11.8 C 37 % -2.4 C
2191 24-02-2019 14:30:00 11.8 C 37 % -2.4 C
2192 24-02-2019 14:35:00 11.8 C 38 % -2.04 C
2193 24-02-2019 14:40:00 11.8 C 40 % -1.34 C
2194 24-02-2019 14:45:00 11.9 C 36 % -2.68 C
2195 24-02-2019 14:50:00 12 C 35 % -2.97 C
2196 24-02-2019 14:55:00 12.1 C 34 % -3.27 C
2197 24-02-2019 15:00:00 12.2 C 36 % -2.41 C
2198 24-02-2019 15:05:00 12.3 C 35 % -2.7 C
2199 24-02-2019 15:10:00 12.4 C 35 % -2.61 C
2200 24-02-2019 15:15:00 12.4 C 35 % -2.61 C
Sensor: Nr:Datum:Temp:Feuchte:Taupunkt:
Aussen-T/F 2201 24-02-2019 15:20:00 12.5 C 34 % -2.91 C
2202 24-02-2019 15:25:00 12.6 C 36 % -2.06 C
2203 24-02-2019 15:30:00 12.6 C 39 % -0.97 C
2204 24-02-2019 15:35:00 12.6 C 44 % 0.69 C
2205 24-02-2019 15:40:00 12.4 C 42 % -0.14 C
2206 24-02-2019 15:45:00 12.4 C 44 % 0.5 C
2207 24-02-2019 15:50:00 12.3 C 44 % 0.41 C
2208 24-02-2019 15:55:00 12.3 C 44 % 0.41 C
2209 24-02-2019 16:00:00 12.3 C 45 % 0.72 C
2210 24-02-2019 16:05:00 12.2 C 46 % 0.94 C
2211 24-02-2019 16:10:00 12.3 C 41 % -0.56 C
2212 24-02-2019 16:15:00 12.4 C 44 % 0.5 C
2213 24-02-2019 16:20:00 12.3 C 45 % 0.72 C
2214 24-02-2019 16:25:00 12.2 C 44 % 0.32 C
2215 24-02-2019 16:30:00 11.9 C 46 % 0.66 C
2216 24-02-2019 16:35:00 11.6 C 47 % 0.69 C
2217 24-02-2019 16:40:00 11.3 C 48 % 0.7 C
2218 24-02-2019 16:45:00 11.2 C 50 % 1.18 C
2219 24-02-2019 16:50:00 11.1 C 51 % 1.36 C
2220 24-02-2019 16:55:00 10.9 C 51 % 1.17 C
2221 24-02-2019 17:00:00 10.8 C 52 % 1.35 C
2222 24-02-2019 17:05:00 10.7 C 52 % 1.26 C
2223 24-02-2019 17:10:00 10.7 C 52 % 1.26 C
2224 24-02-2019 17:15:00 10.5 C 52 % 1.07 C
2225 24-02-2019 17:20:00 10.4 C 52 % 0.98 C
Sensor: Nr:Datum:Temp:Feuchte:Taupunkt:
Aussen-T/F 2226 24-02-2019 17:25:00 10.3 C 52 % 0.89 C
2227 24-02-2019 17:30:00 10.3 C 52 % 0.89 C
2228 24-02-2019 17:35:00 10.3 C 52 % 0.89 C
2229 24-02-2019 17:40:00 10.2 C 53 % 1.06 C
2230 24-02-2019 17:45:00 10 C 53 % 0.87 C
2231 24-02-2019 17:50:00 9.8 C 53 % 0.69 C
2232 24-02-2019 17:55:00 9.6 C 54 % 0.76 C
2233 24-02-2019 18:00:00 9.3 C 55 % 0.74 C
2234 24-02-2019 18:05:00 9.1 C 56 % 0.8 C
2235 24-02-2019 18:10:00 8.8 C 56 % 0.52 C
2236 24-02-2019 18:15:00 8.7 C 56 % 0.43 C
2237 24-02-2019 18:20:00 8.6 C 56 % 0.33 C
2238 24-02-2019 18:25:00 8.4 C 56 % 0.15 C
2239 24-02-2019 18:30:00 8.4 C 57 % 0.39 C
2240 24-02-2019 18:35:00 8.3 C 56 % 0.05 C
2241 24-02-2019 18:40:00 8.2 C 57 % 0.2 C
2242 24-02-2019 18:45:00 8 C 58 % 0.25 C
2243 24-02-2019 18:50:00 7.8 C 59 % 0.3 C
2244 24-02-2019 18:55:00 7.7 C 58 % -0.03 C
2245 24-02-2019 19:00:00 7.6 C 59 % 0.11 C
2246 24-02-2019 19:05:00 7.4 C 59 % -0.07 C
2247 24-02-2019 19:10:00 7.2 C 60 % -0.03 C
2248 24-02-2019 19:15:00 7.2 C 60 % -0.03 C
2249 24-02-2019 19:20:00 7.1 C 59 % -0.36 C
2250 24-02-2019 19:25:00 7 C 62 % 0.23 C
Sensor: Nr:Datum:Temp:Feuchte:Taupunkt:
Aussen-T/F 2251 24-02-2019 19:30:00 6.8 C 61 % -0.18 C
2252 24-02-2019 19:35:00 6.7 C 61 % -0.28 C
2253 24-02-2019 19:40:00 6.6 C 62 % -0.15 C
2254 24-02-2019 19:45:00 6.4 C 62 % -0.34 C
2255 24-02-2019 19:50:00 6.3 C 64 % 0 C
2256 24-02-2019 19:55:00 6.1 C 64 % -0.19 C
2257 24-02-2019 20:00:00 5.9 C 62 % -0.81 C
2258 24-02-2019 20:05:00 5.8 C 65 % -0.26 C
2259 24-02-2019 20:10:00 5.7 C 64 % -0.56 C
2260 24-02-2019 20:15:00 5.5 C 64 % -0.75 C
2261 24-02-2019 20:20:00 5.2 C 65 % -0.83 C
2262 24-02-2019 20:25:00 4.9 C 67 % -0.7 C
2263 24-02-2019 20:30:00 4.6 C 69 % -0.58 C
2264 24-02-2019 20:35:00 4.4 C 68 % -0.98 C
2265 24-02-2019 20:40:00 4.3 C 67 % -1.27 C
2266 24-02-2019 20:45:00 4.4 C 68 % -0.98 C
2267 24-02-2019 20:50:00 4.3 C 68 % -1.07 C
2268 24-02-2019 20:55:00 4.2 C 70 % -0.77 C
2269 24-02-2019 21:00:00 4.1 C 71 % -0.67 C
2270 24-02-2019 21:05:00 3.9 C 70 % -1.06 C
2271 24-02-2019 21:10:00 3.8 C 71 % -0.96 C
2272 24-02-2019 21:15:00 3.7 C 71 % -1.06 C
2273 24-02-2019 21:20:00 3.7 C 71 % -1.06 C
2274 24-02-2019 21:25:00 3.5 C 72 % -1.06 C
2275 24-02-2019 21:30:00 3.3 C 71 % -1.44 C
Sensor: Nr:Datum:Temp:Feuchte:Taupunkt:
Aussen-T/F 2276 24-02-2019 21:35:00 3.1 C 72 % -1.45 C
2277 24-02-2019 21:40:00 2.9 C 73 % -1.45 C
2278 24-02-2019 21:45:00 2.8 C 73 % -1.55 C
2279 24-02-2019 21:50:00 2.8 C 72 % -1.73 C
2280 24-02-2019 21:55:00 2.8 C 71 % -1.92 C
2281 24-02-2019 22:00:00 2.8 C 71 % -1.92 C
2282 24-02-2019 22:05:00 2.8 C 74 % -1.36 C
2283 24-02-2019 22:10:00 2.6 C 76 % -1.19 C
2284 24-02-2019 22:15:00 2.5 C 77 % -1.11 C
2285 24-02-2019 22:20:00 2.4 C 76 % -1.39 C
2286 24-02-2019 22:25:00 2.4 C 76 % -1.39 C
2287 24-02-2019 22:30:00 2.4 C 74 % -1.75 C
2288 24-02-2019 22:35:00 2.5 C 74 % -1.65 C
2289 24-02-2019 22:40:00 2.6 C 74 % -1.56 C
2290 24-02-2019 22:45:00 2.6 C 74 % -1.56 C
2291 24-02-2019 22:50:00 2.5 C 74 % -1.65 C
2292 24-02-2019 22:55:00 2.4 C 74 % -1.75 C
2293 24-02-2019 23:00:00 2.2 C 75 % -1.76 C
2294 24-02-2019 23:05:00 2.1 C 76 % -1.68 C
2295 24-02-2019 23:10:00 1.9 C 77 % -1.69 C
2296 24-02-2019 23:15:00 1.7 C 78 % -1.71 C
2297 24-02-2019 23:20:00 1.6 C 79 % -1.64 C
2298 24-02-2019 23:25:00 1.5 C 79 % -1.74 C
2299 24-02-2019 23:30:00 1.6 C 78 % -1.81 C
2300 24-02-2019 23:35:00 1.7 C 77 % -1.89 C
Sensor: Nr:Datum:Temp:Feuchte:Taupunkt:
Aussen-T/F 2301 24-02-2019 23:40:00 1.8 C 77 % -1.79 C
2302 24-02-2019 23:45:00 1.8 C 77 % -1.79 C
2303 24-02-2019 23:50:00 1.9 C 77 % -1.69 C
2304 24-02-2019 23:55:00 2 C 76 % -1.77 C
2305 25-02-2019 00:00:00 1.8 C 76 % -1.97 C
2306 25-02-2019 00:05:00 1.8 C 77 % -1.79 C
2307 25-02-2019 00:10:00 1.7 C 77 % -1.89 C
2308 25-02-2019 00:15:00 1.4 C 77 % -2.18 C
2309 25-02-2019 00:20:00 1.3 C 78 % -2.1 C
2310 25-02-2019 00:25:00 1.2 C 79 % -2.03 C
2311 25-02-2019 00:30:00 1.1 C 80 % -1.96 C
2312 25-02-2019 00:35:00 0.9 C 80 % -2.15 C
2313 25-02-2019 00:40:00 0.8 C 80 % -2.25 C
2314 25-02-2019 00:45:00 0.7 C 81 % -2.18 C
2315 25-02-2019 00:50:00 0.7 C 81 % -2.18 C
2316 25-02-2019 00:55:00 0.7 C 81 % -2.18 C
2317 25-02-2019 01:00:00 1 C 81 % -1.88 C
2318 25-02-2019 01:05:00 1.2 C 80 % -1.86 C
2319 25-02-2019 01:10:00 1.3 C 80 % -1.76 C
2320 25-02-2019 01:15:00 1.1 C 80 % -1.96 C
2321 25-02-2019 01:20:00 0.9 C 81 % -1.98 C
2322 25-02-2019 01:25:00 0.9 C 81 % -1.98 C
2323 25-02-2019 01:30:00 0.9 C 81 % -1.98 C
2324 25-02-2019 01:35:00 1 C 81 % -1.88 C
2325 25-02-2019 01:40:00 0.9 C 81 % -1.98 C
Sensor: Nr:Datum:Temp:Feuchte:Taupunkt:
Aussen-T/F 2326 25-02-2019 01:45:00 0.7 C 81 % -2.18 C
2327 25-02-2019 01:50:00 0.6 C 82 % -2.11 C
2328 25-02-2019 01:55:00 0.6 C 83 % -1.95 C
2329 25-02-2019 02:00:00 0.7 C 83 % -1.85 C
2330 25-02-2019 02:05:00 0.6 C 82 % -2.11 C
2331 25-02-2019 02:10:00 0.4 C 82 % -2.3 C
2332 25-02-2019 02:15:00 0.3 C 83 % -2.24 C
2333 25-02-2019 02:20:00 0.2 C 83 % -2.34 C
2334 25-02-2019 02:25:00 0 C 83 % -2.53 C
2335 25-02-2019 02:30:00 -0.1 C 84 % -2.47 C
2336 25-02-2019 02:35:00 -0.1 C 84 % -2.47 C
2337 25-02-2019 02:40:00 -0.2 C 85 % -2.41 C
2338 25-02-2019 02:45:00 -0.2 C 85 % -2.41 C
2339 25-02-2019 02:50:00 -0.1 C 85 % -2.31 C
2340 25-02-2019 02:55:00 0.1 C 85 % -2.11 C
2341 25-02-2019 03:00:00 0.2 C 84 % -2.18 C
2342 25-02-2019 03:05:00 0.3 C 84 % -2.08 C
2343 25-02-2019 03:10:00 0.3 C 84 % -2.08 C
2344 25-02-2019 03:15:00 0.3 C 83 % -2.24 C
2345 25-02-2019 03:20:00 0.2 C 83 % -2.34 C
2346 25-02-2019 03:25:00 0.1 C 83 % -2.44 C
2347 25-02-2019 03:30:00 -0.1 C 83 % -2.63 C
2348 25-02-2019 03:35:00 -0.2 C 84 % -2.57 C
2349 25-02-2019 03:40:00 -0.2 C 85 % -2.41 C
2350 25-02-2019 03:45:00 -0.3 C 85 % -2.51 C
Sensor: Nr:Datum:Temp:Feuchte:Taupunkt:
Aussen-T/F 2351 25-02-2019 03:50:00 -0.3 C 85 % -2.51 C
2352 25-02-2019 03:55:00 -0.4 C 85 % -2.61 C
2353 25-02-2019 04:00:00 -0.5 C 85 % -2.71 C
2354 25-02-2019 04:05:00 -0.5 C 86 % -2.55 C
2355 25-02-2019 04:10:00 -0.5 C 86 % -2.55 C
2356 25-02-2019 04:15:00 -0.5 C 86 % -2.55 C
2357 25-02-2019 04:20:00 -0.6 C 86 % -2.65 C
2358 25-02-2019 04:25:00 -0.6 C 86 % -2.65 C
2359 25-02-2019 04:30:00 -0.6 C 86 % -2.65 C
2360 25-02-2019 04:35:00 -0.6 C 86 % -2.65 C
2361 25-02-2019 04:40:00 -0.6 C 86 % -2.65 C
2362 25-02-2019 04:45:00 -0.7 C 86 % -2.74 C
2363 25-02-2019 04:50:00 -0.7 C 87 % -2.59 C
2364 25-02-2019 04:55:00 -0.6 C 87 % -2.49 C
2365 25-02-2019 05:00:00 -0.6 C 87 % -2.49 C
2366 25-02-2019 05:05:00 -0.6 C 87 % -2.49 C
2367 25-02-2019 05:10:00 -0.6 C 87 % -2.49 C
2368 25-02-2019 05:15:00 -0.6 C 87 % -2.49 C
2369 25-02-2019 05:20:00 -0.7 C 87 % -2.59 C
2370 25-02-2019 05:25:00 -0.8 C 87 % -2.69 C
2371 25-02-2019 05:30:00 -0.8 C 87 % -2.69 C
2372 25-02-2019 05:35:00 -0.8 C 87 % -2.69 C
2373 25-02-2019 05:40:00 -0.9 C 87 % -2.79 C
2374 25-02-2019 05:45:00 -0.8 C 88 % -2.53 C
2375 25-02-2019 05:50:00 -0.7 C 88 % -2.44 C
Sensor: Nr:Datum:Temp:Feuchte:Taupunkt:
Aussen-T/F 2376 25-02-2019 05:55:00 -0.6 C 88 % -2.34 C
2377 25-02-2019 06:00:00 -0.6 C 88 % -2.34 C
2378 25-02-2019 06:05:00 -0.6 C 87 % -2.49 C
2379 25-02-2019 06:10:00 -0.7 C 87 % -2.59 C
2380 25-02-2019 06:15:00 -0.8 C 87 % -2.69 C
2381 25-02-2019 06:20:00 -0.8 C 88 % -2.53 C
2382 25-02-2019 06:25:00 -0.8 C 88 % -2.53 C
2383 25-02-2019 06:30:00 -0.9 C 88 % -2.63 C
2384 25-02-2019 06:35:00 -1 C 88 % -2.73 C
2385 25-02-2019 06:40:00 -1.1 C 88 % -2.83 C
2386 25-02-2019 06:45:00 -1.1 C 88 % -2.83 C
2387 25-02-2019 06:50:00 -1.1 C 89 % -2.68 C
2388 25-02-2019 06:55:00 -0.9 C 89 % -2.48 C
2389 25-02-2019 07:00:00 -0.9 C 88 % -2.63 C
2390 25-02-2019 07:05:00 -1 C 88 % -2.73 C
2391 25-02-2019 07:10:00 -1.1 C 88 % -2.83 C
2392 25-02-2019 07:15:00 -1.1 C 88 % -2.83 C
2393 25-02-2019 07:20:00 -1.2 C 88 % -2.93 C
2394 25-02-2019 07:25:00 -1.2 C 88 % -2.93 C
2395 25-02-2019 07:30:00 -1.3 C 88 % -3.03 C
2396 25-02-2019 07:35:00 -1.3 C 88 % -3.03 C
2397 25-02-2019 07:40:00 -1.3 C 88 % -3.03 C
2398 25-02-2019 07:45:00 -1.4 C 88 % -3.13 C
2399 25-02-2019 07:50:00 -1.4 C 89 % -2.97 C
2400 25-02-2019 07:55:00 -1.4 C 89 % -2.97 C
Sensor: Nr:Datum:Temp:Feuchte:Taupunkt:
Aussen-T/F 2401 25-02-2019 08:00:00 -1.4 C 89 % -2.97 C
2402 25-02-2019 08:05:00 -1.3 C 90 % -2.73 C
2403 25-02-2019 08:10:00 -1.2 C 90 % -2.63 C
2404 25-02-2019 08:15:00 -1.2 C 90 % -2.63 C
2405 25-02-2019 08:20:00 -1.2 C 89 % -2.78 C
2406 25-02-2019 08:25:00 -1.3 C 89 % -2.88 C
2407 25-02-2019 08:30:00 -1.2 C 90 % -2.63 C
2408 25-02-2019 08:35:00 -1.2 C 90 % -2.63 C
2409 25-02-2019 08:40:00 -1.1 C 90 % -2.53 C
2410 25-02-2019 08:45:00 -1.1 C 90 % -2.53 C
2411 25-02-2019 08:50:00 -1.1 C 90 % -2.53 C
2412 25-02-2019 08:55:00 -1.1 C 90 % -2.53 C
2413 25-02-2019 09:00:00 -0.9 C 90 % -2.33 C
2414 25-02-2019 09:05:00 -0.9 C 89 % -2.48 C
2415 25-02-2019 09:10:00 -0.9 C 89 % -2.48 C
2416 25-02-2019 09:15:00 -0.9 C 89 % -2.48 C
2417 25-02-2019 09:20:00 -0.8 C 89 % -2.38 C
2418 25-02-2019 09:25:00 -0.8 C 89 % -2.38 C
2419 25-02-2019 09:30:00 -0.7 C 89 % -2.28 C
2420 25-02-2019 09:35:00 -0.6 C 89 % -2.18 C
2421 25-02-2019 09:40:00 -0.6 C 89 % -2.18 C
2422 25-02-2019 09:45:00 -0.5 C 88 % -2.24 C
2423 25-02-2019 09:50:00 -0.4 C 88 % -2.14 C
2424 25-02-2019 09:55:00 -0.3 C 88 % -2.04 C
2425 25-02-2019 10:00:00 -0.3 C 88 % -2.04 C
Sensor: Nr:Datum:Temp:Feuchte:Taupunkt:
Aussen-T/F 2426 25-02-2019 10:05:00 -0.2 C 88 % -1.94 C
2427 25-02-2019 10:10:00 0 C 88 % -1.74 C
2428 25-02-2019 10:15:00 0.1 C 87 % -1.8 C
2429 25-02-2019 10:20:00 0.3 C 87 % -1.6 C
2430 25-02-2019 10:25:00 0.5 C 87 % -1.41 C
2431 25-02-2019 10:30:00 0.7 C 88 % -1.05 C
2432 25-02-2019 10:35:00 1 C 87 % -0.91 C
2433 25-02-2019 10:40:00 1.3 C 87 % -0.62 C
2434 25-02-2019 10:45:00 1.7 C 87 % -0.23 C
2435 25-02-2019 10:50:00 2.1 C 86 % 0.01 C
2436 25-02-2019 10:55:00 2.6 C 85 % 0.34 C
2437 25-02-2019 11:00:00 2.9 C 82 % 0.14 C
2438 25-02-2019 11:05:00 3.3 C 81 % 0.36 C
2439 25-02-2019 11:10:00 3.7 C 82 % 0.92 C
2440 25-02-2019 11:15:00 3.9 C 79 % 0.6 C
2441 25-02-2019 11:20:00 4.3 C 78 % 0.81 C
2442 25-02-2019 11:25:00 4.6 C 77 % 0.92 C
2443 25-02-2019 11:30:00 4.9 C 78 % 1.39 C
2444 25-02-2019 11:35:00 5.1 C 77 % 1.41 C
2445 25-02-2019 11:40:00 5.4 C 77 % 1.7 C
2446 25-02-2019 11:45:00 5.8 C 76 % 1.91 C
2447 25-02-2019 11:50:00 6 C 74 % 1.73 C
2448 25-02-2019 11:55:00 6.2 C 72 % 1.54 C
2449 25-02-2019 12:00:00 6.5 C 72 % 1.83 C
2450 25-02-2019 12:05:00 6.8 C 72 % 2.12 C
Sensor: Nr:Datum:Temp:Feuchte:Taupunkt:
Aussen-T/F 2451 25-02-2019 12:10:00 7.3 C 71 % 2.4 C
2452 25-02-2019 12:15:00 7.7 C 70 % 2.58 C
2453 25-02-2019 12:20:00 8.1 C 69 % 2.77 C
2454 25-02-2019 12:25:00 8.4 C 69 % 3.05 C
2455 25-02-2019 12:30:00 8.9 C 68 % 3.32 C
2456 25-02-2019 12:35:00 9.5 C 66 % 3.47 C
2457 25-02-2019 12:40:00 9.9 C 64 % 3.42 C
2458 25-02-2019 12:45:00 10.3 C 62 % 3.35 C
2459 25-02-2019 12:50:00 10.5 C 62 % 3.54 C
2460 25-02-2019 12:55:00 10.6 C 61 % 3.4 C
2461 25-02-2019 13:00:00 10.7 C 61 % 3.5 C
2462 25-02-2019 13:05:00 11 C 62 % 4.01 C
2463 25-02-2019 13:10:00 11.3 C 60 % 3.83 C
2464 25-02-2019 13:15:00 11.6 C 53 % 2.36 C
2465 25-02-2019 13:20:00 11.9 C 54 % 2.9 C
2466 25-02-2019 13:25:00 12.3 C 47 % 1.33 C
2467 25-02-2019 13:30:00 12.7 C 51 % 2.84 C
2468 25-02-2019 13:35:00 13.1 C 50 % 2.93 C
2469 25-02-2019 13:40:00 13.4 C 53 % 4.03 C
2470 25-02-2019 13:45:00 13.8 C 51 % 3.85 C
2471 25-02-2019 13:50:00 14.2 C 50 % 3.94 C
2472 25-02-2019 13:55:00 14.6 C 48 % 3.73 C
2473 25-02-2019 14:00:00 14.8 C 49 % 4.2 C
2474 25-02-2019 14:05:00 14.9 C 48 % 4 C
2475 25-02-2019 14:10:00 15 C 49 % 4.39 C
Sensor: Nr:Datum:Temp:Feuchte:Taupunkt:
Aussen-T/F 2476 25-02-2019 14:15:00 15.1 C 48 % 4.18 C
2477 25-02-2019 14:20:00 15 C 45 % 3.18 C
2478 25-02-2019 14:25:00 14.9 C 45 % 3.09 C
2479 25-02-2019 14:30:00 14.7 C 46 % 3.22 C
2480 25-02-2019 14:35:00 14.6 C 46 % 3.12 C
2481 25-02-2019 14:40:00 14.4 C 44 % 2.32 C
2482 25-02-2019 14:45:00 14.4 C 46 % 2.94 C
2483 25-02-2019 14:50:00 14.5 C 46 % 3.03 C
2484 25-02-2019 14:55:00 14.6 C 48 % 3.73 C
2485 25-02-2019 15:00:00 14.5 C 48 % 3.63 C
2486 25-02-2019 15:05:00 14.5 C 46 % 3.03 C
2487 25-02-2019 15:10:00 14.5 C 47 % 3.34 C
2488 25-02-2019 15:15:00 14.4 C 50 % 4.12 C
2489 25-02-2019 15:20:00 14.4 C 47 % 3.25 C
2490 25-02-2019 15:25:00 14.3 C 49 % 3.74 C
2491 25-02-2019 15:30:00 14.2 C 50 % 3.94 C
2492 25-02-2019 15:35:00 14 C 51 % 4.04 C
2493 25-02-2019 15:40:00 13.9 C 52 % 4.22 C
2494 25-02-2019 15:45:00 13.8 C 52 % 4.13 C
2495 25-02-2019 15:50:00 13.8 C 52 % 4.13 C
2496 25-02-2019 15:55:00 13.8 C 51 % 3.85 C
2497 25-02-2019 16:00:00 13.9 C 51 % 3.94 C
2498 25-02-2019 16:05:00 13.9 C 51 % 3.94 C
2499 25-02-2019 16:10:00 14.1 C 51 % 4.13 C
2500 25-02-2019 16:15:00 14.1 C 46 % 2.67 C
Sensor: Nr:Datum:Temp:Feuchte:Taupunkt:
Aussen-T/F 2501 25-02-2019 16:20:00 14.3 C 51 % 4.31 C
2502 25-02-2019 16:25:00 14.5 C 48 % 3.63 C
2503 25-02-2019 16:30:00 14.7 C 50 % 4.4 C
2504 25-02-2019 16:35:00 14.7 C 50 % 4.4 C
2505 25-02-2019 16:40:00 14.6 C 48 % 3.73 C
2506 25-02-2019 16:45:00 14.6 C 49 % 4.02 C
2507 25-02-2019 16:50:00 14.6 C 50 % 4.31 C
2508 25-02-2019 16:55:00 14.5 C 50 % 4.21 C
2509 25-02-2019 17:00:00 14.4 C 51 % 4.4 C
2510 25-02-2019 17:05:00 14.2 C 51 % 4.22 C
2511 25-02-2019 17:10:00 14.1 C 52 % 4.4 C
2512 25-02-2019 17:15:00 13.9 C 52 % 4.22 C
2513 25-02-2019 17:20:00 13.7 C 53 % 4.31 C
2514 25-02-2019 17:25:00 13.6 C 53 % 4.21 C
2515 25-02-2019 17:30:00 13.6 C 54 % 4.48 C
2516 25-02-2019 17:35:00 13.6 C 53 % 4.21 C
2517 25-02-2019 17:40:00 13.4 C 53 % 4.03 C
2518 25-02-2019 17:45:00 13.3 C 54 % 4.2 C
2519 25-02-2019 17:50:00 13.1 C 54 % 4.01 C
2520 25-02-2019 17:55:00 12.8 C 55 % 4 C
2521 25-02-2019 18:00:00 12.6 C 56 % 4.07 C
2522 25-02-2019 18:05:00 12.2 C 56 % 3.69 C
2523 25-02-2019 18:10:00 11.8 C 58 % 3.82 C
2524 25-02-2019 18:15:00 11.4 C 58 % 3.44 C
2525 25-02-2019 18:20:00 11.2 C 59 % 3.5 C
Sensor: Nr:Datum:Temp:Feuchte:Taupunkt:
Aussen-T/F 2526 25-02-2019 18:25:00 11 C 60 % 3.55 C
2527 25-02-2019 18:30:00 10.8 C 60 % 3.36 C
2528 25-02-2019 18:35:00 10.7 C 61 % 3.5 C
2529 25-02-2019 18:40:00 10.6 C 62 % 3.63 C
2530 25-02-2019 18:45:00 10.4 C 62 % 3.44 C
2531 25-02-2019 18:50:00 10.3 C 63 % 3.58 C
2532 25-02-2019 18:55:00 10.2 C 63 % 3.48 C
2533 25-02-2019 19:00:00 10 C 63 % 3.29 C
2534 25-02-2019 19:05:00 9.8 C 64 % 3.32 C
2535 25-02-2019 19:10:00 9.6 C 65 % 3.35 C
2536 25-02-2019 19:15:00 9.4 C 66 % 3.38 C
2537 25-02-2019 19:20:00 9.2 C 67 % 3.4 C
2538 25-02-2019 19:25:00 8.9 C 68 % 3.32 C
2539 25-02-2019 19:30:00 8.8 C 68 % 3.23 C
2540 25-02-2019 19:35:00 8.8 C 68 % 3.23 C
2541 25-02-2019 19:40:00 8.8 C 68 % 3.23 C
2542 25-02-2019 19:45:00 8.7 C 68 % 3.13 C
2543 25-02-2019 19:50:00 8.6 C 68 % 3.04 C
2544 25-02-2019 19:55:00 8.3 C 69 % 2.96 C
2545 25-02-2019 20:00:00 8.1 C 70 % 2.97 C
2546 25-02-2019 20:05:00 8 C 71 % 3.07 C
2547 25-02-2019 20:10:00 7.8 C 71 % 2.88 C
2548 25-02-2019 20:15:00 7.4 C 72 % 2.69 C
2549 25-02-2019 20:20:00 7.1 C 72 % 2.4 C
2550 25-02-2019 20:25:00 6.9 C 73 % 2.4 C
Sensor: Nr:Datum:Temp:Feuchte:Taupunkt:
Aussen-T/F 2551 25-02-2019 20:30:00 6.8 C 74 % 2.5 C
2552 25-02-2019 20:35:00 6.8 C 75 % 2.69 C
2553 25-02-2019 20:40:00 6.6 C 74 % 2.31 C
2554 25-02-2019 20:45:00 6.4 C 74 % 2.11 C
2555 25-02-2019 20:50:00 6.3 C 74 % 2.02 C
2556 25-02-2019 20:55:00 6.3 C 75 % 2.2 C
2557 25-02-2019 21:00:00 6.3 C 75 % 2.2 C
2558 25-02-2019 21:05:00 6.1 C 75 % 2.01 C
2559 25-02-2019 21:10:00 5.9 C 75 % 1.82 C
2560 25-02-2019 21:15:00 5.9 C 75 % 1.82 C
2561 25-02-2019 21:20:00 5.8 C 75 % 1.72 C
2562 25-02-2019 21:25:00 5.6 C 76 % 1.71 C
2563 25-02-2019 21:30:00 5.4 C 77 % 1.7 C
2564 25-02-2019 21:35:00 5.3 C 77 % 1.6 C
2565 25-02-2019 21:40:00 5.2 C 78 % 1.69 C
2566 25-02-2019 21:45:00 5.2 C 78 % 1.69 C
2567 25-02-2019 21:50:00 5.1 C 79 % 1.77 C
2568 25-02-2019 21:55:00 5.1 C 79 % 1.77 C
2569 25-02-2019 22:00:00 5 C 79 % 1.67 C
2570 25-02-2019 22:05:00 5 C 78 % 1.49 C
2571 25-02-2019 22:10:00 4.9 C 78 % 1.39 C
2572 25-02-2019 22:15:00 4.8 C 79 % 1.47 C
2573 25-02-2019 22:20:00 4.8 C 79 % 1.47 C
2574 25-02-2019 22:25:00 4.7 C 79 % 1.38 C
2575 25-02-2019 22:30:00 4.5 C 79 % 1.18 C
Sensor: Nr:Datum:Temp:Feuchte:Taupunkt:
Aussen-T/F 2576 25-02-2019 22:35:00 4.4 C 80 % 1.26 C
2577 25-02-2019 22:40:00 4.2 C 80 % 1.07 C
2578 25-02-2019 22:45:00 4.2 C 80 % 1.07 C
2579 25-02-2019 22:50:00 4.1 C 80 % 0.97 C
2580 25-02-2019 22:55:00 4 C 82 % 1.21 C
2581 25-02-2019 23:00:00 3.9 C 82 % 1.12 C
2582 25-02-2019 23:05:00 3.8 C 83 % 1.19 C
2583 25-02-2019 23:10:00 3.8 C 83 % 1.19 C
2584 25-02-2019 23:15:00 3.7 C 82 % 0.92 C
2585 25-02-2019 23:20:00 3.4 C 82 % 0.63 C
2586 25-02-2019 23:25:00 3.2 C 83 % 0.6 C
2587 25-02-2019 23:30:00 3.1 C 84 % 0.67 C
2588 25-02-2019 23:35:00 3 C 84 % 0.57 C
2589 25-02-2019 23:40:00 2.8 C 84 % 0.37 C
2590 25-02-2019 23:45:00 2.7 C 85 % 0.44 C
2591 25-02-2019 23:50:00 2.8 C 86 % 0.7 C
2592 25-02-2019 23:55:00 2.8 C 85 % 0.54 C
2593 26-02-2019 00:00:00 2.7 C 85 % 0.44 C
2594 26-02-2019 00:05:00 2.8 C 86 % 0.7 C
2595 26-02-2019 00:10:00 2.7 C 85 % 0.44 C
2596 26-02-2019 00:15:00 2.6 C 86 % 0.5 C
2597 26-02-2019 00:20:00 2.6 C 86 % 0.5 C
2598 26-02-2019 00:25:00 2.6 C 86 % 0.5 C
2599 26-02-2019 00:30:00 2.6 C 87 % 0.66 C
2600 26-02-2019 00:35:00 2.5 C 86 % 0.4 C
Sensor: Nr:Datum:Temp:Feuchte:Taupunkt:
Aussen-T/F 2601 26-02-2019 00:40:00 2.3 C 85 % 0.04 C
2602 26-02-2019 00:45:00 2 C 86 % -0.09 C
2603 26-02-2019 00:50:00 1.9 C 87 % -0.03 C
2604 26-02-2019 00:55:00 1.8 C 88 % 0.03 C
2605 26-02-2019 01:00:00 1.8 C 89 % 0.19 C
2606 26-02-2019 01:05:00 1.9 C 89 % 0.28 C
2607 26-02-2019 01:10:00 1.9 C 89 % 0.28 C
2608 26-02-2019 01:15:00 1.9 C 88 % 0.13 C
2609 26-02-2019 01:20:00 1.8 C 89 % 0.19 C
2610 26-02-2019 01:25:00 1.9 C 89 % 0.28 C
2611 26-02-2019 01:30:00 1.9 C 89 % 0.28 C
2612 26-02-2019 01:35:00 2.1 C 90 % 0.64 C
2613 26-02-2019 01:40:00 2.2 C 89 % 0.58 C
2614 26-02-2019 01:45:00 2.1 C 88 % 0.33 C
2615 26-02-2019 01:50:00 1.9 C 88 % 0.13 C
2616 26-02-2019 01:55:00 1.8 C 88 % 0.03 C
2617 26-02-2019 02:00:00 1.6 C 89 % -0.01 C
2618 26-02-2019 02:05:00 1.6 C 89 % -0.01 C
2619 26-02-2019 02:10:00 1.7 C 90 % 0.24 C
2620 26-02-2019 02:15:00 1.7 C 90 % 0.24 C
2621 26-02-2019 02:20:00 1.6 C 89 % -0.01 C
2622 26-02-2019 02:25:00 1.4 C 89 % -0.21 C
2623 26-02-2019 02:30:00 1.3 C 89 % -0.31 C
2624 26-02-2019 02:35:00 1.3 C 90 % -0.15 C
2625 26-02-2019 02:40:00 1.2 C 90 % -0.25 C
Sensor: Nr:Datum:Temp:Feuchte:Taupunkt:
Aussen-T/F 2626 26-02-2019 02:45:00 1.3 C 91 % 0 C
2627 26-02-2019 02:50:00 1.1 C 90 % -0.35 C
2628 26-02-2019 02:55:00 0.9 C 89 % -0.7 C
2629 26-02-2019 03:00:00 0.7 C 90 % -0.75 C
2630 26-02-2019 03:05:00 0.6 C 90 % -0.85 C
2631 26-02-2019 03:10:00 0.5 C 90 % -0.95 C
2632 26-02-2019 03:15:00 0.4 C 91 % -0.89 C
2633 26-02-2019 03:20:00 0.5 C 91 % -0.79 C
2634 26-02-2019 03:25:00 0.5 C 91 % -0.79 C
2635 26-02-2019 03:30:00 0.6 C 92 % -0.55 C
2636 26-02-2019 03:35:00 0.8 C 92 % -0.35 C
2637 26-02-2019 03:40:00 0.8 C 92 % -0.35 C
2638 26-02-2019 03:45:00 0.7 C 91 % -0.6 C
2639 26-02-2019 03:50:00 0.7 C 92 % -0.45 C
2640 26-02-2019 03:55:00 0.8 C 92 % -0.35 C
2641 26-02-2019 04:00:00 0.7 C 92 % -0.45 C
2642 26-02-2019 04:05:00 0.4 C 91 % -0.89 C
2643 26-02-2019 04:10:00 0.3 C 92 % -0.84 C
2644 26-02-2019 04:15:00 0.3 C 92 % -0.84 C
2645 26-02-2019 04:20:00 0.4 C 92 % -0.74 C
2646 26-02-2019 04:25:00 0.4 C 92 % -0.74 C
2647 26-02-2019 04:30:00 0.4 C 92 % -0.74 C
2648 26-02-2019 04:35:00 0.3 C 92 % -0.84 C
2649 26-02-2019 04:40:00 0.2 C 92 % -0.94 C
2650 26-02-2019 04:45:00 0.1 C 92 % -1.04 C
Sensor: Nr:Datum:Temp:Feuchte:Taupunkt:
Aussen-T/F 2651 26-02-2019 04:50:00 0.2 C 93 % -0.79 C
2652 26-02-2019 04:55:00 0.2 C 93 % -0.79 C
2653 26-02-2019 05:00:00 0.2 C 93 % -0.79 C
2654 26-02-2019 05:05:00 0.1 C 93 % -0.89 C
2655 26-02-2019 05:10:00 0.1 C 93 % -0.89 C
2656 26-02-2019 05:15:00 0.1 C 93 % -0.89 C
2657 26-02-2019 05:20:00 0 C 93 % -0.99 C
2658 26-02-2019 05:25:00 0.1 C 93 % -0.89 C
2659 26-02-2019 05:30:00 0.2 C 93 % -0.79 C
2660 26-02-2019 05:35:00 0.3 C 93 % -0.7 C
2661 26-02-2019 05:40:00 0.4 C 94 % -0.45 C
2662 26-02-2019 05:45:00 0.4 C 93 % -0.6 C
2663 26-02-2019 05:50:00 0.4 C 93 % -0.6 C
2664 26-02-2019 05:55:00 0.3 C 93 % -0.7 C
2665 26-02-2019 06:00:00 0.2 C 92 % -0.94 C
2666 26-02-2019 06:05:00 -0.1 C 92 % -1.24 C
2667 26-02-2019 06:10:00 -0.2 C 92 % -1.34 C
2668 26-02-2019 06:15:00 -0.3 C 92 % -1.44 C
2669 26-02-2019 06:20:00 -0.3 C 93 % -1.29 C
2670 26-02-2019 06:25:00 -0.4 C 93 % -1.39 C
2671 26-02-2019 06:30:00 -0.4 C 93 % -1.39 C
2672 26-02-2019 06:35:00 -0.4 C 93 % -1.39 C
2673 26-02-2019 06:40:00 -0.4 C 93 % -1.39 C
2674 26-02-2019 06:45:00 -0.6 C 93 % -1.59 C
2675 26-02-2019 06:50:00 -0.5 C 93 % -1.49 C
Sensor: Nr:Datum:Temp:Feuchte:Taupunkt:
Aussen-T/F 2676 26-02-2019 06:55:00 -0.4 C 94 % -1.25 C
2677 26-02-2019 07:00:00 -0.2 C 94 % -1.05 C
2678 26-02-2019 07:05:00 -0.2 C 94 % -1.05 C
2679 26-02-2019 07:10:00 -0.2 C 94 % -1.05 C
2680 26-02-2019 07:15:00 -0.3 C 93 % -1.29 C
2681 26-02-2019 07:20:00 -0.4 C 93 % -1.39 C
2682 26-02-2019 07:25:00 -0.6 C 93 % -1.59 C
2683 26-02-2019 07:30:00 -0.8 C 93 % -1.79 C
2684 26-02-2019 07:35:00 -0.8 C 93 % -1.79 C
2685 26-02-2019 07:40:00 -0.8 C 94 % -1.64 C
2686 26-02-2019 07:45:00 -0.6 C 94 % -1.44 C
2687 26-02-2019 07:50:00 -0.5 C 94 % -1.34 C
2688 26-02-2019 07:55:00 -0.4 C 94 % -1.25 C
2689 26-02-2019 08:00:00 -0.4 C 94 % -1.25 C
2690 26-02-2019 08:05:00 -0.3 C 94 % -1.15 C
2691 26-02-2019 08:10:00 -0.3 C 94 % -1.15 C
2692 26-02-2019 08:15:00 -0.3 C 94 % -1.15 C
2693 26-02-2019 08:20:00 -0.3 C 94 % -1.15 C
2694 26-02-2019 08:25:00 -0.3 C 94 % -1.15 C
2695 26-02-2019 08:30:00 -0.2 C 94 % -1.05 C
2696 26-02-2019 08:35:00 -0.1 C 95 % -0.8 C
2697 26-02-2019 08:40:00 0 C 95 % -0.7 C
2698 26-02-2019 08:45:00 0.2 C 95 % -0.5 C
2699 26-02-2019 08:50:00 0.3 C 95 % -0.4 C
2700 26-02-2019 08:55:00 0.4 C 95 % -0.31 C
Sensor: Nr:Datum:Temp:Feuchte:Taupunkt:
Aussen-T/F 2701 26-02-2019 09:00:00 0.4 C 94 % -0.45 C
2702 26-02-2019 09:05:00 0.4 C 94 % -0.45 C
2703 26-02-2019 09:10:00 0.5 C 94 % -0.35 C
2704 26-02-2019 09:15:00 0.6 C 95 % -0.11 C
2705 26-02-2019 09:20:00 0.7 C 95 % -0.01 C
2706 26-02-2019 09:25:00 0.8 C 95 % 0.09 C
2707 26-02-2019 09:30:00 0.9 C 95 % 0.19 C
2708 26-02-2019 09:35:00 0.9 C 95 % 0.19 C
2709 26-02-2019 09:40:00 0.9 C 95 % 0.19 C
2710 26-02-2019 09:45:00 1.1 C 95 % 0.39 C
2711 26-02-2019 09:50:00 1.2 C 95 % 0.49 C
2712 26-02-2019 09:55:00 1.3 C 95 % 0.59 C
2713 26-02-2019 10:00:00 1.6 C 95 % 0.89 C
2714 26-02-2019 10:05:00 1.7 C 95 % 0.99 C
2715 26-02-2019 10:10:00 1.8 C 95 % 1.09 C
2716 26-02-2019 10:15:00 1.9 C 95 % 1.19 C
2717 26-02-2019 10:20:00 2.1 C 95 % 1.38 C
2718 26-02-2019 10:25:00 2.3 C 95 % 1.58 C
2719 26-02-2019 10:30:00 2.5 C 95 % 1.78 C
2720 26-02-2019 10:35:00 2.9 C 95 % 2.18 C
2721 26-02-2019 10:40:00 3.2 C 94 % 2.33 C
2722 26-02-2019 10:45:00 3.5 C 94 % 2.63 C
2723 26-02-2019 10:50:00 3.8 C 93 % 2.77 C
2724 26-02-2019 10:55:00 4 C 92 % 2.82 C
2725 26-02-2019 11:00:00 4.3 C 91 % 2.96 C
Sensor: Nr:Datum:Temp:Feuchte:Taupunkt:
Aussen-T/F 2726 26-02-2019 11:05:00 4.5 C 90 % 3.01 C
2727 26-02-2019 11:10:00 4.8 C 90 % 3.3 C
2728 26-02-2019 11:15:00 5.1 C 90 % 3.6 C
2729 26-02-2019 11:20:00 5.4 C 90 % 3.89 C
2730 26-02-2019 11:25:00 5.7 C 89 % 4.03 C
2731 26-02-2019 11:30:00 5.9 C 87 % 3.91 C
2732 26-02-2019 11:35:00 6.2 C 85 % 3.87 C
2733 26-02-2019 11:40:00 6.4 C 84 % 3.9 C
2734 26-02-2019 11:45:00 6.7 C 82 % 3.85 C
2735 26-02-2019 11:50:00 6.9 C 81 % 3.87 C
2736 26-02-2019 11:55:00 7.1 C 81 % 4.07 C
2737 26-02-2019 12:00:00 7.3 C 81 % 4.26 C
2738 26-02-2019 12:05:00 7.5 C 80 % 4.28 C
2739 26-02-2019 12:10:00 7.8 C 76 % 3.84 C
2740 26-02-2019 12:15:00 8.3 C 75 % 4.14 C
2741 26-02-2019 12:20:00 8.8 C 73 % 4.24 C
2742 26-02-2019 12:25:00 9.3 C 73 % 4.72 C
2743 26-02-2019 12:30:00 9.8 C 71 % 4.8 C
2744 26-02-2019 12:35:00 10.3 C 69 % 4.87 C
2745 26-02-2019 12:40:00 10.8 C 69 % 5.35 C
2746 26-02-2019 12:45:00 11.2 C 65 % 4.87 C
2747 26-02-2019 12:50:00 11.4 C 68 % 5.71 C
2748 26-02-2019 12:55:00 11.6 C 69 % 6.11 C
2749 26-02-2019 13:00:00 11.7 C 68 % 6 C
2750 26-02-2019 13:05:00 11.9 C 68 % 6.19 C
Sensor: Nr:Datum:Temp:Feuchte:Taupunkt:
Aussen-T/F 2751 26-02-2019 13:10:00 12.3 C 70 % 6.99 C
2752 26-02-2019 13:15:00 12.7 C 69 % 7.17 C
2753 26-02-2019 13:20:00 13.2 C 67 % 7.21 C
2754 26-02-2019 13:25:00 13.7 C 66 % 7.47 C
2755 26-02-2019 13:30:00 14.1 C 66 % 7.85 C
2756 26-02-2019 13:35:00 14.5 C 65 % 8.01 C
2757 26-02-2019 13:40:00 14.9 C 64 % 8.16 C
2758 26-02-2019 13:45:00 15.4 C 61 % 7.93 C
2759 26-02-2019 13:50:00 15.8 C 60 % 8.06 C
2760 26-02-2019 13:55:00 16.1 C 59 % 8.09 C
2761 26-02-2019 14:00:00 16.4 C 58 % 8.12 C
2762 26-02-2019 14:05:00 16.6 C 55 % 7.53 C
2763 26-02-2019 14:10:00 16.7 C 55 % 7.62 C
2764 26-02-2019 14:15:00 16.8 C 54 % 7.45 C
2765 26-02-2019 14:20:00 16.7 C 54 % 7.36 C
2766 26-02-2019 14:25:00 16.4 C 54 % 7.08 C
2767 26-02-2019 14:30:00 16.2 C 54 % 6.89 C
2768 26-02-2019 14:35:00 15.9 C 54 % 6.61 C
2769 26-02-2019 14:40:00 15.7 C 56 % 6.96 C
2770 26-02-2019 14:45:00 15.6 C 56 % 6.86 C
2771 26-02-2019 14:50:00 15.5 C 57 % 7.03 C
2772 26-02-2019 14:55:00 15.4 C 57 % 6.93 C
2773 26-02-2019 15:00:00 15.3 C 55 % 6.32 C
2774 26-02-2019 15:05:00 15.4 C 57 % 6.93 C
2775 26-02-2019 15:10:00 15.5 C 56 % 6.77 C
Sensor: Nr:Datum:Temp:Feuchte:Taupunkt:
Aussen-T/F 2776 26-02-2019 15:15:00 15.5 C 56 % 6.77 C
2777 26-02-2019 15:20:00 15.5 C 55 % 6.51 C
2778 26-02-2019 15:25:00 15.5 C 55 % 6.51 C
2779 26-02-2019 15:30:00 15.4 C 55 % 6.42 C
2780 26-02-2019 15:35:00 15.4 C 54 % 6.15 C
2781 26-02-2019 15:40:00 15.6 C 55 % 6.6 C
2782 26-02-2019 15:45:00 15.6 C 55 % 6.6 C
2783 26-02-2019 15:50:00 15.6 C 55 % 6.6 C
2784 26-02-2019 15:55:00 15.6 C 55 % 6.6 C
2785 26-02-2019 16:00:00 15.6 C 54 % 6.34 C
2786 26-02-2019 16:05:00 15.7 C 54 % 6.43 C
2787 26-02-2019 16:10:00 15.7 C 54 % 6.43 C
2788 26-02-2019 16:15:00 15.7 C 54 % 6.43 C
2789 26-02-2019 16:20:00 15.7 C 55 % 6.69 C
2790 26-02-2019 16:25:00 15.6 C 54 % 6.34 C
2791 26-02-2019 16:30:00 15.5 C 55 % 6.51 C
2792 26-02-2019 16:35:00 15.4 C 56 % 6.68 C
2793 26-02-2019 16:40:00 15.2 C 57 % 6.75 C
2794 26-02-2019 16:45:00 15.1 C 57 % 6.65 C
2795 26-02-2019 16:50:00 15.1 C 58 % 6.91 C
2796 26-02-2019 16:55:00 15 C 58 % 6.81 C
2797 26-02-2019 17:00:00 14.9 C 58 % 6.72 C
2798 26-02-2019 17:05:00 14.9 C 58 % 6.72 C
2799 26-02-2019 17:10:00 14.9 C 58 % 6.72 C
2800 26-02-2019 17:15:00 14.8 C 59 % 6.87 C
Sensor: Nr:Datum:Temp:Feuchte:Taupunkt:
Aussen-T/F 2801 26-02-2019 17:20:00 14.8 C 59 % 6.87 C
2802 26-02-2019 17:25:00 14.9 C 59 % 6.97 C
2803 26-02-2019 17:30:00 14.9 C 58 % 6.72 C
2804 26-02-2019 17:35:00 14.8 C 58 % 6.63 C
2805 26-02-2019 17:40:00 14.8 C 58 % 6.63 C
2806 26-02-2019 17:45:00 14.7 C 59 % 6.78 C
2807 26-02-2019 17:50:00 14.5 C 59 % 6.59 C
2808 26-02-2019 17:55:00 14.2 C 59 % 6.31 C
2809 26-02-2019 18:00:00 13.9 C 60 % 6.27 C
2810 26-02-2019 18:05:00 13.6 C 61 % 6.23 C
2811 26-02-2019 18:10:00 13.3 C 61 % 5.95 C
2812 26-02-2019 18:15:00 13 C 62 % 5.9 C
2813 26-02-2019 18:20:00 12.8 C 63 % 5.94 C
2814 26-02-2019 18:25:00 12.6 C 64 % 5.98 C
2815 26-02-2019 18:30:00 12.3 C 64 % 5.69 C
2816 26-02-2019 18:35:00 12.2 C 64 % 5.6 C
2817 26-02-2019 18:40:00 12.1 C 65 % 5.73 C
2818 26-02-2019 18:45:00 11.9 C 66 % 5.76 C
2819 26-02-2019 18:50:00 11.7 C 66 % 5.57 C
2820 26-02-2019 18:55:00 11.4 C 67 % 5.5 C
2821 26-02-2019 19:00:00 11.3 C 68 % 5.62 C
2822 26-02-2019 19:05:00 11.1 C 68 % 5.43 C
2823 26-02-2019 19:10:00 10.8 C 69 % 5.35 C
2824 26-02-2019 19:15:00 10.7 C 70 % 5.46 C
2825 26-02-2019 19:20:00 10.6 C 71 % 5.57 C
Sensor: Nr:Datum:Temp:Feuchte:Taupunkt:
Aussen-T/F 2826 26-02-2019 19:25:00 10.4 C 71 % 5.38 C
2827 26-02-2019 19:30:00 10.4 C 72 % 5.58 C
2828 26-02-2019 19:35:00 10.3 C 72 % 5.48 C
2829 26-02-2019 19:40:00 10.1 C 72 % 5.29 C
2830 26-02-2019 19:45:00 9.7 C 73 % 5.1 C
2831 26-02-2019 19:50:00 9.4 C 75 % 5.2 C
2832 26-02-2019 19:55:00 9.3 C 75 % 5.1 C
2833 26-02-2019 20:00:00 9.2 C 74 % 4.81 C
2834 26-02-2019 20:05:00 8.8 C 74 % 4.43 C
2835 26-02-2019 20:10:00 8.6 C 75 % 4.43 C
2836 26-02-2019 20:15:00 8.5 C 76 % 4.52 C
2837 26-02-2019 20:20:00 8.4 C 77 % 4.61 C
2838 26-02-2019 20:25:00 8.1 C 77 % 4.32 C
2839 26-02-2019 20:30:00 7.9 C 77 % 4.12 C
2840 26-02-2019 20:35:00 7.9 C 77 % 4.12 C
2841 26-02-2019 20:40:00 7.9 C 77 % 4.12 C
2842 26-02-2019 20:45:00 7.8 C 77 % 4.03 C
2843 26-02-2019 20:50:00 7.7 C 77 % 3.93 C
2844 26-02-2019 20:55:00 7.4 C 78 % 3.82 C
2845 26-02-2019 21:00:00 7.3 C 79 % 3.91 C
2846 26-02-2019 21:05:00 7.2 C 79 % 3.81 C
2847 26-02-2019 21:10:00 7 C 79 % 3.61 C
2848 26-02-2019 21:15:00 6.9 C 80 % 3.7 C
2849 26-02-2019 21:20:00 6.7 C 81 % 3.68 C
2850 26-02-2019 21:25:00 6.8 C 83 % 4.12 C
Sensor: Nr:Datum:Temp:Feuchte:Taupunkt:
Aussen-T/F 2851 26-02-2019 21:30:00 6.8 C 82 % 3.95 C
2852 26-02-2019 21:35:00 6.8 C 81 % 3.77 C
2853 26-02-2019 21:40:00 6.7 C 81 % 3.68 C
2854 26-02-2019 21:45:00 6.6 C 82 % 3.75 C
2855 26-02-2019 21:50:00 6.4 C 82 % 3.56 C
2856 26-02-2019 21:55:00 6.4 C 82 % 3.56 C
2857 26-02-2019 22:00:00 6.3 C 82 % 3.46 C
2858 26-02-2019 22:05:00 6.2 C 83 % 3.53 C
2859 26-02-2019 22:10:00 6.2 C 83 % 3.53 C
2860 26-02-2019 22:15:00 6.2 C 82 % 3.36 C
2861 26-02-2019 22:20:00 5.9 C 82 % 3.07 C
2862 26-02-2019 22:25:00 5.7 C 83 % 3.04 C
2863 26-02-2019 22:30:00 5.6 C 84 % 3.12 C
2864 26-02-2019 22:35:00 5.4 C 84 % 2.92 C
2865 26-02-2019 22:40:00 5.2 C 84 % 2.72 C
2866 26-02-2019 22:45:00 4.9 C 85 % 2.6 C
2867 26-02-2019 22:50:00 4.9 C 86 % 2.76 C
2868 26-02-2019 22:55:00 4.9 C 87 % 2.92 C
2869 26-02-2019 23:00:00 4.8 C 85 % 2.5 C
2870 26-02-2019 23:05:00 4.7 C 86 % 2.56 C
2871 26-02-2019 23:10:00 4.7 C 87 % 2.73 C
2872 26-02-2019 23:15:00 4.8 C 88 % 2.99 C
2873 26-02-2019 23:20:00 4.8 C 87 % 2.82 C
2874 26-02-2019 23:25:00 4.8 C 87 % 2.82 C
2875 26-02-2019 23:30:00 4.6 C 86 % 2.47 C
Sensor: Nr:Datum:Temp:Feuchte:Taupunkt:
Aussen-T/F 2876 26-02-2019 23:35:00 4.4 C 86 % 2.27 C
2877 26-02-2019 23:40:00 4.3 C 87 % 2.33 C
2878 26-02-2019 23:45:00 4.3 C 88 % 2.49 C
2879 26-02-2019 23:50:00 4.3 C 89 % 2.65 C
2880 26-02-2019 23:55:00 4.3 C 88 % 2.49 C
2881 27-02-2019 00:00:00 4.1 C 88 % 2.3 C
2882 27-02-2019 00:05:00 4 C 88 % 2.2 C
2883 27-02-2019 00:10:00 3.8 C 89 % 2.16 C
2884 27-02-2019 00:15:00 3.6 C 88 % 1.8 C
2885 27-02-2019 00:20:00 3.6 C 89 % 1.96 C
2886 27-02-2019 00:25:00 3.6 C 90 % 2.12 C
2887 27-02-2019 00:30:00 3.6 C 90 % 2.12 C
2888 27-02-2019 00:35:00 3.5 C 90 % 2.02 C
2889 27-02-2019 00:40:00 3.3 C 89 % 1.67 C
2890 27-02-2019 00:45:00 3.1 C 89 % 1.47 C
2891 27-02-2019 00:50:00 3.2 C 91 % 1.88 C
2892 27-02-2019 00:55:00 3.3 C 91 % 1.98 C
2893 27-02-2019 01:00:00 3.2 C 90 % 1.72 C
2894 27-02-2019 01:05:00 3 C 90 % 1.52 C
2895 27-02-2019 01:10:00 2.9 C 90 % 1.43 C
2896 27-02-2019 01:15:00 2.8 C 91 % 1.48 C
2897 27-02-2019 01:20:00 2.8 C 91 % 1.48 C
2898 27-02-2019 01:25:00 2.9 C 92 % 1.73 C
2899 27-02-2019 01:30:00 3 C 92 % 1.83 C
2900 27-02-2019 01:35:00 2.9 C 91 % 1.58 C
Sensor: Nr:Datum:Temp:Feuchte:Taupunkt:
Aussen-T/F 2901 27-02-2019 01:40:00 2.8 C 91 % 1.48 C
2902 27-02-2019 01:45:00 2.7 C 92 % 1.53 C
2903 27-02-2019 01:50:00 2.7 C 92 % 1.53 C
2904 27-02-2019 01:55:00 2.5 C 91 % 1.18 C
2905 27-02-2019 02:00:00 2.3 C 91 % 0.99 C
2906 27-02-2019 02:05:00 2.3 C 91 % 0.99 C
2907 27-02-2019 02:10:00 2.2 C 92 % 1.04 C
2908 27-02-2019 02:15:00 2.2 C 92 % 1.04 C
2909 27-02-2019 02:20:00 2 C 92 % 0.84 C
2910 27-02-2019 02:25:00 2.1 C 93 % 1.09 C
2911 27-02-2019 02:30:00 2.3 C 93 % 1.29 C
2912 27-02-2019 02:35:00 2.6 C 94 % 1.73 C
2913 27-02-2019 02:40:00 2.6 C 94 % 1.73 C
2914 27-02-2019 02:45:00 2.4 C 92 % 1.24 C
2915 27-02-2019 02:50:00 2.1 C 92 % 0.94 C
2916 27-02-2019 02:55:00 1.9 C 92 % 0.74 C
2917 27-02-2019 03:00:00 1.9 C 93 % 0.89 C
2918 27-02-2019 03:05:00 1.9 C 93 % 0.89 C
2919 27-02-2019 03:10:00 1.9 C 93 % 0.89 C
2920 27-02-2019 03:15:00 1.7 C 92 % 0.54 C
2921 27-02-2019 03:20:00 1.6 C 93 % 0.59 C
2922 27-02-2019 03:25:00 1.5 C 93 % 0.49 C
2923 27-02-2019 03:30:00 1.3 C 93 % 0.3 C
2924 27-02-2019 03:35:00 1.2 C 93 % 0.2 C
2925 27-02-2019 03:40:00 1.3 C 94 % 0.44 C
Sensor: Nr:Datum:Temp:Feuchte:Taupunkt:
Aussen-T/F 2926 27-02-2019 03:45:00 1.3 C 93 % 0.3 C
2927 27-02-2019 03:50:00 1 C 93 % 0 C
2928 27-02-2019 03:55:00 0.9 C 93 % -0.1 C
2929 27-02-2019 04:00:00 1 C 94 % 0.15 C
2930 27-02-2019 04:05:00 0.9 C 93 % -0.1 C
2931 27-02-2019 04:10:00 0.9 C 94 % 0.05 C
2932 27-02-2019 04:15:00 1 C 94 % 0.15 C
2933 27-02-2019 04:20:00 0.9 C 94 % 0.05 C
2934 27-02-2019 04:25:00 0.8 C 93 % -0.2 C
2935 27-02-2019 04:30:00 0.7 C 94 % -0.15 C
2936 27-02-2019 04:35:00 0.7 C 94 % -0.15 C
2937 27-02-2019 04:40:00 0.7 C 94 % -0.15 C
2938 27-02-2019 04:45:00 0.6 C 94 % -0.25 C
2939 27-02-2019 04:50:00 0.6 C 94 % -0.25 C
2940 27-02-2019 04:55:00 0.6 C 94 % -0.25 C
2941 27-02-2019 05:00:00 0.7 C 94 % -0.15 C
2942 27-02-2019 05:05:00 0.7 C 94 % -0.15 C
2943 27-02-2019 05:10:00 0.6 C 94 % -0.25 C
2944 27-02-2019 05:15:00 0.6 C 95 % -0.11 C
2945 27-02-2019 05:20:00 0.6 C 95 % -0.11 C
2946 27-02-2019 05:25:00 0.6 C 95 % -0.11 C
2947 27-02-2019 05:30:00 0.5 C 94 % -0.35 C
2948 27-02-2019 05:35:00 0.4 C 94 % -0.45 C
2949 27-02-2019 05:40:00 0.4 C 94 % -0.45 C
2950 27-02-2019 05:45:00 0.4 C 95 % -0.31 C
Sensor: Nr:Datum:Temp:Feuchte:Taupunkt:
Aussen-T/F 2951 27-02-2019 05:50:00 0.3 C 95 % -0.4 C
2952 27-02-2019 05:55:00 0.2 C 94 % -0.65 C
2953 27-02-2019 06:00:00 0.2 C 94 % -0.65 C
2954 27-02-2019 06:05:00 0.2 C 95 % -0.5 C
2955 27-02-2019 06:10:00 0.2 C 95 % -0.5 C
2956 27-02-2019 06:15:00 0.1 C 95 % -0.6 C
2957 27-02-2019 06:20:00 0 C 95 % -0.7 C
2958 27-02-2019 06:25:00 0.1 C 95 % -0.6 C
2959 27-02-2019 06:30:00 0.2 C 95 % -0.5 C
2960 27-02-2019 06:35:00 0.3 C 95 % -0.4 C
2961 27-02-2019 06:40:00 0.3 C 95 % -0.4 C
2962 27-02-2019 06:45:00 0.1 C 95 % -0.6 C
2963 27-02-2019 06:50:00 -0.1 C 95 % -0.8 C
2964 27-02-2019 06:55:00 -0.1 C 95 % -0.8 C
2965 27-02-2019 07:00:00 -0.2 C 95 % -0.9 C
2966 27-02-2019 07:05:00 -0.2 C 95 % -0.9 C
2967 27-02-2019 07:10:00 -0.2 C 95 % -0.9 C
2968 27-02-2019 07:15:00 -0.2 C 95 % -0.9 C
2969 27-02-2019 07:20:00 -0.3 C 95 % -1 C
2970 27-02-2019 07:25:00 -0.4 C 95 % -1.1 C
2971 27-02-2019 07:30:00 -0.6 C 95 % -1.3 C
2972 27-02-2019 07:35:00 -0.6 C 95 % -1.3 C
2973 27-02-2019 07:40:00 -0.6 C 95 % -1.3 C
2974 27-02-2019 07:45:00 -0.4 C 95 % -1.1 C
2975 27-02-2019 07:50:00 -0.4 C 95 % -1.1 C
Sensor: Nr:Datum:Temp:Feuchte:Taupunkt:
Aussen-T/F 2976 27-02-2019 07:55:00 -0.4 C 95 % -1.1 C
2977 27-02-2019 08:00:00 -0.4 C 95 % -1.1 C
2978 27-02-2019 08:05:00 -0.4 C 95 % -1.1 C
2979 27-02-2019 08:10:00 -0.4 C 95 % -1.1 C
2980 27-02-2019 08:15:00 -0.4 C 95 % -1.1 C
2981 27-02-2019 08:20:00 -0.4 C 95 % -1.1 C
2982 27-02-2019 08:25:00 -0.4 C 95 % -1.1 C
2983 27-02-2019 08:30:00 -0.3 C 96 % -0.86 C
2984 27-02-2019 08:35:00 -0.2 C 96 % -0.76 C
2985 27-02-2019 08:40:00 -0.2 C 96 % -0.76 C
2986 27-02-2019 08:45:00 -0.1 C 96 % -0.66 C
2987 27-02-2019 08:50:00 0 C 96 % -0.56 C
2988 27-02-2019 08:55:00 0.1 C 96 % -0.46 C
2989 27-02-2019 09:00:00 0.1 C 96 % -0.46 C
2990 27-02-2019 09:05:00 0.2 C 96 % -0.36 C
2991 27-02-2019 09:10:00 0.2 C 96 % -0.36 C
2992 27-02-2019 09:15:00 0.2 C 96 % -0.36 C
2993 27-02-2019 09:20:00 0.2 C 96 % -0.36 C
2994 27-02-2019 09:25:00 0.3 C 96 % -0.26 C
2995 27-02-2019 09:30:00 0.3 C 96 % -0.26 C
2996 27-02-2019 09:35:00 0.4 C 96 % -0.16 C
2997 27-02-2019 09:40:00 0.6 C 96 % 0.04 C
2998 27-02-2019 09:45:00 0.7 C 96 % 0.14 C
2999 27-02-2019 09:50:00 0.8 C 96 % 0.24 C
3000 27-02-2019 09:55:00 1 C 96 % 0.44 C
Sensor: Nr:Datum:Temp:Feuchte:Taupunkt:
Aussen-T/F 3001 27-02-2019 10:00:00 1.2 C 96 % 0.63 C
3002 27-02-2019 10:05:00 1.3 C 96 % 0.73 C
3003 27-02-2019 10:10:00 1.4 C 96 % 0.83 C
3004 27-02-2019 10:15:00 1.6 C 97 % 1.18 C
3005 27-02-2019 10:20:00 1.7 C 96 % 1.13 C
3006 27-02-2019 10:25:00 2 C 97 % 1.58 C
3007 27-02-2019 10:30:00 2.4 C 97 % 1.97 C
3008 27-02-2019 10:35:00 2.8 C 97 % 2.37 C
3009 27-02-2019 10:40:00 3.2 C 97 % 2.77 C
3010 27-02-2019 10:45:00 3.4 C 97 % 2.97 C
3011 27-02-2019 10:50:00 3.7 C 97 % 3.27 C
3012 27-02-2019 10:55:00 4.1 C 97 % 3.67 C
3013 27-02-2019 11:00:00 4.3 C 97 % 3.87 C
3014 27-02-2019 11:05:00 4.5 C 97 % 4.07 C
3015 27-02-2019 11:10:00 4.7 C 97 % 4.27 C
3016 27-02-2019 11:15:00 5 C 97 % 4.56 C
3017 27-02-2019 11:20:00 5.2 C 97 % 4.76 C
3018 27-02-2019 11:25:00 5.4 C 97 % 4.96 C
3019 27-02-2019 11:30:00 5.7 C 96 % 5.11 C
3020 27-02-2019 11:35:00 5.8 C 95 % 5.06 C
3021 27-02-2019 11:40:00 6 C 94 % 5.11 C
3022 27-02-2019 11:45:00 6.2 C 93 % 5.15 C
3023 27-02-2019 11:50:00 6.5 C 91 % 5.14 C
3024 27-02-2019 11:55:00 6.7 C 90 % 5.18 C
3025 27-02-2019 12:00:00 7 C 89 % 5.31 C
Sensor: Nr:Datum:Temp:Feuchte:Taupunkt:
Aussen-T/F 3026 27-02-2019 12:05:00 7.4 C 90 % 5.87 C
3027 27-02-2019 12:10:00 7.8 C 88 % 5.94 C
3028 27-02-2019 12:15:00 8.4 C 89 % 6.7 C
3029 27-02-2019 12:20:00 9.1 C 87 % 7.05 C
3030 27-02-2019 12:25:00 9.6 C 85 % 7.21 C
3031 27-02-2019 12:30:00 10.2 C 83 % 7.45 C
3032 27-02-2019 12:35:00 10.8 C 81 % 7.67 C
3033 27-02-2019 12:40:00 11.3 C 80 % 7.98 C
3034 27-02-2019 12:45:00 11.7 C 74 % 7.23 C
3035 27-02-2019 12:50:00 11.8 C 74 % 7.32 C
3036 27-02-2019 12:55:00 12 C 73 % 7.32 C
3037 27-02-2019 13:00:00 12.4 C 73 % 7.7 C
3038 27-02-2019 13:05:00 12.7 C 73 % 7.99 C
3039 27-02-2019 13:10:00 13.1 C 72 % 8.17 C
3040 27-02-2019 13:15:00 13.5 C 72 % 8.56 C
3041 27-02-2019 13:20:00 14.1 C 68 % 8.29 C
3042 27-02-2019 13:25:00 14.6 C 67 % 8.55 C
3043 27-02-2019 13:30:00 15.1 C 65 % 8.58 C
3044 27-02-2019 13:35:00 15.4 C 63 % 8.4 C
3045 27-02-2019 13:40:00 15.8 C 62 % 8.54 C
3046 27-02-2019 13:45:00 16.2 C 59 % 8.19 C
3047 27-02-2019 13:50:00 16.4 C 58 % 8.12 C
3048 27-02-2019 13:55:00 17 C 56 % 8.17 C
3049 27-02-2019 14:00:00 17.6 C 54 % 8.19 C
3050 27-02-2019 14:05:00 17.8 C 53 % 8.1 C
Sensor: Nr:Datum:Temp:Feuchte:Taupunkt:
Aussen-T/F 3051 27-02-2019 14:10:00 17.9 C 53 % 8.19 C
3052 27-02-2019 14:15:00 17.9 C 52 % 7.91 C
3053 27-02-2019 14:20:00 17.8 C 52 % 7.82 C
3054 27-02-2019 14:25:00 17.5 C 52 % 7.54 C
3055 27-02-2019 14:30:00 17.1 C 51 % 6.89 C
3056 27-02-2019 14:35:00 16.8 C 51 % 6.62 C
3057 27-02-2019 14:40:00 16.6 C 52 % 6.71 C
3058 27-02-2019 14:45:00 16.5 C 50 % 6.05 C
3059 27-02-2019 14:50:00 16.4 C 53 % 6.81 C
3060 27-02-2019 14:55:00 16.4 C 53 % 6.81 C
3061 27-02-2019 15:00:00 16.3 C 53 % 6.71 C
3062 27-02-2019 15:05:00 16.3 C 51 % 6.16 C
3063 27-02-2019 15:10:00 16.2 C 51 % 6.06 C
3064 27-02-2019 15:15:00 16.2 C 52 % 6.34 C
3065 27-02-2019 15:20:00 16.1 C 51 % 5.97 C
3066 27-02-2019 15:25:00 16 C 51 % 5.88 C
3067 27-02-2019 15:30:00 15.9 C 51 % 5.79 C
3068 27-02-2019 15:35:00 15.9 C 52 % 6.07 C
3069 27-02-2019 15:40:00 16 C 52 % 6.16 C
3070 27-02-2019 15:45:00 16.1 C 51 % 5.97 C
3071 27-02-2019 15:50:00 16.1 C 51 % 5.97 C
3072 27-02-2019 15:55:00 16.2 C 51 % 6.06 C
3073 27-02-2019 16:00:00 16.3 C 51 % 6.16 C
3074 27-02-2019 16:05:00 16.3 C 50 % 5.87 C
3075 27-02-2019 16:10:00 16.4 C 50 % 5.96 C
Sensor: Nr:Datum:Temp:Feuchte:Taupunkt:
Aussen-T/F 3076 27-02-2019 16:15:00 16.5 C 50 % 6.05 C
3077 27-02-2019 16:20:00 16.5 C 51 % 6.34 C
3078 27-02-2019 16:25:00 16.4 C 49 % 5.67 C
3079 27-02-2019 16:30:00 16.3 C 50 % 5.87 C
3080 27-02-2019 16:35:00 16.2 C 50 % 5.78 C
3081 27-02-2019 16:40:00 16.2 C 51 % 6.06 C
3082 27-02-2019 16:45:00 16.1 C 51 % 5.97 C
3083 27-02-2019 16:50:00 16 C 52 % 6.16 C
3084 27-02-2019 16:55:00 15.8 C 52 % 5.97 C
3085 27-02-2019 17:00:00 15.8 C 52 % 5.97 C
3086 27-02-2019 17:05:00 15.8 C 52 % 5.97 C
3087 27-02-2019 17:10:00 15.8 C 53 % 6.25 C
3088 27-02-2019 17:15:00 15.7 C 52 % 5.88 C
3089 27-02-2019 17:20:00 15.7 C 52 % 5.88 C
3090 27-02-2019 17:25:00 15.7 C 51 % 5.6 C
3091 27-02-2019 17:30:00 15.8 C 51 % 5.69 C
3092 27-02-2019 17:35:00 15.8 C 50 % 5.41 C
3093 27-02-2019 17:40:00 15.8 C 50 % 5.41 C
3094 27-02-2019 17:45:00 15.8 C 50 % 5.41 C
3095 27-02-2019 17:50:00 15.6 C 50 % 5.23 C
3096 27-02-2019 17:55:00 15.3 C 49 % 4.66 C
3097 27-02-2019 18:00:00 15 C 51 % 4.96 C
3098 27-02-2019 18:05:00 14.6 C 52 % 4.87 C
3099 27-02-2019 18:10:00 14.3 C 54 % 5.13 C
3100 27-02-2019 18:15:00 13.9 C 52 % 4.22 C
Sensor: Nr:Datum:Temp:Feuchte:Taupunkt:
Aussen-T/F 3101 27-02-2019 18:20:00 13.8 C 55 % 4.93 C
3102 27-02-2019 18:25:00 13.6 C 54 % 4.48 C
3103 27-02-2019 18:30:00 13.5 C 55 % 4.65 C
3104 27-02-2019 18:35:00 13.3 C 56 % 4.72 C
3105 27-02-2019 18:40:00 13 C 56 % 4.44 C
3106 27-02-2019 18:45:00 12.8 C 57 % 4.5 C
3107 27-02-2019 18:50:00 12.6 C 58 % 4.57 C
3108 27-02-2019 18:55:00 12.3 C 58 % 4.28 C
3109 27-02-2019 19:00:00 12.2 C 59 % 4.43 C
3110 27-02-2019 19:05:00 11.9 C 59 % 4.15 C
3111 27-02-2019 19:10:00 11.7 C 60 % 4.2 C
3112 27-02-2019 19:15:00 11.5 C 61 % 4.25 C
3113 27-02-2019 19:20:00 11.3 C 62 % 4.29 C
3114 27-02-2019 19:25:00 11.1 C 64 % 4.56 C
3115 27-02-2019 19:30:00 10.8 C 65 % 4.49 C
3116 27-02-2019 19:35:00 10.5 C 66 % 4.43 C
3117 27-02-2019 19:40:00 10.2 C 67 % 4.36 C
3118 27-02-2019 19:45:00 10 C 67 % 4.16 C
3119 27-02-2019 19:50:00 9.8 C 68 % 4.18 C
3120 27-02-2019 19:55:00 9.7 C 69 % 4.3 C
3121 27-02-2019 20:00:00 9.5 C 70 % 4.31 C
3122 27-02-2019 20:05:00 9.4 C 69 % 4.01 C
3123 27-02-2019 20:10:00 9.3 C 70 % 4.12 C
3124 27-02-2019 20:15:00 9.1 C 69 % 3.72 C
3125 27-02-2019 20:20:00 9.1 C 70 % 3.93 C
Sensor: Nr:Datum:Temp:Feuchte:Taupunkt:
Aussen-T/F 3126 27-02-2019 20:25:00 8.8 C 70 % 3.64 C
3127 27-02-2019 20:30:00 8.7 C 70 % 3.54 C
3128 27-02-2019 20:35:00 8.6 C 70 % 3.45 C
3129 27-02-2019 20:40:00 8.3 C 71 % 3.36 C
3130 27-02-2019 20:45:00 8.1 C 72 % 3.37 C
3131 27-02-2019 20:50:00 7.8 C 72 % 3.08 C
3132 27-02-2019 20:55:00 7.7 C 72 % 2.98 C
3133 27-02-2019 21:00:00 7.4 C 73 % 2.89 C
3134 27-02-2019 21:05:00 7.3 C 74 % 2.98 C
3135 27-02-2019 21:10:00 7.3 C 73 % 2.79 C
3136 27-02-2019 21:15:00 7.2 C 74 % 2.89 C
3137 27-02-2019 21:20:00 7.1 C 76 % 3.16 C
3138 27-02-2019 21:25:00 6.9 C 76 % 2.97 C
3139 27-02-2019 21:30:00 6.8 C 76 % 2.87 C
3140 27-02-2019 21:35:00 6.5 C 77 % 2.77 C
3141 27-02-2019 21:40:00 6.4 C 78 % 2.85 C
3142 27-02-2019 21:45:00 6.4 C 77 % 2.67 C
3143 27-02-2019 21:50:00 6.3 C 77 % 2.57 C
3144 27-02-2019 21:55:00 6 C 78 % 2.46 C
3145 27-02-2019 22:00:00 5.8 C 80 % 2.62 C
3146 27-02-2019 22:05:00 5.8 C 81 % 2.8 C
3147 27-02-2019 22:10:00 5.9 C 80 % 2.72 C
3148 27-02-2019 22:15:00 5.8 C 79 % 2.45 C
3149 27-02-2019 22:20:00 5.7 C 80 % 2.53 C
3150 27-02-2019 22:25:00 5.6 C 80 % 2.43 C
Sensor: Nr:Datum:Temp:Feuchte:Taupunkt:
Aussen-T/F 3151 27-02-2019 22:30:00 5.5 C 81 % 2.51 C
3152 27-02-2019 22:35:00 5.4 C 81 % 2.41 C
3153 27-02-2019 22:40:00 5.3 C 81 % 2.31 C
3154 27-02-2019 22:45:00 5.3 C 81 % 2.31 C
3155 27-02-2019 22:50:00 5.3 C 81 % 2.31 C
3156 27-02-2019 22:55:00 5.2 C 81 % 2.21 C
3157 27-02-2019 23:00:00 5.2 C 81 % 2.21 C
3158 27-02-2019 23:05:00 5.2 C 81 % 2.21 C
3159 27-02-2019 23:10:00 5.1 C 82 % 2.29 C
3160 27-02-2019 23:15:00 5.1 C 81 % 2.12 C
3161 27-02-2019 23:20:00 5.1 C 82 % 2.29 C
3162 27-02-2019 23:25:00 4.9 C 82 % 2.09 C
3163 27-02-2019 23:30:00 4.7 C 82 % 1.9 C
3164 27-02-2019 23:35:00 4.6 C 83 % 1.97 C
3165 27-02-2019 23:40:00 4.5 C 84 % 2.04 C
3166 27-02-2019 23:45:00 4.5 C 85 % 2.2 C
3167 27-02-2019 23:50:00 4.5 C 84 % 2.04 C
3168 27-02-2019 23:55:00 4.6 C 84 % 2.14 C
3169 28-02-2019 00:00:00 4.5 C 84 % 2.04 C
3170 28-02-2019 00:05:00 4.6 C 85 % 2.3 C
3171 28-02-2019 00:10:00 4.7 C 85 % 2.4 C
3172 28-02-2019 00:15:00 4.8 C 85 % 2.5 C
3173 28-02-2019 00:20:00 5.1 C 85 % 2.79 C
3174 28-02-2019 00:25:00 5.4 C 84 % 2.92 C
3175 28-02-2019 00:30:00 5.6 C 83 % 2.95 C
Sensor: Nr:Datum:Temp:Feuchte:Taupunkt:
Aussen-T/F 3176 28-02-2019 00:35:00 5.7 C 82 % 2.87 C
3177 28-02-2019 00:40:00 5.8 C 82 % 2.97 C
3178 28-02-2019 00:45:00 5.9 C 81 % 2.9 C
3179 28-02-2019 00:50:00 6 C 80 % 2.82 C
3180 28-02-2019 00:55:00 6.1 C 80 % 2.92 C
3181 28-02-2019 01:00:00 6.1 C 80 % 2.92 C
3182 28-02-2019 01:05:00 5.9 C 79 % 2.54 C
3183 28-02-2019 01:10:00 5.8 C 79 % 2.45 C
3184 28-02-2019 01:15:00 5.4 C 79 % 2.06 C
3185 28-02-2019 01:20:00 5.2 C 81 % 2.21 C
3186 28-02-2019 01:25:00 5 C 81 % 2.02 C
3187 28-02-2019 01:30:00 4.7 C 82 % 1.9 C
3188 28-02-2019 01:35:00 4.5 C 83 % 1.87 C
3189 28-02-2019 01:40:00 4.3 C 83 % 1.67 C
3190 28-02-2019 01:45:00 4.1 C 84 % 1.65 C
3191 28-02-2019 01:50:00 4.1 C 85 % 1.81 C
3192 28-02-2019 01:55:00 4.1 C 86 % 1.97 C
3193 28-02-2019 02:00:00 4.1 C 86 % 1.97 C
3194 28-02-2019 02:05:00 4.1 C 86 % 1.97 C
3195 28-02-2019 02:10:00 4.2 C 86 % 2.07 C
3196 28-02-2019 02:15:00 4.1 C 85 % 1.81 C
3197 28-02-2019 02:20:00 3.8 C 85 % 1.52 C
3198 28-02-2019 02:25:00 3.6 C 86 % 1.48 C
3199 28-02-2019 02:30:00 3.4 C 86 % 1.29 C
3200 28-02-2019 02:35:00 3.3 C 87 % 1.35 C
Sensor: Nr:Datum:Temp:Feuchte:Taupunkt:
Aussen-T/F 3201 28-02-2019 02:40:00 3.3 C 88 % 1.51 C
3202 28-02-2019 02:45:00 3.4 C 89 % 1.76 C
3203 28-02-2019 02:50:00 3.4 C 89 % 1.76 C
3204 28-02-2019 02:55:00 3.4 C 88 % 1.61 C
3205 28-02-2019 03:00:00 3.3 C 88 % 1.51 C
3206 28-02-2019 03:05:00 3.1 C 87 % 1.15 C
3207 28-02-2019 03:10:00 2.9 C 88 % 1.11 C
3208 28-02-2019 03:15:00 2.9 C 89 % 1.27 C
3209 28-02-2019 03:20:00 2.8 C 89 % 1.17 C
3210 28-02-2019 03:25:00 2.8 C 90 % 1.33 C
3211 28-02-2019 03:30:00 2.9 C 90 % 1.43 C
3212 28-02-2019 03:35:00 3 C 90 % 1.52 C
3213 28-02-2019 03:40:00 3.1 C 90 % 1.62 C
3214 28-02-2019 03:45:00 3 C 89 % 1.37 C
3215 28-02-2019 03:50:00 2.8 C 89 % 1.17 C
3216 28-02-2019 03:55:00 2.7 C 89 % 1.07 C
3217 28-02-2019 04:00:00 2.6 C 89 % 0.97 C
3218 28-02-2019 04:05:00 2.4 C 89 % 0.78 C
3219 28-02-2019 04:10:00 2.2 C 88 % 0.42 C
3220 28-02-2019 04:15:00 2 C 89 % 0.38 C
3221 28-02-2019 04:20:00 1.9 C 90 % 0.44 C
3222 28-02-2019 04:25:00 2.1 C 91 % 0.79 C
3223 28-02-2019 04:30:00 2.3 C 92 % 1.14 C
3224 28-02-2019 04:35:00 2.3 C 91 % 0.99 C
3225 28-02-2019 04:40:00 2.3 C 91 % 0.99 C
Sensor: Nr:Datum:Temp:Feuchte:Taupunkt:
Aussen-T/F 3226 28-02-2019 04:45:00 2.3 C 91 % 0.99 C
3227 28-02-2019 04:50:00 2.4 C 92 % 1.24 C
3228 28-02-2019 04:55:00 2.5 C 91 % 1.18 C
3229 28-02-2019 05:00:00 2.6 C 91 % 1.28 C
3230 28-02-2019 05:05:00 2.5 C 91 % 1.18 C
3231 28-02-2019 05:10:00 2.5 C 91 % 1.18 C
3232 28-02-2019 05:15:00 2.4 C 90 % 0.93 C
3233 28-02-2019 05:20:00 2.3 C 91 % 0.99 C
3234 28-02-2019 05:25:00 2.3 C 91 % 0.99 C
3235 28-02-2019 05:30:00 2.3 C 91 % 0.99 C
3236 28-02-2019 05:35:00 2.3 C 91 % 0.99 C
3237 28-02-2019 05:40:00 2.3 C 91 % 0.99 C
3238 28-02-2019 05:45:00 2.3 C 91 % 0.99 C
3239 28-02-2019 05:50:00 2.2 C 91 % 0.89 C
3240 28-02-2019 05:55:00 2.3 C 92 % 1.14 C
3241 28-02-2019 06:00:00 2.5 C 92 % 1.34 C
3242 28-02-2019 06:05:00 2.7 C 92 % 1.53 C
3243 28-02-2019 06:10:00 2.7 C 92 % 1.53 C
3244 28-02-2019 06:15:00 2.7 C 91 % 1.38 C
3245 28-02-2019 06:20:00 2.6 C 91 % 1.28 C
3246 28-02-2019 06:25:00 2.7 C 91 % 1.38 C
3247 28-02-2019 06:30:00 2.9 C 92 % 1.73 C
3248 28-02-2019 06:35:00 3.4 C 92 % 2.23 C
3249 28-02-2019 06:40:00 3.8 C 90 % 2.31 C
3250 28-02-2019 06:45:00 4.2 C 88 % 2.39 C
Sensor: Nr:Datum:Temp:Feuchte:Taupunkt:
Aussen-T/F 3251 28-02-2019 06:50:00 4.2 C 87 % 2.23 C
3252 28-02-2019 06:55:00 4.2 C 87 % 2.23 C
3253 28-02-2019 07:00:00 4.2 C 87 % 2.23 C
3254 28-02-2019 07:05:00 4.2 C 86 % 2.07 C
3255 28-02-2019 07:10:00 4.1 C 86 % 1.97 C
3256 28-02-2019 07:15:00 3.9 C 86 % 1.78 C
3257 28-02-2019 07:20:00 3.9 C 87 % 1.94 C
3258 28-02-2019 07:25:00 3.8 C 87 % 1.84 C
3259 28-02-2019 07:30:00 3.8 C 87 % 1.84 C
3260 28-02-2019 07:35:00 3.7 C 87 % 1.74 C
3261 28-02-2019 07:40:00 3.6 C 88 % 1.8 C
3262 28-02-2019 07:45:00 3.4 C 87 % 1.45 C
3263 28-02-2019 07:50:00 3.3 C 87 % 1.35 C
3264 28-02-2019 07:55:00 3.1 C 87 % 1.15 C
3265 28-02-2019 08:00:00 2.9 C 88 % 1.11 C
3266 28-02-2019 08:05:00 2.7 C 88 % 0.92 C
3267 28-02-2019 08:10:00 2.7 C 88 % 0.92 C
3268 28-02-2019 08:15:00 2.6 C 89 % 0.97 C
3269 28-02-2019 08:20:00 2.7 C 90 % 1.23 C
3270 28-02-2019 08:25:00 2.8 C 90 % 1.33 C
3271 28-02-2019 08:30:00 2.9 C 91 % 1.58 C
3272 28-02-2019 08:35:00 3.1 C 91 % 1.78 C
3273 28-02-2019 08:40:00 3.3 C 91 % 1.98 C
3274 28-02-2019 08:45:00 3.6 C 92 % 2.42 C
3275 28-02-2019 08:50:00 3.7 C 91 % 2.37 C
Sensor: Nr:Datum:Temp:Feuchte:Taupunkt:
Aussen-T/F 3276 28-02-2019 08:55:00 3.9 C 91 % 2.57 C
3277 28-02-2019 09:00:00 4.1 C 91 % 2.77 C
3278 28-02-2019 09:05:00 4.2 C 90 % 2.71 C
3279 28-02-2019 09:10:00 4.3 C 90 % 2.81 C
3280 28-02-2019 09:15:00 4.4 C 89 % 2.75 C
3281 28-02-2019 09:20:00 4.5 C 89 % 2.85 C
3282 28-02-2019 09:25:00 4.6 C 89 % 2.95 C
3283 28-02-2019 09:30:00 4.7 C 89 % 3.05 C
3284 28-02-2019 09:35:00 4.8 C 88 % 2.99 C
3285 28-02-2019 09:40:00 4.9 C 88 % 3.08 C
3286 28-02-2019 09:45:00 5.1 C 88 % 3.28 C
3287 28-02-2019 09:50:00 5.2 C 88 % 3.38 C
3288 28-02-2019 09:55:00 5.4 C 89 % 3.74 C
3289 28-02-2019 10:00:00 5.6 C 89 % 3.93 C
3290 28-02-2019 10:05:00 5.8 C 89 % 4.13 C
3291 28-02-2019 10:10:00 6.3 C 88 % 4.46 C
3292 28-02-2019 10:15:00 6.7 C 88 % 4.86 C
3293 28-02-2019 10:20:00 7.1 C 86 % 4.92 C
3294 28-02-2019 10:25:00 7.5 C 85 % 5.15 C
3295 28-02-2019 10:30:00 7.9 C 84 % 5.37 C
3296 28-02-2019 10:35:00 8.4 C 83 % 5.69 C
3297 28-02-2019 10:40:00 8.7 C 82 % 5.8 C
3298 28-02-2019 10:45:00 9 C 81 % 5.92 C
3299 28-02-2019 10:50:00 9.3 C 80 % 6.03 C
3300 28-02-2019 10:55:00 9.6 C 79 % 6.14 C
Sensor: Nr:Datum:Temp:Feuchte:Taupunkt:
Aussen-T/F 3301 28-02-2019 11:00:00 9.9 C 78 % 6.25 C
3302 28-02-2019 11:05:00 10.2 C 77 % 6.35 C
3303 28-02-2019 11:10:00 10.6 C 76 % 6.55 C
3304 28-02-2019 11:15:00 10.9 C 75 % 6.65 C
3305 28-02-2019 11:20:00 11.3 C 73 % 6.64 C
3306 28-02-2019 11:25:00 11.7 C 72 % 6.83 C
3307 28-02-2019 11:30:00 11.9 C 71 % 6.82 C
3308 28-02-2019 11:35:00 12.2 C 70 % 6.9 C
3309 28-02-2019 11:40:00 12.4 C 69 % 6.88 C
3310 28-02-2019 11:45:00 12.5 C 69 % 6.97 C
3311 28-02-2019 11:50:00 12.6 C 69 % 7.07 C
3312 28-02-2019 11:55:00 12.6 C 69 % 7.07 C
3313 28-02-2019 12:00:00 12.7 C 68 % 6.95 C
3314 28-02-2019 12:05:00 12.8 C 69 % 7.26 C
3315 28-02-2019 12:10:00 12.8 C 68 % 7.05 C
3316 28-02-2019 12:15:00 12.9 C 68 % 7.14 C
3317 28-02-2019 12:20:00 13 C 68 % 7.24 C
3318 28-02-2019 12:25:00 13.1 C 67 % 7.12 C
3319 28-02-2019 12:30:00 13.2 C 67 % 7.21 C
3320 28-02-2019 12:35:00 13.4 C 68 % 7.62 C
3321 28-02-2019 12:40:00 13.7 C 66 % 7.47 C
3322 28-02-2019 12:45:00 13.8 C 66 % 7.57 C
3323 28-02-2019 12:50:00 13.9 C 66 % 7.66 C
3324 28-02-2019 12:55:00 13.9 C 66 % 7.66 C
3325 28-02-2019 13:00:00 14.1 C 66 % 7.85 C
Sensor: Nr:Datum:Temp:Feuchte:Taupunkt:
Aussen-T/F 3326 28-02-2019 13:05:00 14.2 C 65 % 7.72 C
3327 28-02-2019 13:10:00 14.3 C 66 % 8.04 C
3328 28-02-2019 13:15:00 14.5 C 64 % 7.78 C
3329 28-02-2019 13:20:00 14.7 C 65 % 8.2 C
3330 28-02-2019 13:25:00 14.9 C 63 % 7.93 C
3331 28-02-2019 13:30:00 15.1 C 64 % 8.35 C
3332 28-02-2019 13:35:00 15.2 C 63 % 8.21 C
3333 28-02-2019 13:40:00 15.4 C 62 % 8.16 C
3334 28-02-2019 13:45:00 15.6 C 62 % 8.35 C
3335 28-02-2019 13:50:00 15.7 C 61 % 8.21 C
3336 28-02-2019 13:55:00 15.8 C 61 % 8.3 C
3337 28-02-2019 14:00:00 16 C 62 % 8.73 C
3338 28-02-2019 14:05:00 16.2 C 61 % 8.68 C
3339 28-02-2019 14:10:00 16.3 C 61 % 8.77 C
3340 28-02-2019 14:15:00 16.4 C 61 % 8.87 C
3341 28-02-2019 14:20:00 16.4 C 61 % 8.87 C
3342 28-02-2019 14:25:00 16.5 C 61 % 8.96 C
3343 28-02-2019 14:30:00 16.6 C 61 % 9.06 C
3344 28-02-2019 14:35:00 16.7 C 61 % 9.15 C
3345 28-02-2019 14:40:00 16.8 C 61 % 9.24 C
3346 28-02-2019 14:45:00 17.1 C 60 % 9.28 C
3347 28-02-2019 14:50:00 17.2 C 60 % 9.37 C
3348 28-02-2019 14:55:00 17.2 C 60 % 9.37 C
3349 28-02-2019 15:00:00 17.2 C 60 % 9.37 C
3350 28-02-2019 15:05:00 17.1 C 60 % 9.28 C
Sensor: Nr:Datum:Temp:Feuchte:Taupunkt:
Aussen-T/F 3351 28-02-2019 15:10:00 17 C 62 % 9.67 C
3352 28-02-2019 15:15:00 17 C 61 % 9.43 C
3353 28-02-2019 15:20:00 16.9 C 61 % 9.34 C
3354 28-02-2019 15:25:00 16.8 C 62 % 9.49 C
3355 28-02-2019 15:30:00 16.8 C 62 % 9.49 C
3356 28-02-2019 15:35:00 16.7 C 62 % 9.39 C
3357 28-02-2019 15:40:00 16.7 C 60 % 8.9 C
3358 28-02-2019 15:45:00 16.5 C 60 % 8.72 C
3359 28-02-2019 15:50:00 16.3 C 61 % 8.77 C
3360 28-02-2019 15:55:00 16.2 C 61 % 8.68 C
3361 28-02-2019 16:00:00 16.2 C 62 % 8.92 C
3362 28-02-2019 16:05:00 16.2 C 64 % 9.39 C
3363 28-02-2019 16:10:00 16.1 C 65 % 9.53 C
3364 28-02-2019 16:15:00 16 C 66 % 9.66 C
3365 28-02-2019 16:20:00 15.9 C 66 % 9.56 C
3366 28-02-2019 16:25:00 15.7 C 66 % 9.37 C
3367 28-02-2019 16:30:00 15.5 C 67 % 9.41 C
3368 28-02-2019 16:35:00 15.3 C 63 % 8.31 C
3369 28-02-2019 16:40:00 14.7 C 60 % 7.03 C
3370 28-02-2019 16:45:00 14 C 61 % 6.61 C
3371 28-02-2019 16:50:00 13.6 C 63 % 6.7 C
3372 28-02-2019 16:55:00 13.3 C 64 % 6.64 C
3373 28-02-2019 17:00:00 13.1 C 64 % 6.45 C
3374 28-02-2019 17:05:00 13 C 65 % 6.58 C
3375 28-02-2019 17:10:00 12.9 C 66 % 6.71 C
Sensor: Nr:Datum:Temp:Feuchte:Taupunkt:
Aussen-T/F 3376 28-02-2019 17:15:00 12.9 C 67 % 6.93 C
3377 28-02-2019 17:20:00 12.8 C 67 % 6.83 C
3378 28-02-2019 17:25:00 12.8 C 68 % 7.05 C
3379 28-02-2019 17:30:00 12.7 C 69 % 7.17 C
3380 28-02-2019 17:35:00 12.6 C 69 % 7.07 C
3381 28-02-2019 17:40:00 12.6 C 69 % 7.07 C
3382 28-02-2019 17:45:00 12.5 C 69 % 6.97 C
3383 28-02-2019 17:50:00 12.5 C 70 % 7.18 C
3384 28-02-2019 17:55:00 12.4 C 70 % 7.09 C
3385 28-02-2019 18:00:00 12.4 C 70 % 7.09 C
3386 28-02-2019 18:05:00 12.4 C 70 % 7.09 C
3387 28-02-2019 18:10:00 12.3 C 71 % 7.2 C
3388 28-02-2019 18:15:00 12.3 C 71 % 7.2 C
3389 28-02-2019 18:20:00 12.2 C 71 % 7.1 C
3390 28-02-2019 18:25:00 12.2 C 71 % 7.1 C
3391 28-02-2019 18:30:00 12.1 C 71 % 7.01 C
3392 28-02-2019 18:35:00 12.1 C 72 % 7.21 C
3393 28-02-2019 18:40:00 12 C 72 % 7.12 C
3394 28-02-2019 18:45:00 11.9 C 73 % 7.22 C
3395 28-02-2019 18:50:00 11.9 C 73 % 7.22 C
3396 28-02-2019 18:55:00 11.8 C 73 % 7.12 C
3397 28-02-2019 19:00:00 11.8 C 74 % 7.32 C
3398 28-02-2019 19:05:00 11.7 C 74 % 7.23 C
3399 28-02-2019 19:10:00 11.6 C 74 % 7.13 C
3400 28-02-2019 19:15:00 11.4 C 75 % 7.13 C
Sensor: Nr:Datum:Temp:Feuchte:Taupunkt:
Aussen-T/F 3401 28-02-2019 19:20:00 11.3 C 75 % 7.04 C
3402 28-02-2019 19:25:00 11.2 C 75 % 6.94 C
3403 28-02-2019 19:30:00 11.1 C 76 % 7.04 C
3404 28-02-2019 19:35:00 11.1 C 76 % 7.04 C
3405 28-02-2019 19:40:00 11 C 77 % 7.13 C
3406 28-02-2019 19:45:00 11 C 77 % 7.13 C
3407 28-02-2019 19:50:00 11 C 77 % 7.13 C
3408 28-02-2019 19:55:00 11 C 78 % 7.32 C
3409 28-02-2019 20:00:00 11 C 78 % 7.32 C
3410 28-02-2019 20:05:00 11.1 C 78 % 7.41 C
3411 28-02-2019 20:10:00 11.1 C 78 % 7.41 C
3412 28-02-2019 20:15:00 11.1 C 78 % 7.41 C
3413 28-02-2019 20:20:00 11.1 C 78 % 7.41 C
3414 28-02-2019 20:25:00 11.1 C 79 % 7.6 C
3415 28-02-2019 20:30:00 11.1 C 79 % 7.6 C
3416 28-02-2019 20:35:00 11.1 C 79 % 7.6 C
3417 28-02-2019 20:40:00 11.1 C 79 % 7.6 C
3418 28-02-2019 20:45:00 11.1 C 79 % 7.6 C
3419 28-02-2019 20:50:00 11.1 C 79 % 7.6 C
3420 28-02-2019 20:55:00 11.1 C 79 % 7.6 C
3421 28-02-2019 21:00:00 11.1 C 80 % 7.79 C
3422 28-02-2019 21:05:00 11.1 C 80 % 7.79 C
3423 28-02-2019 21:10:00 11.1 C 81 % 7.97 C
3424 28-02-2019 21:15:00 11 C 81 % 7.87 C
3425 28-02-2019 21:20:00 10.9 C 81 % 7.77 C
Sensor: Nr:Datum:Temp:Feuchte:Taupunkt:
Aussen-T/F 3426 28-02-2019 21:25:00 10.9 C 81 % 7.77 C
3427 28-02-2019 21:30:00 10.9 C 81 % 7.77 C
3428 28-02-2019 21:35:00 10.9 C 81 % 7.77 C
3429 28-02-2019 21:40:00 10.9 C 81 % 7.77 C
3430 28-02-2019 21:45:00 10.9 C 81 % 7.77 C
3431 28-02-2019 21:50:00 11 C 81 % 7.87 C
3432 28-02-2019 21:55:00 11 C 80 % 7.69 C
3433 28-02-2019 22:00:00 10.9 C 80 % 7.59 C
3434 28-02-2019 22:05:00 10.9 C 81 % 7.77 C
3435 28-02-2019 22:10:00 10.9 C 81 % 7.77 C
3436 28-02-2019 22:15:00 10.9 C 81 % 7.77 C
3437 28-02-2019 22:20:00 10.9 C 82 % 7.95 C
3438 28-02-2019 22:25:00 10.9 C 82 % 7.95 C
3439 28-02-2019 22:30:00 10.8 C 82 % 7.85 C
3440 28-02-2019 22:35:00 10.8 C 82 % 7.85 C
3441 28-02-2019 22:40:00 10.8 C 82 % 7.85 C
3442 28-02-2019 22:45:00 10.8 C 82 % 7.85 C
3443 28-02-2019 22:50:00 10.8 C 83 % 8.03 C
3444 28-02-2019 22:55:00 10.7 C 83 % 7.93 C
3445 28-02-2019 23:00:00 10.7 C 83 % 7.93 C
3446 28-02-2019 23:05:00 10.7 C 83 % 7.93 C
3447 28-02-2019 23:10:00 10.7 C 84 % 8.11 C
3448 28-02-2019 23:15:00 10.6 C 85 % 8.19 C
3449 28-02-2019 23:20:00 10.6 C 85 % 8.19 C
3450 28-02-2019 23:25:00 10.4 C 86 % 8.16 C
Sensor: Nr:Datum:Temp:Feuchte:Taupunkt:
Aussen-T/F 3451 28-02-2019 23:30:00 10.3 C 87 % 8.23 C
3452 28-02-2019 23:35:00 10.2 C 88 % 8.3 C
3453 28-02-2019 23:40:00 9.9 C 89 % 8.17 C
3454 28-02-2019 23:45:00 9.8 C 89 % 8.08 C
3455 28-02-2019 23:50:00 9.7 C 90 % 8.14 C
3456 28-02-2019 23:55:00 9.6 C 90 % 8.04 C
3457 01-03-2019 00:00:00 9.5 C 91 % 8.11 C
3458 01-03-2019 00:05:00 9.4 C 91 % 8.01 C
3459 01-03-2019 00:10:00 9.3 C 92 % 8.07 C
3460 01-03-2019 00:15:00 9.3 C 92 % 8.07 C
3461 01-03-2019 00:20:00 9.2 C 92 % 7.97 C
3462 01-03-2019 00:25:00 9.1 C 92 % 7.87 C
3463 01-03-2019 00:30:00 9.1 C 92 % 7.87 C
3464 01-03-2019 00:35:00 9 C 92 % 7.77 C
3465 01-03-2019 00:40:00 8.9 C 92 % 7.67 C
3466 01-03-2019 00:45:00 8.8 C 92 % 7.57 C
3467 01-03-2019 00:50:00 8.7 C 92 % 7.47 C
3468 01-03-2019 00:55:00 8.6 C 93 % 7.53 C
3469 01-03-2019 01:00:00 8.6 C 93 % 7.53 C
3470 01-03-2019 01:05:00 8.7 C 93 % 7.63 C
3471 01-03-2019 01:10:00 8.8 C 94 % 7.89 C
3472 01-03-2019 01:15:00 8.8 C 94 % 7.89 C
3473 01-03-2019 01:20:00 8.8 C 94 % 7.89 C
3474 01-03-2019 01:25:00 8.7 C 94 % 7.79 C
3475 01-03-2019 01:30:00 8.7 C 94 % 7.79 C
Sensor: Nr:Datum:Temp:Feuchte:Taupunkt:
Aussen-T/F 3476 01-03-2019 01:35:00 8.7 C 94 % 7.79 C
3477 01-03-2019 01:40:00 8.6 C 93 % 7.53 C
3478 01-03-2019 01:45:00 8.6 C 94 % 7.69 C
3479 01-03-2019 01:50:00 8.6 C 94 % 7.69 C
3480 01-03-2019 01:55:00 8.6 C 94 % 7.69 C
3481 01-03-2019 02:00:00 8.6 C 94 % 7.69 C
3482 01-03-2019 02:05:00 8.6 C 94 % 7.69 C
3483 01-03-2019 02:10:00 8.7 C 94 % 7.79 C
3484 01-03-2019 02:15:00 8.7 C 94 % 7.79 C
3485 01-03-2019 02:20:00 8.7 C 93 % 7.63 C
3486 01-03-2019 02:25:00 8.7 C 93 % 7.63 C
3487 01-03-2019 02:30:00 8.8 C 93 % 7.73 C
3488 01-03-2019 02:35:00 8.7 C 93 % 7.63 C
3489 01-03-2019 02:40:00 8.7 C 93 % 7.63 C
3490 01-03-2019 02:45:00 8.7 C 93 % 7.63 C
3491 01-03-2019 02:50:00 8.7 C 93 % 7.63 C
3492 01-03-2019 02:55:00 8.7 C 93 % 7.63 C
3493 01-03-2019 03:00:00 8.7 C 92 % 7.47 C
3494 01-03-2019 03:05:00 8.8 C 92 % 7.57 C
3495 01-03-2019 03:10:00 8.7 C 92 % 7.47 C
3496 01-03-2019 03:15:00 8.7 C 92 % 7.47 C
3497 01-03-2019 03:20:00 8.8 C 92 % 7.57 C
3498 01-03-2019 03:25:00 8.8 C 92 % 7.57 C
3499 01-03-2019 03:30:00 8.8 C 91 % 7.41 C
3500 01-03-2019 03:35:00 8.9 C 91 % 7.51 C
Sensor: Nr:Datum:Temp:Feuchte:Taupunkt:
Aussen-T/F 3501 01-03-2019 03:40:00 8.9 C 91 % 7.51 C
3502 01-03-2019 03:45:00 8.9 C 91 % 7.51 C
3503 01-03-2019 03:50:00 8.8 C 91 % 7.41 C
3504 01-03-2019 03:55:00 8.8 C 91 % 7.41 C
3505 01-03-2019 04:00:00 8.8 C 91 % 7.41 C
3506 01-03-2019 04:05:00 8.8 C 91 % 7.41 C
3507 01-03-2019 04:10:00 8.8 C 91 % 7.41 C
3508 01-03-2019 04:15:00 8.8 C 91 % 7.41 C
3509 01-03-2019 04:20:00 8.8 C 91 % 7.41 C
3510 01-03-2019 04:25:00 8.8 C 91 % 7.41 C
3511 01-03-2019 04:30:00 8.8 C 91 % 7.41 C
3512 01-03-2019 04:35:00 8.7 C 91 % 7.32 C
3513 01-03-2019 04:40:00 8.7 C 91 % 7.32 C
3514 01-03-2019 04:45:00 8.7 C 91 % 7.32 C
3515 01-03-2019 04:50:00 8.7 C 91 % 7.32 C
3516 01-03-2019 04:55:00 8.7 C 91 % 7.32 C
3517 01-03-2019 05:00:00 8.7 C 91 % 7.32 C
3518 01-03-2019 05:05:00 8.7 C 91 % 7.32 C
3519 01-03-2019 05:10:00 8.7 C 91 % 7.32 C
3520 01-03-2019 05:15:00 8.7 C 91 % 7.32 C
3521 01-03-2019 05:20:00 8.7 C 91 % 7.32 C
3522 01-03-2019 05:25:00 8.7 C 92 % 7.47 C
3523 01-03-2019 05:30:00 8.7 C 92 % 7.47 C
3524 01-03-2019 05:35:00 8.6 C 92 % 7.38 C
3525 01-03-2019 05:40:00 8.6 C 92 % 7.38 C
Sensor: Nr:Datum:Temp:Feuchte:Taupunkt:
Aussen-T/F 3526 01-03-2019 05:45:00 8.5 C 92 % 7.28 C
3527 01-03-2019 05:50:00 8.5 C 93 % 7.43 C
3528 01-03-2019 05:55:00 8.5 C 93 % 7.43 C
3529 01-03-2019 06:00:00 8.4 C 93 % 7.34 C
3530 01-03-2019 06:05:00 8.4 C 93 % 7.34 C
3531 01-03-2019 06:10:00 8.4 C 93 % 7.34 C
3532 01-03-2019 06:15:00 8.3 C 94 % 7.39 C
3533 01-03-2019 06:20:00 8.3 C 93 % 7.24 C
3534 01-03-2019 06:25:00 8.2 C 93 % 7.14 C
3535 01-03-2019 06:30:00 8.2 C 94 % 7.29 C
3536 01-03-2019 06:35:00 8.1 C 94 % 7.19 C
3537 01-03-2019 06:40:00 8.1 C 94 % 7.19 C
3538 01-03-2019 06:45:00 8.1 C 94 % 7.19 C
3539 01-03-2019 06:50:00 8 C 94 % 7.09 C
3540 01-03-2019 06:55:00 8 C 94 % 7.09 C
3541 01-03-2019 07:00:00 8 C 94 % 7.09 C
3542 01-03-2019 07:05:00 8.1 C 95 % 7.35 C
3543 01-03-2019 07:10:00 8.1 C 95 % 7.35 C
3544 01-03-2019 07:15:00 8.2 C 95 % 7.45 C
3545 01-03-2019 07:20:00 8.2 C 95 % 7.45 C
3546 01-03-2019 07:25:00 8.2 C 95 % 7.45 C
3547 01-03-2019 07:30:00 8.3 C 95 % 7.55 C
3548 01-03-2019 07:35:00 8.3 C 95 % 7.55 C
3549 01-03-2019 07:40:00 8.3 C 95 % 7.55 C
3550 01-03-2019 07:45:00 8.3 C 95 % 7.55 C
Sensor: Nr:Datum:Temp:Feuchte:Taupunkt:
Aussen-T/F 3551 01-03-2019 07:50:00 8.3 C 95 % 7.55 C
3552 01-03-2019 07:55:00 8.3 C 95 % 7.55 C
3553 01-03-2019 08:00:00 8.3 C 95 % 7.55 C
3554 01-03-2019 08:05:00 8.3 C 95 % 7.55 C
3555 01-03-2019 08:10:00 8.4 C 95 % 7.65 C
3556 01-03-2019 08:15:00 8.4 C 95 % 7.65 C
3557 01-03-2019 08:20:00 8.5 C 95 % 7.75 C
3558 01-03-2019 08:25:00 8.6 C 95 % 7.85 C
3559 01-03-2019 08:30:00 8.6 C 95 % 7.85 C
3560 01-03-2019 08:35:00 8.6 C 95 % 7.85 C
3561 01-03-2019 08:40:00 8.6 C 95 % 7.85 C
3562 01-03-2019 08:45:00 8.7 C 95 % 7.94 C
3563 01-03-2019 08:50:00 8.7 C 95 % 7.94 C
3564 01-03-2019 08:55:00 8.7 C 95 % 7.94 C
3565 01-03-2019 09:00:00 8.7 C 95 % 7.94 C
3566 01-03-2019 09:05:00 8.7 C 95 % 7.94 C
3567 01-03-2019 09:10:00 8.7 C 95 % 7.94 C
3568 01-03-2019 09:15:00 8.7 C 95 % 7.94 C
3569 01-03-2019 09:20:00 8.7 C 95 % 7.94 C
3570 01-03-2019 09:25:00 8.7 C 95 % 7.94 C
3571 01-03-2019 09:30:00 8.7 C 95 % 7.94 C
3572 01-03-2019 09:35:00 8.7 C 95 % 7.94 C
3573 01-03-2019 09:40:00 8.7 C 95 % 7.94 C
3574 01-03-2019 09:45:00 8.7 C 95 % 7.94 C
3575 01-03-2019 09:50:00 8.6 C 95 % 7.85 C
Sensor: Nr:Datum:Temp:Feuchte:Taupunkt:
Aussen-T/F 3576 01-03-2019 09:55:00 8.6 C 95 % 7.85 C
3577 01-03-2019 10:00:00 8.6 C 95 % 7.85 C
3578 01-03-2019 10:05:00 8.6 C 96 % 8 C
3579 01-03-2019 10:10:00 8.6 C 96 % 8 C
3580 01-03-2019 10:15:00 8.6 C 96 % 8 C
3581 01-03-2019 10:20:00 8.6 C 96 % 8 C
3582 01-03-2019 10:25:00 8.6 C 96 % 8 C
3583 01-03-2019 10:30:00 8.6 C 96 % 8 C
3584 01-03-2019 10:35:00 8.7 C 96 % 8.1 C
3585 01-03-2019 10:40:00 8.7 C 96 % 8.1 C
3586 01-03-2019 10:45:00 8.8 C 96 % 8.2 C
3587 01-03-2019 10:50:00 8.8 C 96 % 8.2 C
3588 01-03-2019 10:55:00 8.8 C 96 % 8.2 C
3589 01-03-2019 11:00:00 8.8 C 96 % 8.2 C
3590 01-03-2019 11:05:00 8.7 C 95 % 7.94 C
3591 01-03-2019 11:10:00 8.7 C 95 % 7.94 C
3592 01-03-2019 11:15:00 8.7 C 95 % 7.94 C
3593 01-03-2019 11:20:00 8.7 C 95 % 7.94 C
3594 01-03-2019 11:25:00 8.7 C 95 % 7.94 C
3595 01-03-2019 11:30:00 8.6 C 95 % 7.85 C
3596 01-03-2019 11:35:00 8.7 C 95 % 7.94 C
3597 01-03-2019 11:40:00 8.7 C 95 % 7.94 C
3598 01-03-2019 11:45:00 8.8 C 95 % 8.04 C
3599 01-03-2019 11:50:00 8.9 C 95 % 8.14 C
3600 01-03-2019 11:55:00 9.1 C 95 % 8.34 C
Sensor: Nr:Datum:Temp:Feuchte:Taupunkt:
Aussen-T/F 3601 01-03-2019 12:00:00 9.1 C 94 % 8.19 C
3602 01-03-2019 12:05:00 9.1 C 94 % 8.19 C
3603 01-03-2019 12:10:00 9.1 C 93 % 8.03 C
3604 01-03-2019 12:15:00 9.1 C 92 % 7.87 C
3605 01-03-2019 12:20:00 9.1 C 92 % 7.87 C
3606 01-03-2019 12:25:00 9.1 C 91 % 7.71 C
3607 01-03-2019 12:30:00 9 C 91 % 7.61 C
3608 01-03-2019 12:35:00 9.1 C 90 % 7.55 C
3609 01-03-2019 12:40:00 9 C 90 % 7.45 C
3610 01-03-2019 12:45:00 8.9 C 90 % 7.35 C
3611 01-03-2019 12:50:00 8.8 C 90 % 7.25 C
3612 01-03-2019 12:55:00 8.8 C 90 % 7.25 C
3613 01-03-2019 13:00:00 8.7 C 91 % 7.32 C
3614 01-03-2019 13:05:00 8.7 C 91 % 7.32 C
3615 01-03-2019 13:10:00 8.7 C 91 % 7.32 C
3616 01-03-2019 13:15:00 8.6 C 91 % 7.22 C
3617 01-03-2019 13:20:00 8.5 C 91 % 7.12 C
3618 01-03-2019 13:25:00 8.4 C 91 % 7.02 C
3619 01-03-2019 13:30:00 8.4 C 92 % 7.18 C
3620 01-03-2019 13:35:00 8.4 C 92 % 7.18 C
3621 01-03-2019 13:40:00 8.3 C 92 % 7.08 C
3622 01-03-2019 13:45:00 8.4 C 92 % 7.18 C
3623 01-03-2019 13:50:00 8.4 C 92 % 7.18 C
3624 01-03-2019 13:55:00 8.4 C 92 % 7.18 C
3625 01-03-2019 14:00:00 8.4 C 92 % 7.18 C
Sensor: Nr:Datum:Temp:Feuchte:Taupunkt:
Aussen-T/F 3626 01-03-2019 14:05:00 8.4 C 92 % 7.18 C
3627 01-03-2019 14:10:00 8.4 C 92 % 7.18 C
3628 01-03-2019 14:15:00 8.3 C 91 % 6.92 C
3629 01-03-2019 14:20:00 8.4 C 91 % 7.02 C
3630 01-03-2019 14:25:00 8.4 C 91 % 7.02 C
3631 01-03-2019 14:30:00 8.3 C 90 % 6.76 C
3632 01-03-2019 14:35:00 8.4 C 90 % 6.86 C
3633 01-03-2019 14:40:00 8.4 C 89 % 6.7 C
3634 01-03-2019 14:45:00 8.4 C 89 % 6.7 C
3635 01-03-2019 14:50:00 8.4 C 89 % 6.7 C
3636 01-03-2019 14:55:00 8.4 C 89 % 6.7 C
3637 01-03-2019 15:00:00 8.4 C 89 % 6.7 C
3638 01-03-2019 15:05:00 8.4 C 89 % 6.7 C
3639 01-03-2019 15:10:00 8.4 C 90 % 6.86 C
3640 01-03-2019 15:15:00 8.3 C 89 % 6.6 C
3641 01-03-2019 15:20:00 8.3 C 89 % 6.6 C
3642 01-03-2019 15:25:00 8.3 C 90 % 6.76 C
3643 01-03-2019 15:30:00 8.3 C 90 % 6.76 C
3644 01-03-2019 15:35:00 8.3 C 90 % 6.76 C
3645 01-03-2019 15:40:00 8.3 C 90 % 6.76 C
3646 01-03-2019 15:45:00 8.3 C 90 % 6.76 C
3647 01-03-2019 15:50:00 8.3 C 90 % 6.76 C
3648 01-03-2019 15:55:00 8.3 C 90 % 6.76 C
3649 01-03-2019 16:00:00 8.3 C 90 % 6.76 C
3650 01-03-2019 16:05:00 8.4 C 90 % 6.86 C
Sensor: Nr:Datum:Temp:Feuchte:Taupunkt:
Aussen-T/F 3651 01-03-2019 16:10:00 8.4 C 90 % 6.86 C
3652 01-03-2019 16:15:00 8.4 C 90 % 6.86 C
3653 01-03-2019 16:20:00 8.4 C 90 % 6.86 C
3654 01-03-2019 16:25:00 8.3 C 91 % 6.92 C
3655 01-03-2019 16:30:00 8.3 C 91 % 6.92 C
3656 01-03-2019 16:35:00 8.3 C 90 % 6.76 C
3657 01-03-2019 16:40:00 8.3 C 91 % 6.92 C
3658 01-03-2019 16:45:00 8.3 C 91 % 6.92 C
3659 01-03-2019 16:50:00 8.4 C 91 % 7.02 C
3660 01-03-2019 16:55:00 8.3 C 91 % 6.92 C
3661 01-03-2019 17:00:00 8.3 C 91 % 6.92 C
3662 01-03-2019 17:05:00 8.3 C 91 % 6.92 C
3663 01-03-2019 17:10:00 8.3 C 91 % 6.92 C
3664 01-03-2019 17:15:00 8.3 C 91 % 6.92 C
3665 01-03-2019 17:20:00 8.3 C 91 % 6.92 C
3666 01-03-2019 17:25:00 8.3 C 91 % 6.92 C
3667 01-03-2019 17:30:00 8.2 C 91 % 6.82 C
3668 01-03-2019 17:35:00 8.2 C 91 % 6.82 C
3669 01-03-2019 17:40:00 8.3 C 91 % 6.92 C
3670 01-03-2019 17:45:00 8.3 C 91 % 6.92 C
3671 01-03-2019 17:50:00 8.3 C 91 % 6.92 C
3672 01-03-2019 17:55:00 8.3 C 91 % 6.92 C
3673 01-03-2019 18:00:00 8.2 C 90 % 6.66 C
3674 01-03-2019 18:05:00 8 C 90 % 6.46 C
3675 01-03-2019 18:10:00 7.8 C 90 % 6.27 C
Sensor: Nr:Datum:Temp:Feuchte:Taupunkt:
Aussen-T/F 3676 01-03-2019 18:15:00 7.8 C 90 % 6.27 C
3677 01-03-2019 18:20:00 7.7 C 89 % 6 C
3678 01-03-2019 18:25:00 7.6 C 89 % 5.91 C
3679 01-03-2019 18:30:00 7.6 C 89 % 5.91 C
3680 01-03-2019 18:35:00 7.5 C 89 % 5.81 C
3681 01-03-2019 18:40:00 7.4 C 89 % 5.71 C
3682 01-03-2019 18:45:00 7.3 C 89 % 5.61 C
3683 01-03-2019 18:50:00 7.3 C 89 % 5.61 C
3684 01-03-2019 18:55:00 7.2 C 90 % 5.67 C
3685 01-03-2019 19:00:00 7.2 C 90 % 5.67 C
3686 01-03-2019 19:05:00 7.1 C 90 % 5.57 C
3687 01-03-2019 19:10:00 7.1 C 89 % 5.41 C
3688 01-03-2019 19:15:00 7 C 90 % 5.48 C
3689 01-03-2019 19:20:00 6.9 C 90 % 5.38 C
3690 01-03-2019 19:25:00 6.9 C 90 % 5.38 C
3691 01-03-2019 19:30:00 6.8 C 90 % 5.28 C
3692 01-03-2019 19:35:00 6.8 C 90 % 5.28 C
3693 01-03-2019 19:40:00 6.8 C 90 % 5.28 C
3694 01-03-2019 19:45:00 6.8 C 90 % 5.28 C
3695 01-03-2019 19:50:00 6.7 C 90 % 5.18 C
3696 01-03-2019 19:55:00 6.7 C 90 % 5.18 C
3697 01-03-2019 20:00:00 6.7 C 91 % 5.34 C
3698 01-03-2019 20:05:00 6.7 C 91 % 5.34 C
3699 01-03-2019 20:10:00 6.7 C 91 % 5.34 C
3700 01-03-2019 20:15:00 6.7 C 91 % 5.34 C
Sensor: Nr:Datum:Temp:Feuchte:Taupunkt:
Aussen-T/F 3701 01-03-2019 20:20:00 6.6 C 91 % 5.24 C
3702 01-03-2019 20:25:00 6.6 C 91 % 5.24 C
3703 01-03-2019 20:30:00 6.6 C 91 % 5.24 C
3704 01-03-2019 20:35:00 6.6 C 91 % 5.24 C
3705 01-03-2019 20:40:00 6.6 C 91 % 5.24 C
3706 01-03-2019 20:45:00 6.6 C 91 % 5.24 C
3707 01-03-2019 20:50:00 6.6 C 91 % 5.24 C
3708 01-03-2019 20:55:00 6.5 C 91 % 5.14 C
3709 01-03-2019 21:00:00 6.5 C 91 % 5.14 C
3710 01-03-2019 21:05:00 6.5 C 91 % 5.14 C
3711 01-03-2019 21:10:00 6.4 C 91 % 5.04 C
3712 01-03-2019 21:15:00 6.4 C 91 % 5.04 C
3713 01-03-2019 21:20:00 6.4 C 91 % 5.04 C
3714 01-03-2019 21:25:00 6.4 C 91 % 5.04 C
3715 01-03-2019 21:30:00 6.5 C 90 % 4.98 C
3716 01-03-2019 21:35:00 6.5 C 91 % 5.14 C
3717 01-03-2019 21:40:00 6.5 C 91 % 5.14 C
3718 01-03-2019 21:45:00 6.5 C 90 % 4.98 C
3719 01-03-2019 21:50:00 6.4 C 90 % 4.88 C
3720 01-03-2019 21:55:00 6.4 C 90 % 4.88 C
3721 01-03-2019 22:00:00 6.4 C 90 % 4.88 C
3722 01-03-2019 22:05:00 6.4 C 91 % 5.04 C
3723 01-03-2019 22:10:00 6.3 C 91 % 4.94 C
3724 01-03-2019 22:15:00 6.3 C 91 % 4.94 C
3725 01-03-2019 22:20:00 6.3 C 91 % 4.94 C
Sensor: Nr:Datum:Temp:Feuchte:Taupunkt:
Aussen-T/F 3726 01-03-2019 22:25:00 6.3 C 91 % 4.94 C
3727 01-03-2019 22:30:00 6.3 C 91 % 4.94 C
3728 01-03-2019 22:35:00 6.3 C 90 % 4.78 C
3729 01-03-2019 22:40:00 6.4 C 90 % 4.88 C
3730 01-03-2019 22:45:00 6.4 C 89 % 4.72 C
3731 01-03-2019 22:50:00 6.5 C 89 % 4.82 C
3732 01-03-2019 22:55:00 6.6 C 88 % 4.76 C
3733 01-03-2019 23:00:00 6.6 C 88 % 4.76 C
3734 01-03-2019 23:05:00 6.7 C 88 % 4.86 C
3735 01-03-2019 23:10:00 6.7 C 88 % 4.86 C
3736 01-03-2019 23:15:00 6.6 C 88 % 4.76 C
3737 01-03-2019 23:20:00 6.6 C 88 % 4.76 C
3738 01-03-2019 23:25:00 6.6 C 88 % 4.76 C
3739 01-03-2019 23:30:00 6.6 C 88 % 4.76 C
3740 01-03-2019 23:35:00 6.5 C 89 % 4.82 C
3741 01-03-2019 23:40:00 6.4 C 89 % 4.72 C
3742 01-03-2019 23:45:00 6.4 C 89 % 4.72 C
3743 01-03-2019 23:50:00 6.4 C 90 % 4.88 C
3744 01-03-2019 23:55:00 6.3 C 90 % 4.78 C
3745 02-03-2019 00:00:00 6.3 C 90 % 4.78 C
3746 02-03-2019 00:05:00 6.3 C 89 % 4.62 C
3747 02-03-2019 00:10:00 6.2 C 90 % 4.69 C
3748 02-03-2019 00:15:00 6.2 C 90 % 4.69 C
3749 02-03-2019 00:20:00 6.2 C 90 % 4.69 C
3750 02-03-2019 00:25:00 6.2 C 90 % 4.69 C
Sensor: Nr:Datum:Temp:Feuchte:Taupunkt:
Aussen-T/F 3751 02-03-2019 00:30:00 6.2 C 90 % 4.69 C
3752 02-03-2019 00:35:00 6.2 C 89 % 4.53 C
3753 02-03-2019 00:40:00 6.2 C 88 % 4.36 C
3754 02-03-2019 00:45:00 6.1 C 88 % 4.27 C
3755 02-03-2019 00:50:00 6.1 C 88 % 4.27 C
3756 02-03-2019 00:55:00 6.1 C 88 % 4.27 C
3757 02-03-2019 01:00:00 6.1 C 88 % 4.27 C
3758 02-03-2019 01:05:00 6 C 88 % 4.17 C
3759 02-03-2019 01:10:00 5.9 C 88 % 4.07 C
3760 02-03-2019 01:15:00 5.9 C 89 % 4.23 C
3761 02-03-2019 01:20:00 5.9 C 89 % 4.23 C
3762 02-03-2019 01:25:00 5.8 C 89 % 4.13 C
3763 02-03-2019 01:30:00 5.8 C 89 % 4.13 C
3764 02-03-2019 01:35:00 5.8 C 89 % 4.13 C
3765 02-03-2019 01:40:00 5.8 C 90 % 4.29 C
3766 02-03-2019 01:45:00 5.8 C 90 % 4.29 C
3767 02-03-2019 01:50:00 5.7 C 90 % 4.19 C
3768 02-03-2019 01:55:00 5.7 C 90 % 4.19 C
3769 02-03-2019 02:00:00 5.7 C 90 % 4.19 C
3770 02-03-2019 02:05:00 5.7 C 90 % 4.19 C
3771 02-03-2019 02:10:00 5.7 C 91 % 4.35 C
3772 02-03-2019 02:15:00 5.7 C 91 % 4.35 C
3773 02-03-2019 02:20:00 5.7 C 91 % 4.35 C
3774 02-03-2019 02:25:00 5.6 C 90 % 4.09 C
3775 02-03-2019 02:30:00 5.6 C 91 % 4.25 C
Sensor: Nr:Datum:Temp:Feuchte:Taupunkt:
Aussen-T/F 3776 02-03-2019 02:35:00 5.6 C 91 % 4.25 C
3777 02-03-2019 02:40:00 5.6 C 91 % 4.25 C
3778 02-03-2019 02:45:00 5.6 C 91 % 4.25 C
3779 02-03-2019 02:50:00 5.6 C 91 % 4.25 C
3780 02-03-2019 02:55:00 5.6 C 91 % 4.25 C
3781 02-03-2019 03:00:00 5.6 C 91 % 4.25 C
3782 02-03-2019 03:05:00 5.6 C 91 % 4.25 C
3783 02-03-2019 03:10:00 5.6 C 91 % 4.25 C
3784 02-03-2019 03:15:00 5.6 C 91 % 4.25 C
3785 02-03-2019 03:20:00 5.6 C 91 % 4.25 C
3786 02-03-2019 03:25:00 5.6 C 91 % 4.25 C
3787 02-03-2019 03:30:00 5.7 C 91 % 4.35 C
3788 02-03-2019 03:35:00 5.7 C 91 % 4.35 C
3789 02-03-2019 03:40:00 5.7 C 90 % 4.19 C
3790 02-03-2019 03:45:00 5.7 C 90 % 4.19 C
3791 02-03-2019 03:50:00 5.7 C 90 % 4.19 C
3792 02-03-2019 03:55:00 5.7 C 90 % 4.19 C
3793 02-03-2019 04:00:00 5.7 C 90 % 4.19 C
3794 02-03-2019 04:05:00 5.7 C 91 % 4.35 C
3795 02-03-2019 04:10:00 5.7 C 91 % 4.35 C
3796 02-03-2019 04:15:00 5.6 C 90 % 4.09 C
3797 02-03-2019 04:20:00 5.6 C 91 % 4.25 C
3798 02-03-2019 04:25:00 5.6 C 91 % 4.25 C
3799 02-03-2019 04:30:00 5.7 C 91 % 4.35 C
3800 02-03-2019 04:35:00 5.7 C 91 % 4.35 C
Sensor: Nr:Datum:Temp:Feuchte:Taupunkt:
Aussen-T/F 3801 02-03-2019 04:40:00 5.7 C 91 % 4.35 C
3802 02-03-2019 04:45:00 5.8 C 92 % 4.6 C
3803 02-03-2019 04:50:00 5.8 C 91 % 4.45 C
3804 02-03-2019 04:55:00 5.8 C 91 % 4.45 C
3805 02-03-2019 05:00:00 5.8 C 91 % 4.45 C
3806 02-03-2019 05:05:00 5.9 C 91 % 4.55 C
3807 02-03-2019 05:10:00 5.9 C 91 % 4.55 C
3808 02-03-2019 05:15:00 5.9 C 91 % 4.55 C
3809 02-03-2019 05:20:00 6 C 91 % 4.65 C
3810 02-03-2019 05:25:00 6.1 C 91 % 4.74 C
3811 02-03-2019 05:30:00 6.2 C 91 % 4.84 C
3812 02-03-2019 05:35:00 6.3 C 91 % 4.94 C
3813 02-03-2019 05:40:00 6.3 C 91 % 4.94 C
3814 02-03-2019 05:45:00 6.3 C 91 % 4.94 C
3815 02-03-2019 05:50:00 6.3 C 91 % 4.94 C
3816 02-03-2019 05:55:00 6.3 C 91 % 4.94 C
3817 02-03-2019 06:00:00 6.3 C 91 % 4.94 C
3818 02-03-2019 06:05:00 6.3 C 91 % 4.94 C
3819 02-03-2019 06:10:00 6.3 C 91 % 4.94 C
3820 02-03-2019 06:15:00 6.3 C 91 % 4.94 C
3821 02-03-2019 06:20:00 6.3 C 91 % 4.94 C
3822 02-03-2019 06:25:00 6.3 C 91 % 4.94 C
3823 02-03-2019 06:30:00 6.3 C 91 % 4.94 C
3824 02-03-2019 06:35:00 6.3 C 91 % 4.94 C
3825 02-03-2019 06:40:00 6.3 C 91 % 4.94 C
Sensor: Nr:Datum:Temp:Feuchte:Taupunkt:
Aussen-T/F 3826 02-03-2019 06:45:00 6.3 C 91 % 4.94 C
3827 02-03-2019 06:50:00 6.3 C 91 % 4.94 C
3828 02-03-2019 06:55:00 6.4 C 91 % 5.04 C
3829 02-03-2019 07:00:00 6.4 C 91 % 5.04 C
3830 02-03-2019 07:05:00 6.6 C 91 % 5.24 C
3831 02-03-2019 07:10:00 6.6 C 91 % 5.24 C
3832 02-03-2019 07:15:00 6.6 C 91 % 5.24 C
3833 02-03-2019 07:20:00 6.7 C 91 % 5.34 C
3834 02-03-2019 07:25:00 6.7 C 91 % 5.34 C
3835 02-03-2019 07:30:00 6.7 C 91 % 5.34 C
3836 02-03-2019 07:35:00 6.7 C 91 % 5.34 C
3837 02-03-2019 07:40:00 6.7 C 91 % 5.34 C
3838 02-03-2019 07:45:00 6.7 C 91 % 5.34 C
3839 02-03-2019 07:50:00 6.7 C 91 % 5.34 C
3840 02-03-2019 07:55:00 6.7 C 91 % 5.34 C
3841 02-03-2019 08:00:00 6.8 C 91 % 5.44 C
3842 02-03-2019 08:05:00 6.8 C 91 % 5.44 C
3843 02-03-2019 08:10:00 6.8 C 91 % 5.44 C
3844 02-03-2019 08:15:00 6.9 C 90 % 5.38 C
3845 02-03-2019 08:20:00 6.9 C 91 % 5.54 C
3846 02-03-2019 08:25:00 7 C 91 % 5.63 C
3847 02-03-2019 08:30:00 7.1 C 90 % 5.57 C
3848 02-03-2019 08:35:00 7.1 C 90 % 5.57 C
3849 02-03-2019 08:40:00 7.1 C 90 % 5.57 C
3850 02-03-2019 08:45:00 7.2 C 90 % 5.67 C
Sensor: Nr:Datum:Temp:Feuchte:Taupunkt:
Aussen-T/F 3851 02-03-2019 08:50:00 7.2 C 90 % 5.67 C
3852 02-03-2019 08:55:00 7.3 C 90 % 5.77 C
3853 02-03-2019 09:00:00 7.3 C 90 % 5.77 C
3854 02-03-2019 09:05:00 7.4 C 90 % 5.87 C
3855 02-03-2019 09:10:00 7.5 C 90 % 5.97 C
3856 02-03-2019 09:15:00 7.6 C 89 % 5.91 C
3857 02-03-2019 09:20:00 7.6 C 89 % 5.91 C
3858 02-03-2019 09:25:00 7.7 C 89 % 6 C
3859 02-03-2019 09:30:00 7.7 C 89 % 6 C
3860 02-03-2019 09:35:00 7.8 C 89 % 6.1 C
3861 02-03-2019 09:40:00 7.8 C 88 % 5.94 C
3862 02-03-2019 09:45:00 7.8 C 88 % 5.94 C
3863 02-03-2019 09:50:00 7.9 C 88 % 6.04 C
3864 02-03-2019 09:55:00 7.9 C 88 % 6.04 C
3865 02-03-2019 10:00:00 7.9 C 88 % 6.04 C
3866 02-03-2019 10:05:00 7.9 C 88 % 6.04 C
3867 02-03-2019 10:10:00 7.9 C 88 % 6.04 C
3868 02-03-2019 10:15:00 7.9 C 88 % 6.04 C
3869 02-03-2019 10:20:00 7.9 C 88 % 6.04 C
3870 02-03-2019 10:25:00 8 C 88 % 6.14 C
3871 02-03-2019 10:30:00 8.1 C 88 % 6.24 C
3872 02-03-2019 10:35:00 8.1 C 87 % 6.07 C
3873 02-03-2019 10:40:00 8.1 C 88 % 6.24 C
3874 02-03-2019 10:45:00 8.2 C 88 % 6.33 C
3875 02-03-2019 10:50:00 8.3 C 87 % 6.27 C
Sensor: Nr:Datum:Temp:Feuchte:Taupunkt:
Aussen-T/F 3876 02-03-2019 10:55:00 8.3 C 87 % 6.27 C
3877 02-03-2019 11:00:00 8.4 C 87 % 6.37 C
3878 02-03-2019 11:05:00 8.6 C 87 % 6.56 C
3879 02-03-2019 11:10:00 8.7 C 86 % 6.49 C
3880 02-03-2019 11:15:00 8.7 C 86 % 6.49 C
3881 02-03-2019 11:20:00 8.8 C 86 % 6.59 C
3882 02-03-2019 11:25:00 8.9 C 86 % 6.69 C
3883 02-03-2019 11:30:00 9.1 C 86 % 6.89 C
3884 02-03-2019 11:35:00 9.2 C 85 % 6.81 C
3885 02-03-2019 11:40:00 9.3 C 84 % 6.74 C
3886 02-03-2019 11:45:00 9.3 C 85 % 6.91 C
3887 02-03-2019 11:50:00 9.4 C 84 % 6.84 C
3888 02-03-2019 11:55:00 9.5 C 83 % 6.76 C
3889 02-03-2019 12:00:00 9.6 C 84 % 7.03 C
3890 02-03-2019 12:05:00 9.7 C 84 % 7.13 C
3891 02-03-2019 12:10:00 9.8 C 84 % 7.23 C
3892 02-03-2019 12:15:00 10 C 83 % 7.25 C
3893 02-03-2019 12:20:00 10.1 C 83 % 7.35 C
3894 02-03-2019 12:25:00 10.1 C 83 % 7.35 C
3895 02-03-2019 12:30:00 10.1 C 82 % 7.17 C
3896 02-03-2019 12:35:00 10.1 C 82 % 7.17 C